<?xml version="1.0" encoding="UTF-8" standalone="no" ?>
<gpx xmlns="http://www.topografix.com/GPX/1/1" xmlns:xsi="http://www.w3.org/2001/XMLSchema-instance" xsi:schemaLocation="http://www.topografix.com/GPX/1/1 http://www.topografix.com/GPX/1/1/gpx.xsd" version="1.1" creator="VisuGPX - https://www.visugpx.com">
  <metadata>
    <name>Burdignes</name>
    <desc><![CDATA[2010-05-08_Burdignes, Dist.125Km Asc.1500m 5h02.gpx]]></desc>
  </metadata>
  <trk>
    <name><![CDATA[Burdignes,Les Ragnagnas de la Pucelle!! on GPSies.com]]></name>
    <cmt><![CDATA[Bruno, Gilles, Edouard, Jacques, Laurent, Philippe2, JeanMarie, JeanMichel,JeanPierre, Claude, Thierry, Edmond]]></cmt>
    <trkseg>
      <trkpt lat="45.12027" lon="4.9866">
        <ele>203.67568969727</ele>
        <time>2010-05-08T11:37:19Z</time>
      </trkpt>
      <trkpt lat="45.12017" lon="4.98555">
        <ele>204.40971374512</ele>
        <time>2010-05-08T11:37:49Z</time>
      </trkpt>
      <trkpt lat="45.12019" lon="4.98496">
        <ele>205.22760009766</ele>
        <time>2010-05-08T11:38:06Z</time>
      </trkpt>
      <trkpt lat="45.12036" lon="4.9843">
        <ele>205.43359375</ele>
        <time>2010-05-08T11:38:25Z</time>
      </trkpt>
      <trkpt lat="45.12051" lon="4.98414">
        <ele>205.54792785644</ele>
        <time>2010-05-08T11:38:33Z</time>
      </trkpt>
      <trkpt lat="45.12058" lon="4.98398">
        <ele>205.24694824219</ele>
        <time>2010-05-08T11:38:38Z</time>
      </trkpt>
      <trkpt lat="45.12056" lon="4.98382">
        <ele>204.83953857422</ele>
        <time>2010-05-08T11:38:43Z</time>
      </trkpt>
      <trkpt lat="45.12045" lon="4.98371">
        <ele>204.44242858887</ele>
        <time>2010-05-08T11:38:48Z</time>
      </trkpt>
      <trkpt lat="45.12068" lon="4.98288">
        <ele>204.46089172363</ele>
        <time>2010-05-08T11:39:13Z</time>
      </trkpt>
      <trkpt lat="45.12069" lon="4.98211">
        <ele>205.54879760742</ele>
        <time>2010-05-08T11:39:35Z</time>
      </trkpt>
      <trkpt lat="45.12062" lon="4.98102">
        <ele>204.30709838867</ele>
        <time>2010-05-08T11:40:06Z</time>
      </trkpt>
      <trkpt lat="45.12055" lon="4.9806">
        <ele>203.28192138672</ele>
        <time>2010-05-08T11:40:18Z</time>
      </trkpt>
      <trkpt lat="45.1203" lon="4.9798">
        <ele>201.32762145996</ele>
        <time>2010-05-08T11:40:43Z</time>
      </trkpt>
      <trkpt lat="45.11962" lon="4.97643">
        <ele>196.62117004394</ele>
        <time>2010-05-08T11:42:22Z</time>
      </trkpt>
      <trkpt lat="45.11939" lon="4.97559">
        <ele>196.46783447266</ele>
        <time>2010-05-08T11:42:48Z</time>
      </trkpt>
      <trkpt lat="45.11959" lon="4.97543">
        <ele>197.53593444824</ele>
        <time>2010-05-08T11:42:57Z</time>
      </trkpt>
      <trkpt lat="45.11967" lon="4.97519">
        <ele>197.86306762695</ele>
        <time>2010-05-08T11:43:04Z</time>
      </trkpt>
      <trkpt lat="45.11968" lon="4.97501">
        <ele>197.84530639648</ele>
        <time>2010-05-08T11:43:09Z</time>
      </trkpt>
      <trkpt lat="45.11956" lon="4.9747">
        <ele>197.24682617188</ele>
        <time>2010-05-08T11:43:19Z</time>
      </trkpt>
      <trkpt lat="45.11939" lon="4.97458">
        <ele>196.66461181641</ele>
        <time>2010-05-08T11:43:27Z</time>
      </trkpt>
      <trkpt lat="45.11926" lon="4.97458">
        <ele>196.27616882324</ele>
        <time>2010-05-08T11:43:32Z</time>
      </trkpt>
      <trkpt lat="45.11882" lon="4.97155">
        <ele>196.81089782715</ele>
        <time>2010-05-08T11:44:59Z</time>
      </trkpt>
      <trkpt lat="45.11883" lon="4.97098">
        <ele>197.12507629394</ele>
        <time>2010-05-08T11:45:16Z</time>
      </trkpt>
      <trkpt lat="45.1189" lon="4.97077">
        <ele>197.48553466797</ele>
        <time>2010-05-08T11:45:22Z</time>
      </trkpt>
      <trkpt lat="45.11901" lon="4.9707">
        <ele>197.84637451172</ele>
        <time>2010-05-08T11:45:27Z</time>
      </trkpt>
      <trkpt lat="45.119" lon="4.97057">
        <ele>198.04139709473</ele>
        <time>2010-05-08T11:45:31Z</time>
      </trkpt>
      <trkpt lat="45.11885" lon="4.97049">
        <ele>197.96617126465</ele>
        <time>2010-05-08T11:45:37Z</time>
      </trkpt>
      <trkpt lat="45.11764" lon="4.96882">
        <ele>196.38000488281</ele>
        <time>2010-05-08T11:46:45Z</time>
      </trkpt>
      <trkpt lat="45.1175" lon="4.96856">
        <ele>195.54531860352</ele>
        <time>2010-05-08T11:46:54Z</time>
      </trkpt>
      <trkpt lat="45.11755" lon="4.96836">
        <ele>195.23776245117</ele>
        <time>2010-05-08T11:47:00Z</time>
      </trkpt>
      <trkpt lat="45.11747" lon="4.9682">
        <ele>195.19021606445</ele>
        <time>2010-05-08T11:47:05Z</time>
      </trkpt>
      <trkpt lat="45.11737" lon="4.96817">
        <ele>195.32067871094</ele>
        <time>2010-05-08T11:47:10Z</time>
      </trkpt>
      <trkpt lat="45.11728" lon="4.96823">
        <ele>195.35646057129</ele>
        <time>2010-05-08T11:47:14Z</time>
      </trkpt>
      <trkpt lat="45.1171" lon="4.96795">
        <ele>195.71943664551</ele>
        <time>2010-05-08T11:47:24Z</time>
      </trkpt>
      <trkpt lat="45.11655" lon="4.9669">
        <ele>194.48162841797</ele>
        <time>2010-05-08T11:48:01Z</time>
      </trkpt>
      <trkpt lat="45.11583" lon="4.96501">
        <ele>194.98155212402</ele>
        <time>2010-05-08T11:49:02Z</time>
      </trkpt>
      <trkpt lat="45.1156" lon="4.96456">
        <ele>195.61415100098</ele>
        <time>2010-05-08T11:49:18Z</time>
      </trkpt>
      <trkpt lat="45.11475" lon="4.96328">
        <ele>198.77952575684</ele>
        <time>2010-05-08T11:50:07Z</time>
      </trkpt>
      <trkpt lat="45.11445" lon="4.96276">
        <ele>201.54397583008</ele>
        <time>2010-05-08T11:50:26Z</time>
      </trkpt>
      <trkpt lat="45.11408" lon="4.96193">
        <ele>203.10737609863</ele>
        <time>2010-05-08T11:50:54Z</time>
      </trkpt>
      <trkpt lat="45.11265" lon="4.95931">
        <ele>201.25721740723</ele>
        <time>2010-05-08T11:52:27Z</time>
      </trkpt>
      <trkpt lat="45.11149" lon="4.95754">
        <ele>195.98263549805</ele>
        <time>2010-05-08T11:53:36Z</time>
      </trkpt>
      <trkpt lat="45.11107" lon="4.95671">
        <ele>203.10209655762</ele>
        <time>2010-05-08T11:54:05Z</time>
      </trkpt>
      <trkpt lat="45.11095" lon="4.95655">
        <ele>204.96310424805</ele>
        <time>2010-05-08T11:54:11Z</time>
      </trkpt>
      <trkpt lat="45.11011" lon="4.95589">
        <ele>202.41423034668</ele>
        <time>2010-05-08T11:54:50Z</time>
      </trkpt>
      <trkpt lat="45.10984" lon="4.95557">
        <ele>199.33639526367</ele>
        <time>2010-05-08T11:55:04Z</time>
      </trkpt>
      <trkpt lat="45.10971" lon="4.95528">
        <ele>198.01824951172</ele>
        <time>2010-05-08T11:55:13Z</time>
      </trkpt>
      <trkpt lat="45.10964" lon="4.955">
        <ele>197.48745727539</ele>
        <time>2010-05-08T11:55:22Z</time>
      </trkpt>
      <trkpt lat="45.10949" lon="4.95398">
        <ele>191.72419738769</ele>
        <time>2010-05-08T11:55:51Z</time>
      </trkpt>
      <trkpt lat="45.10936" lon="4.95354">
        <ele>191.47038269043</ele>
        <time>2010-05-08T11:56:05Z</time>
      </trkpt>
      <trkpt lat="45.10911" lon="4.95279">
        <ele>194.63291931152</ele>
        <time>2010-05-08T11:56:28Z</time>
      </trkpt>
      <trkpt lat="45.10891" lon="4.95259">
        <ele>194.66780090332</ele>
        <time>2010-05-08T11:56:38Z</time>
      </trkpt>
      <trkpt lat="45.10879" lon="4.95245">
        <ele>194.55065917969</ele>
        <time>2010-05-08T11:56:44Z</time>
      </trkpt>
      <trkpt lat="45.10885" lon="4.95209">
        <ele>196.91165161133</ele>
        <time>2010-05-08T11:56:55Z</time>
      </trkpt>
      <trkpt lat="45.1086" lon="4.9514">
        <ele>198.02610778809</ele>
        <time>2010-05-08T11:57:17Z</time>
      </trkpt>
      <trkpt lat="45.1085" lon="4.95087">
        <ele>200.56010437012</ele>
        <time>2010-05-08T11:57:32Z</time>
      </trkpt>
      <trkpt lat="45.10857" lon="4.94865">
        <ele>210.62014770508</ele>
        <time>2010-05-08T11:58:35Z</time>
      </trkpt>
      <trkpt lat="45.10862" lon="4.94821">
        <ele>210.90266418457</ele>
        <time>2010-05-08T11:58:47Z</time>
      </trkpt>
      <trkpt lat="45.11187" lon="4.9473">
        <ele>218.12075805664</ele>
        <time>2010-05-08T12:01:00Z</time>
      </trkpt>
      <trkpt lat="45.11328" lon="4.94717">
        <ele>223.32325744629</ele>
        <time>2010-05-08T12:01:57Z</time>
      </trkpt>
      <trkpt lat="45.11394" lon="4.94708">
        <ele>225.47981262207</ele>
        <time>2010-05-08T12:02:23Z</time>
      </trkpt>
      <trkpt lat="45.11441" lon="4.94685">
        <ele>228.06697082519</ele>
        <time>2010-05-08T12:02:43Z</time>
      </trkpt>
      <trkpt lat="45.11563" lon="4.94608">
        <ele>229.20373535156</ele>
        <time>2010-05-08T12:03:36Z</time>
      </trkpt>
      <trkpt lat="45.1157" lon="4.94516">
        <ele>228.51159667969</ele>
        <time>2010-05-08T12:04:03Z</time>
      </trkpt>
      <trkpt lat="45.11633" lon="4.94453">
        <ele>222.28105163574</ele>
        <time>2010-05-08T12:04:33Z</time>
      </trkpt>
      <trkpt lat="45.11648" lon="4.94446">
        <ele>221.09928894043</ele>
        <time>2010-05-08T12:04:40Z</time>
      </trkpt>
      <trkpt lat="45.11692" lon="4.94442">
        <ele>218.99780273438</ele>
        <time>2010-05-08T12:04:57Z</time>
      </trkpt>
      <trkpt lat="45.11707" lon="4.94436">
        <ele>218.24592590332</ele>
        <time>2010-05-08T12:05:04Z</time>
      </trkpt>
      <trkpt lat="45.11733" lon="4.94407">
        <ele>216.42906188965</ele>
        <time>2010-05-08T12:05:17Z</time>
      </trkpt>
      <trkpt lat="45.11772" lon="4.94345">
        <ele>215.13996887207</ele>
        <time>2010-05-08T12:05:40Z</time>
      </trkpt>
      <trkpt lat="45.11783" lon="4.94309">
        <ele>214.88491821289</ele>
        <time>2010-05-08T12:05:51Z</time>
      </trkpt>
      <trkpt lat="45.11787" lon="4.94216">
        <ele>214.91809082031</ele>
        <time>2010-05-08T12:06:18Z</time>
      </trkpt>
      <trkpt lat="45.11797" lon="4.9414">
        <ele>214.74328613281</ele>
        <time>2010-05-08T12:06:40Z</time>
      </trkpt>
      <trkpt lat="45.11843" lon="4.93928">
        <ele>213.74388122559</ele>
        <time>2010-05-08T12:07:42Z</time>
      </trkpt>
      <trkpt lat="45.11858" lon="4.939">
        <ele>214.74024963379</ele>
        <time>2010-05-08T12:07:52Z</time>
      </trkpt>
      <trkpt lat="45.1196" lon="4.93756">
        <ele>223.7117767334</ele>
        <time>2010-05-08T12:08:50Z</time>
      </trkpt>
      <trkpt lat="45.12014" lon="4.9366">
        <ele>224.08352661133</ele>
        <time>2010-05-08T12:09:25Z</time>
      </trkpt>
      <trkpt lat="45.12155" lon="4.93518">
        <ele>221.55865478516</ele>
        <time>2010-05-08T12:10:34Z</time>
      </trkpt>
      <trkpt lat="45.1219" lon="4.93473">
        <ele>221.33869934082</ele>
        <time>2010-05-08T12:10:53Z</time>
      </trkpt>
      <trkpt lat="45.12295" lon="4.93275">
        <ele>217.52146911621</ele>
        <time>2010-05-08T12:12:03Z</time>
      </trkpt>
      <trkpt lat="45.12336" lon="4.93167">
        <ele>217.19364929199</ele>
        <time>2010-05-08T12:12:37Z</time>
      </trkpt>
      <trkpt lat="45.12385" lon="4.93054">
        <ele>220.78408813477</ele>
        <time>2010-05-08T12:13:15Z</time>
      </trkpt>
      <trkpt lat="45.12481" lon="4.9288">
        <ele>226.25035095215</ele>
        <time>2010-05-08T12:14:17Z</time>
      </trkpt>
      <trkpt lat="45.12497" lon="4.92814">
        <ele>224.80435180664</ele>
        <time>2010-05-08T12:14:37Z</time>
      </trkpt>
      <trkpt lat="45.12507" lon="4.92792">
        <ele>223.39590454102</ele>
        <time>2010-05-08T12:14:44Z</time>
      </trkpt>
      <trkpt lat="45.12562" lon="4.92719">
        <ele>218.47982788086</ele>
        <time>2010-05-08T12:15:14Z</time>
      </trkpt>
      <trkpt lat="45.12716" lon="4.92549">
        <ele>215.93528747559</ele>
        <time>2010-05-08T12:16:33Z</time>
      </trkpt>
      <trkpt lat="45.12912" lon="4.92356">
        <ele>218.36059570312</ele>
        <time>2010-05-08T12:18:08Z</time>
      </trkpt>
      <trkpt lat="45.12988" lon="4.92284">
        <ele>219.04663085938</ele>
        <time>2010-05-08T12:18:45Z</time>
      </trkpt>
      <trkpt lat="45.13018" lon="4.92266">
        <ele>219.65769958496</ele>
        <time>2010-05-08T12:18:58Z</time>
      </trkpt>
      <trkpt lat="45.13076" lon="4.92253">
        <ele>222.6697845459</ele>
        <time>2010-05-08T12:19:21Z</time>
      </trkpt>
      <trkpt lat="45.13272" lon="4.92236">
        <ele>224.45132446289</ele>
        <time>2010-05-08T12:20:40Z</time>
      </trkpt>
      <trkpt lat="45.13356" lon="4.92219">
        <ele>227.01741027832</ele>
        <time>2010-05-08T12:21:14Z</time>
      </trkpt>
      <trkpt lat="45.13372" lon="4.9221">
        <ele>227.63179016113</ele>
        <time>2010-05-08T12:21:21Z</time>
      </trkpt>
      <trkpt lat="45.13518" lon="4.92079">
        <ele>228.81970214844</ele>
        <time>2010-05-08T12:22:30Z</time>
      </trkpt>
      <trkpt lat="45.13566" lon="4.92055">
        <ele>231.65892028809</ele>
        <time>2010-05-08T12:22:50Z</time>
      </trkpt>
      <trkpt lat="45.13875" lon="4.91935">
        <ele>229.18023681641</ele>
        <time>2010-05-08T12:24:58Z</time>
      </trkpt>
      <trkpt lat="45.13912" lon="4.91914">
        <ele>227.32673645019</ele>
        <time>2010-05-08T12:25:14Z</time>
      </trkpt>
      <trkpt lat="45.13952" lon="4.91877">
        <ele>227.69749450684</ele>
        <time>2010-05-08T12:25:34Z</time>
      </trkpt>
      <trkpt lat="45.13967" lon="4.91857">
        <ele>227.8879699707</ele>
        <time>2010-05-08T12:25:42Z</time>
      </trkpt>
      <trkpt lat="45.14193" lon="4.91461">
        <ele>222.76351928711</ele>
        <time>2010-05-08T12:28:06Z</time>
      </trkpt>
      <trkpt lat="45.14205" lon="4.91442">
        <ele>222.05299377441</ele>
        <time>2010-05-08T12:28:13Z</time>
      </trkpt>
      <trkpt lat="45.14226" lon="4.91424">
        <ele>221.32629394531</ele>
        <time>2010-05-08T12:28:23Z</time>
      </trkpt>
      <trkpt lat="45.1451" lon="4.91369">
        <ele>219.74540710449</ele>
        <time>2010-05-08T12:30:17Z</time>
      </trkpt>
      <trkpt lat="45.14637" lon="4.91339">
        <ele>223.22880554199</ele>
        <time>2010-05-08T12:31:09Z</time>
      </trkpt>
      <trkpt lat="45.14844" lon="4.91252">
        <ele>226.20443725586</ele>
        <time>2010-05-08T12:32:35Z</time>
      </trkpt>
      <trkpt lat="45.15191" lon="4.91187">
        <ele>235.30253601074</ele>
        <time>2010-05-08T12:34:55Z</time>
      </trkpt>
      <trkpt lat="45.15203" lon="4.91176">
        <ele>236.7244720459</ele>
        <time>2010-05-08T12:35:01Z</time>
      </trkpt>
      <trkpt lat="45.15359" lon="4.91262">
        <ele>240.8390045166</ele>
        <time>2010-05-08T12:36:08Z</time>
      </trkpt>
      <trkpt lat="45.15436" lon="4.91376">
        <ele>241.02601623535</ele>
        <time>2010-05-08T12:36:53Z</time>
      </trkpt>
      <trkpt lat="45.15436" lon="4.91387">
        <ele>240.73199462891</ele>
        <time>2010-05-08T12:36:56Z</time>
      </trkpt>
      <trkpt lat="45.15436" lon="4.91398">
        <ele>240.43669128418</ele>
        <time>2010-05-08T12:36:59Z</time>
      </trkpt>
      <trkpt lat="45.15446" lon="4.91396">
        <ele>240.99597167969</ele>
        <time>2010-05-08T12:37:03Z</time>
      </trkpt>
      <trkpt lat="45.15445" lon="4.91387">
        <ele>241.19062805176</ele>
        <time>2010-05-08T12:37:06Z</time>
      </trkpt>
      <trkpt lat="45.15451" lon="4.91377">
        <ele>241.79821777344</ele>
        <time>2010-05-08T12:37:09Z</time>
      </trkpt>
      <trkpt lat="45.15554" lon="4.91241">
        <ele>251.21650695801</ele>
        <time>2010-05-08T12:38:06Z</time>
      </trkpt>
      <trkpt lat="45.15652" lon="4.9115">
        <ele>244.76495361328</ele>
        <time>2010-05-08T12:38:53Z</time>
      </trkpt>
      <trkpt lat="45.15766" lon="4.91069">
        <ele>241.10119628906</ele>
        <time>2010-05-08T12:39:44Z</time>
      </trkpt>
      <trkpt lat="45.15915" lon="4.90993">
        <ele>234.32295227051</ele>
        <time>2010-05-08T12:40:47Z</time>
      </trkpt>
      <trkpt lat="45.15929" lon="4.90981">
        <ele>234.05644226074</ele>
        <time>2010-05-08T12:40:53Z</time>
      </trkpt>
      <trkpt lat="45.15947" lon="4.90959">
        <ele>233.84378051758</ele>
        <time>2010-05-08T12:41:03Z</time>
      </trkpt>
      <trkpt lat="45.15987" lon="4.90863">
        <ele>233.38133239746</ele>
        <time>2010-05-08T12:41:34Z</time>
      </trkpt>
      <trkpt lat="45.15977" lon="4.90863">
        <ele>234.43640136719</ele>
        <time>2010-05-08T12:41:38Z</time>
      </trkpt>
      <trkpt lat="45.15987" lon="4.90863">
        <ele>233.38133239746</ele>
        <time>2010-05-08T12:41:42Z</time>
      </trkpt>
      <trkpt lat="45.16085" lon="4.90553">
        <ele>224.53826904297</ele>
        <time>2010-05-08T12:43:18Z</time>
      </trkpt>
      <trkpt lat="45.16104" lon="4.90508">
        <ele>222.58494567871</ele>
        <time>2010-05-08T12:43:33Z</time>
      </trkpt>
      <trkpt lat="45.16135" lon="4.9045">
        <ele>219.84815979004</ele>
        <time>2010-05-08T12:43:54Z</time>
      </trkpt>
      <trkpt lat="45.16234" lon="4.90236">
        <ele>214.95277404785</ele>
        <time>2010-05-08T12:45:06Z</time>
      </trkpt>
      <trkpt lat="45.16284" lon="4.90149">
        <ele>213.61456298828</ele>
        <time>2010-05-08T12:45:38Z</time>
      </trkpt>
      <trkpt lat="45.16349" lon="4.90048">
        <ele>211</ele>
        <time>2010-05-08T12:46:16Z</time>
      </trkpt>
      <trkpt lat="45.16408" lon="4.89912">
        <ele>211.21569824219</ele>
        <time>2010-05-08T12:47:01Z</time>
      </trkpt>
      <trkpt lat="45.16435" lon="4.89839">
        <ele>210.17109680176</ele>
        <time>2010-05-08T12:47:25Z</time>
      </trkpt>
      <trkpt lat="45.16526" lon="4.89471">
        <ele>200.00337219238</ele>
        <time>2010-05-08T12:49:15Z</time>
      </trkpt>
      <trkpt lat="45.1659" lon="4.8925">
        <ele>193.83734130859</ele>
        <time>2010-05-08T12:50:22Z</time>
      </trkpt>
      <trkpt lat="45.16632" lon="4.89207">
        <ele>193.86251831055</ele>
        <time>2010-05-08T12:50:43Z</time>
      </trkpt>
      <trkpt lat="45.168" lon="4.89134">
        <ele>191.50852966309</ele>
        <time>2010-05-08T12:51:53Z</time>
      </trkpt>
      <trkpt lat="45.1684" lon="4.89096">
        <ele>190.75581359863</ele>
        <time>2010-05-08T12:52:12Z</time>
      </trkpt>
      <trkpt lat="45.16848" lon="4.89073">
        <ele>190.80226135254</ele>
        <time>2010-05-08T12:52:20Z</time>
      </trkpt>
      <trkpt lat="45.16985" lon="4.88295">
        <ele>177.17834472656</ele>
        <time>2010-05-08T12:56:06Z</time>
      </trkpt>
      <trkpt lat="45.16987" lon="4.8822">
        <ele>176.68432617188</ele>
        <time>2010-05-08T12:56:27Z</time>
      </trkpt>
      <trkpt lat="45.16972" lon="4.88036">
        <ele>176.33760070801</ele>
        <time>2010-05-08T12:57:19Z</time>
      </trkpt>
      <trkpt lat="45.16969" lon="4.87944">
        <ele>175.31829833984</ele>
        <time>2010-05-08T12:57:45Z</time>
      </trkpt>
      <trkpt lat="45.17" lon="4.87758">
        <ele>172.09400939941</ele>
        <time>2010-05-08T12:58:39Z</time>
      </trkpt>
      <trkpt lat="45.17011" lon="4.87752">
        <ele>172.02410888672</ele>
        <time>2010-05-08T12:58:44Z</time>
      </trkpt>
      <trkpt lat="45.1701" lon="4.87743">
        <ele>172.06364440918</ele>
        <time>2010-05-08T12:58:47Z</time>
      </trkpt>
      <trkpt lat="45.17004" lon="4.87739">
        <ele>172.11938476562</ele>
        <time>2010-05-08T12:58:49Z</time>
      </trkpt>
      <trkpt lat="45.17026" lon="4.8763">
        <ele>172.07057189941</ele>
        <time>2010-05-08T12:59:21Z</time>
      </trkpt>
      <trkpt lat="45.17028" lon="4.87597">
        <ele>171.77217102051</ele>
        <time>2010-05-08T12:59:31Z</time>
      </trkpt>
      <trkpt lat="45.17022" lon="4.87446">
        <ele>171.47718811035</ele>
        <time>2010-05-08T13:00:13Z</time>
      </trkpt>
      <trkpt lat="45.17003" lon="4.87176">
        <ele>173.80683898926</ele>
        <time>2010-05-08T13:01:30Z</time>
      </trkpt>
      <trkpt lat="45.17053" lon="4.8707">
        <ele>172.14717102051</ele>
        <time>2010-05-08T13:02:06Z</time>
      </trkpt>
      <trkpt lat="45.17309" lon="4.86472">
        <ele>170.43809509277</ele>
        <time>2010-05-08T13:05:23Z</time>
      </trkpt>
      <trkpt lat="45.17327" lon="4.86457">
        <ele>169.71028137207</ele>
        <time>2010-05-08T13:05:32Z</time>
      </trkpt>
      <trkpt lat="45.17365" lon="4.86381">
        <ele>168.07553100586</ele>
        <time>2010-05-08T13:05:58Z</time>
      </trkpt>
      <trkpt lat="45.17522" lon="4.86036">
        <ele>166.30599975586</ele>
        <time>2010-05-08T13:07:54Z</time>
      </trkpt>
      <trkpt lat="45.17523" lon="4.8601">
        <ele>166.73109436035</ele>
        <time>2010-05-08T13:08:01Z</time>
      </trkpt>
      <trkpt lat="45.17585" lon="4.85871">
        <ele>165.71931457519</ele>
        <time>2010-05-08T13:08:48Z</time>
      </trkpt>
      <trkpt lat="45.17625" lon="4.85762">
        <ele>177.69540405273</ele>
        <time>2010-05-08T13:09:22Z</time>
      </trkpt>
      <trkpt lat="45.17642" lon="4.85743">
        <ele>177.76878356934</ele>
        <time>2010-05-08T13:09:31Z</time>
      </trkpt>
      <trkpt lat="45.17759" lon="4.85662">
        <ele>173.80119323731</ele>
        <time>2010-05-08T13:10:23Z</time>
      </trkpt>
      <trkpt lat="45.17795" lon="4.85625">
        <ele>179.99858093262</ele>
        <time>2010-05-08T13:10:41Z</time>
      </trkpt>
      <trkpt lat="45.17854" lon="4.85546">
        <ele>185.82064819336</ele>
        <time>2010-05-08T13:11:13Z</time>
      </trkpt>
      <trkpt lat="45.17871" lon="4.85508">
        <ele>186.48709106445</ele>
        <time>2010-05-08T13:11:26Z</time>
      </trkpt>
      <trkpt lat="45.17878" lon="4.85482">
        <ele>185.4397277832</ele>
        <time>2010-05-08T13:11:34Z</time>
      </trkpt>
      <trkpt lat="45.17881" lon="4.8545">
        <ele>185.28709411621</ele>
        <time>2010-05-08T13:11:43Z</time>
      </trkpt>
      <trkpt lat="45.17864" lon="4.85365">
        <ele>193.35516357422</ele>
        <time>2010-05-08T13:12:08Z</time>
      </trkpt>
      <trkpt lat="45.1786" lon="4.85327">
        <ele>193.76924133301</ele>
        <time>2010-05-08T13:12:19Z</time>
      </trkpt>
      <trkpt lat="45.1786" lon="4.8528">
        <ele>190.67977905273</ele>
        <time>2010-05-08T13:12:32Z</time>
      </trkpt>
      <trkpt lat="45.17869" lon="4.85229">
        <ele>186.64167785644</ele>
        <time>2010-05-08T13:12:47Z</time>
      </trkpt>
      <trkpt lat="45.17876" lon="4.85207">
        <ele>185.76664733887</ele>
        <time>2010-05-08T13:12:54Z</time>
      </trkpt>
      <trkpt lat="45.17918" lon="4.85164">
        <ele>178.41572570801</ele>
        <time>2010-05-08T13:13:14Z</time>
      </trkpt>
      <trkpt lat="45.17961" lon="4.85098">
        <ele>179.87818908691</ele>
        <time>2010-05-08T13:13:40Z</time>
      </trkpt>
      <trkpt lat="45.17965" lon="4.85083">
        <ele>180.24546813965</ele>
        <time>2010-05-08T13:13:44Z</time>
      </trkpt>
      <trkpt lat="45.17973" lon="4.84936">
        <ele>189.59501647949</ele>
        <time>2010-05-08T13:14:26Z</time>
      </trkpt>
      <trkpt lat="45.17979" lon="4.84822">
        <ele>185.87864685059</ele>
        <time>2010-05-08T13:14:58Z</time>
      </trkpt>
      <trkpt lat="45.17975" lon="4.84751">
        <ele>184.91215515137</ele>
        <time>2010-05-08T13:15:18Z</time>
      </trkpt>
      <trkpt lat="45.17967" lon="4.84719">
        <ele>185.14263916016</ele>
        <time>2010-05-08T13:15:28Z</time>
      </trkpt>
      <trkpt lat="45.17912" lon="4.84584">
        <ele>172.59309387207</ele>
        <time>2010-05-08T13:16:12Z</time>
      </trkpt>
      <trkpt lat="45.17871" lon="4.84467">
        <ele>180.24647521973</ele>
        <time>2010-05-08T13:16:49Z</time>
      </trkpt>
      <trkpt lat="45.17862" lon="4.84398">
        <ele>182.388671875</ele>
        <time>2010-05-08T13:17:09Z</time>
      </trkpt>
      <trkpt lat="45.17863" lon="4.84311">
        <ele>183.11433410644</ele>
        <time>2010-05-08T13:17:33Z</time>
      </trkpt>
      <trkpt lat="45.17867" lon="4.84284">
        <ele>182.9580078125</ele>
        <time>2010-05-08T13:17:41Z</time>
      </trkpt>
      <trkpt lat="45.17894" lon="4.8421">
        <ele>177.20353698731</ele>
        <time>2010-05-08T13:18:04Z</time>
      </trkpt>
      <trkpt lat="45.179" lon="4.83933">
        <ele>178.57270812988</ele>
        <time>2010-05-08T13:19:23Z</time>
      </trkpt>
      <trkpt lat="45.17929" lon="4.83799">
        <ele>172.86903381348</ele>
        <time>2010-05-08T13:20:02Z</time>
      </trkpt>
      <trkpt lat="45.1797" lon="4.83665">
        <ele>173.16047668457</ele>
        <time>2010-05-08T13:20:43Z</time>
      </trkpt>
      <trkpt lat="45.18021" lon="4.83573">
        <ele>175.98083496094</ele>
        <time>2010-05-08T13:21:16Z</time>
      </trkpt>
      <trkpt lat="45.18096" lon="4.83496">
        <ele>165.6551361084</ele>
        <time>2010-05-08T13:21:53Z</time>
      </trkpt>
      <trkpt lat="45.18104" lon="4.83473">
        <ele>166.11047363281</ele>
        <time>2010-05-08T13:22:01Z</time>
      </trkpt>
      <trkpt lat="45.18102" lon="4.83458">
        <ele>165.10537719727</ele>
        <time>2010-05-08T13:22:05Z</time>
      </trkpt>
      <trkpt lat="45.18041" lon="4.83364">
        <ele>163.27734375</ele>
        <time>2010-05-08T13:22:41Z</time>
      </trkpt>
      <trkpt lat="45.18004" lon="4.83319">
        <ele>156.37818908691</ele>
        <time>2010-05-08T13:23:01Z</time>
      </trkpt>
      <trkpt lat="45.17983" lon="4.83301">
        <ele>154.13926696777</ele>
        <time>2010-05-08T13:23:10Z</time>
      </trkpt>
      <trkpt lat="45.17956" lon="4.833">
        <ele>151.81292724609</ele>
        <time>2010-05-08T13:23:21Z</time>
      </trkpt>
      <trkpt lat="45.17867" lon="4.83345">
        <ele>152.32043457031</ele>
        <time>2010-05-08T13:23:59Z</time>
      </trkpt>
      <trkpt lat="45.17833" lon="4.83349">
        <ele>153.30836486816</ele>
        <time>2010-05-08T13:24:13Z</time>
      </trkpt>
      <trkpt lat="45.17799" lon="4.83345">
        <ele>162.68675231934</ele>
        <time>2010-05-08T13:24:26Z</time>
      </trkpt>
      <trkpt lat="45.17779" lon="4.83321">
        <ele>164.56350708008</ele>
        <time>2010-05-08T13:24:37Z</time>
      </trkpt>
      <trkpt lat="45.17713" lon="4.8314">
        <ele>166.49531555176</ele>
        <time>2010-05-08T13:25:34Z</time>
      </trkpt>
      <trkpt lat="45.177" lon="4.83018">
        <ele>153.04708862305</ele>
        <time>2010-05-08T13:26:09Z</time>
      </trkpt>
      <trkpt lat="45.1769" lon="4.82981">
        <ele>149.83638000488</ele>
        <time>2010-05-08T13:26:20Z</time>
      </trkpt>
      <trkpt lat="45.17683" lon="4.82971">
        <ele>149.34980773926</ele>
        <time>2010-05-08T13:26:24Z</time>
      </trkpt>
      <trkpt lat="45.17668" lon="4.82963">
        <ele>149.15501403809</ele>
        <time>2010-05-08T13:26:31Z</time>
      </trkpt>
      <trkpt lat="45.17649" lon="4.82961">
        <ele>149.0262298584</ele>
        <time>2010-05-08T13:26:38Z</time>
      </trkpt>
      <trkpt lat="45.17563" lon="4.82996">
        <ele>154.15692138672</ele>
        <time>2010-05-08T13:27:14Z</time>
      </trkpt>
      <trkpt lat="45.17514" lon="4.83007">
        <ele>155.0068359375</ele>
        <time>2010-05-08T13:27:34Z</time>
      </trkpt>
      <trkpt lat="45.17463" lon="4.83014">
        <ele>160.79913330078</ele>
        <time>2010-05-08T13:27:54Z</time>
      </trkpt>
      <trkpt lat="45.17415" lon="4.82985">
        <ele>157.33462524414</ele>
        <time>2010-05-08T13:28:15Z</time>
      </trkpt>
      <trkpt lat="45.17368" lon="4.82906">
        <ele>168.48759460449</ele>
        <time>2010-05-08T13:28:45Z</time>
      </trkpt>
      <trkpt lat="45.17365" lon="4.82883">
        <ele>170.20533752441</ele>
        <time>2010-05-08T13:28:51Z</time>
      </trkpt>
      <trkpt lat="45.17368" lon="4.82866">
        <ele>168.84973144531</ele>
        <time>2010-05-08T13:28:56Z</time>
      </trkpt>
      <trkpt lat="45.17418" lon="4.82688">
        <ele>145.39102172852</ele>
        <time>2010-05-08T13:29:50Z</time>
      </trkpt>
      <trkpt lat="45.17422" lon="4.82648">
        <ele>146.44305419922</ele>
        <time>2010-05-08T13:30:02Z</time>
      </trkpt>
      <trkpt lat="45.17421" lon="4.82618">
        <ele>145.69515991211</ele>
        <time>2010-05-08T13:30:10Z</time>
      </trkpt>
      <trkpt lat="45.17414" lon="4.82591">
        <ele>144.60942077637</ele>
        <time>2010-05-08T13:30:18Z</time>
      </trkpt>
      <trkpt lat="45.17403" lon="4.82569">
        <ele>145.17050170898</ele>
        <time>2010-05-08T13:30:26Z</time>
      </trkpt>
      <trkpt lat="45.17339" lon="4.82472">
        <ele>137.96903991699</ele>
        <time>2010-05-08T13:31:03Z</time>
      </trkpt>
      <trkpt lat="45.17316" lon="4.82415">
        <ele>138.1784362793</ele>
        <time>2010-05-08T13:31:22Z</time>
      </trkpt>
      <trkpt lat="45.17292" lon="4.82388">
        <ele>143.86312866211</ele>
        <time>2010-05-08T13:31:34Z</time>
      </trkpt>
      <trkpt lat="45.17305" lon="4.82383">
        <ele>142.12319946289</ele>
        <time>2010-05-08T13:31:39Z</time>
      </trkpt>
      <trkpt lat="45.17311" lon="4.82364">
        <ele>142.42050170898</ele>
        <time>2010-05-08T13:31:45Z</time>
      </trkpt>
      <trkpt lat="45.17309" lon="4.82351">
        <ele>143.771484375</ele>
        <time>2010-05-08T13:31:49Z</time>
      </trkpt>
      <trkpt lat="45.17304" lon="4.82345">
        <ele>145.46461486816</ele>
        <time>2010-05-08T13:31:52Z</time>
      </trkpt>
      <trkpt lat="45.17292" lon="4.82344">
        <ele>148.32752990723</ele>
        <time>2010-05-08T13:31:57Z</time>
      </trkpt>
      <trkpt lat="45.17315" lon="4.82301">
        <ele>148.43363952637</ele>
        <time>2010-05-08T13:32:12Z</time>
      </trkpt>
      <trkpt lat="45.17334" lon="4.8228">
        <ele>148.49308776856</ele>
        <time>2010-05-08T13:32:21Z</time>
      </trkpt>
      <trkpt lat="45.17416" lon="4.82207">
        <ele>138.70256042481</ele>
        <time>2010-05-08T13:33:00Z</time>
      </trkpt>
      <trkpt lat="45.17457" lon="4.82179">
        <ele>137.58212280273</ele>
        <time>2010-05-08T13:33:18Z</time>
      </trkpt>
      <trkpt lat="45.17466" lon="4.8218">
        <ele>136.93305969238</ele>
        <time>2010-05-08T13:33:22Z</time>
      </trkpt>
      <trkpt lat="45.17506" lon="4.82157">
        <ele>134.61138916016</ele>
        <time>2010-05-08T13:33:39Z</time>
      </trkpt>
      <trkpt lat="45.17514" lon="4.82165">
        <ele>134.31292724609</ele>
        <time>2010-05-08T13:33:43Z</time>
      </trkpt>
      <trkpt lat="45.17525" lon="4.82165">
        <ele>133.78723144531</ele>
        <time>2010-05-08T13:33:48Z</time>
      </trkpt>
      <trkpt lat="45.17534" lon="4.82148">
        <ele>133.33209228516</ele>
        <time>2010-05-08T13:33:54Z</time>
      </trkpt>
      <trkpt lat="45.17531" lon="4.8213">
        <ele>133.40600585938</ele>
        <time>2010-05-08T13:33:59Z</time>
      </trkpt>
      <trkpt lat="45.17575" lon="4.82088">
        <ele>132.15341186523</ele>
        <time>2010-05-08T13:34:20Z</time>
      </trkpt>
      <trkpt lat="45.17597" lon="4.82058">
        <ele>131.95080566406</ele>
        <time>2010-05-08T13:34:32Z</time>
      </trkpt>
      <trkpt lat="45.17623" lon="4.81989">
        <ele>131.58537292481</ele>
        <time>2010-05-08T13:34:54Z</time>
      </trkpt>
      <trkpt lat="45.17666" lon="4.8191">
        <ele>132.08012390137</ele>
        <time>2010-05-08T13:35:22Z</time>
      </trkpt>
      <trkpt lat="45.17677" lon="4.81907">
        <ele>132.22497558594</ele>
        <time>2010-05-08T13:35:27Z</time>
      </trkpt>
      <trkpt lat="45.17681" lon="4.819">
        <ele>132.3390045166</ele>
        <time>2010-05-08T13:35:29Z</time>
      </trkpt>
      <trkpt lat="45.17681" lon="4.81895">
        <ele>132.38818359375</ele>
        <time>2010-05-08T13:35:31Z</time>
      </trkpt>
      <trkpt lat="45.17674" lon="4.81889">
        <ele>132.38966369629</ele>
        <time>2010-05-08T13:35:34Z</time>
      </trkpt>
      <trkpt lat="45.17708" lon="4.8176">
        <ele>131.68496704102</ele>
        <time>2010-05-08T13:36:13Z</time>
      </trkpt>
      <trkpt lat="45.17715" lon="4.81696">
        <ele>131.04261779785</ele>
        <time>2010-05-08T13:36:31Z</time>
      </trkpt>
      <trkpt lat="45.17714" lon="4.81647">
        <ele>130.76364135742</ele>
        <time>2010-05-08T13:36:45Z</time>
      </trkpt>
      <trkpt lat="45.17713" lon="4.81543">
        <ele>130.92581176758</ele>
        <time>2010-05-08T13:37:15Z</time>
      </trkpt>
      <trkpt lat="45.17733" lon="4.81467">
        <ele>131.35760498047</ele>
        <time>2010-05-08T13:37:37Z</time>
      </trkpt>
      <trkpt lat="45.17741" lon="4.8146">
        <ele>131.43255615234</ele>
        <time>2010-05-08T13:37:41Z</time>
      </trkpt>
      <trkpt lat="45.17738" lon="4.81447">
        <ele>131.50494384766</ele>
        <time>2010-05-08T13:37:45Z</time>
      </trkpt>
      <trkpt lat="45.1778" lon="4.81418">
        <ele>132.36029052734</ele>
        <time>2010-05-08T13:38:04Z</time>
      </trkpt>
      <trkpt lat="45.17785" lon="4.81433">
        <ele>132.46873474121</ele>
        <time>2010-05-08T13:38:08Z</time>
      </trkpt>
      <trkpt lat="45.17791" lon="4.81449">
        <ele>132.67620849609</ele>
        <time>2010-05-08T13:38:14Z</time>
      </trkpt>
      <trkpt lat="45.17864" lon="4.81443">
        <ele>134.96263122559</ele>
        <time>2010-05-08T13:38:43Z</time>
      </trkpt>
      <trkpt lat="45.17866" lon="4.81483">
        <ele>136.39889526367</ele>
        <time>2010-05-08T13:38:54Z</time>
      </trkpt>
      <trkpt lat="45.17867" lon="4.81494">
        <ele>136.81176757812</ele>
        <time>2010-05-08T13:38:57Z</time>
      </trkpt>
      <trkpt lat="45.17849" lon="4.81496">
        <ele>135.82411193848</ele>
        <time>2010-05-08T13:39:04Z</time>
      </trkpt>
      <trkpt lat="45.17853" lon="4.81513">
        <ele>136.22706604004</ele>
        <time>2010-05-08T13:39:10Z</time>
      </trkpt>
      <trkpt lat="45.17863" lon="4.81556">
        <ele>137.02481079102</ele>
        <time>2010-05-08T13:39:22Z</time>
      </trkpt>
      <trkpt lat="45.17871" lon="4.81589">
        <ele>137.94017028809</ele>
        <time>2010-05-08T13:39:32Z</time>
      </trkpt>
      <trkpt lat="45.17871" lon="4.81599">
        <ele>138.33258056641</ele>
        <time>2010-05-08T13:39:35Z</time>
      </trkpt>
      <trkpt lat="45.17876" lon="4.81597">
        <ele>138.65992736816</ele>
        <time>2010-05-08T13:39:37Z</time>
      </trkpt>
      <trkpt lat="45.17917" lon="4.81621">
        <ele>143.71806335449</ele>
        <time>2010-05-08T13:39:55Z</time>
      </trkpt>
      <trkpt lat="45.17924" lon="4.81642">
        <ele>145.45631408691</ele>
        <time>2010-05-08T13:40:01Z</time>
      </trkpt>
      <trkpt lat="45.17943" lon="4.81689">
        <ele>148.61431884766</ele>
        <time>2010-05-08T13:40:17Z</time>
      </trkpt>
      <trkpt lat="45.17978" lon="4.81681">
        <ele>149.03184509277</ele>
        <time>2010-05-08T13:40:31Z</time>
      </trkpt>
      <trkpt lat="45.17989" lon="4.81741">
        <ele>151.52928161621</ele>
        <time>2010-05-08T13:40:48Z</time>
      </trkpt>
      <trkpt lat="45.18082" lon="4.81719">
        <ele>148.91549682617</ele>
        <time>2010-05-08T13:41:26Z</time>
      </trkpt>
      <trkpt lat="45.18123" lon="4.81708">
        <ele>152.03260803223</ele>
        <time>2010-05-08T13:41:43Z</time>
      </trkpt>
      <trkpt lat="45.18147" lon="4.81696">
        <ele>152.98503112793</ele>
        <time>2010-05-08T13:41:53Z</time>
      </trkpt>
      <trkpt lat="45.18263" lon="4.81591">
        <ele>148.6559753418</ele>
        <time>2010-05-08T13:42:48Z</time>
      </trkpt>
      <trkpt lat="45.18304" lon="4.81563">
        <ele>147.56997680664</ele>
        <time>2010-05-08T13:43:06Z</time>
      </trkpt>
      <trkpt lat="45.18332" lon="4.81532">
        <ele>145.40885925293</ele>
        <time>2010-05-08T13:43:20Z</time>
      </trkpt>
      <trkpt lat="45.18438" lon="4.81496">
        <ele>148.60806274414</ele>
        <time>2010-05-08T13:44:04Z</time>
      </trkpt>
      <trkpt lat="45.18509" lon="4.81481">
        <ele>146.95541381836</ele>
        <time>2010-05-08T13:44:33Z</time>
      </trkpt>
      <trkpt lat="45.18889" lon="4.81502">
        <ele>142.81092834473</ele>
        <time>2010-05-08T13:47:05Z</time>
      </trkpt>
      <trkpt lat="45.19119" lon="4.81537">
        <ele>145.0124206543</ele>
        <time>2010-05-08T13:48:38Z</time>
      </trkpt>
      <trkpt lat="45.19145" lon="4.81547">
        <ele>145.81329345703</ele>
        <time>2010-05-08T13:48:48Z</time>
      </trkpt>
      <trkpt lat="45.19148" lon="4.81554">
        <ele>146.15292358398</ele>
        <time>2010-05-08T13:48:51Z</time>
      </trkpt>
      <trkpt lat="45.19154" lon="4.8155">
        <ele>146.12496948242</ele>
        <time>2010-05-08T13:48:53Z</time>
      </trkpt>
      <trkpt lat="45.19151" lon="4.81543">
        <ele>145.77224731445</ele>
        <time>2010-05-08T13:48:56Z</time>
      </trkpt>
      <trkpt lat="45.19163" lon="4.8144">
        <ele>144.71977233887</ele>
        <time>2010-05-08T13:49:25Z</time>
      </trkpt>
      <trkpt lat="45.19442" lon="4.81451">
        <ele>149.35501098633</ele>
        <time>2010-05-08T13:51:17Z</time>
      </trkpt>
      <trkpt lat="45.19442" lon="4.81446">
        <ele>149.4934387207</ele>
        <time>2010-05-08T13:51:18Z</time>
      </trkpt>
      <trkpt lat="45.19416" lon="4.81444">
        <ele>149.34954833984</ele>
        <time>2010-05-08T13:51:29Z</time>
      </trkpt>
      <trkpt lat="45.19217" lon="4.81435">
        <ele>146.92643737793</ele>
        <time>2010-05-08T13:52:48Z</time>
      </trkpt>
      <trkpt lat="45.19163" lon="4.81435">
        <ele>144.77984619141</ele>
        <time>2010-05-08T13:53:10Z</time>
      </trkpt>
      <trkpt lat="45.19163" lon="4.8144">
        <ele>144.71977233887</ele>
        <time>2010-05-08T13:53:11Z</time>
      </trkpt>
      <trkpt lat="45.19682" lon="4.81462">
        <ele>148.44692993164</ele>
        <time>2010-05-08T13:56:39Z</time>
      </trkpt>
      <trkpt lat="45.20292" lon="4.815">
        <ele>132.00006103516</ele>
        <time>2010-05-08T14:00:44Z</time>
      </trkpt>
      <trkpt lat="45.20343" lon="4.815">
        <ele>131.76763916016</ele>
        <time>2010-05-08T14:01:04Z</time>
      </trkpt>
      <trkpt lat="45.20364" lon="4.81483">
        <ele>131.0810546875</ele>
        <time>2010-05-08T14:01:14Z</time>
      </trkpt>
      <trkpt lat="45.20371" lon="4.81504">
        <ele>131.14736938477</ele>
        <time>2010-05-08T14:01:20Z</time>
      </trkpt>
      <trkpt lat="45.2039" lon="4.81511">
        <ele>130.77372741699</ele>
        <time>2010-05-08T14:01:28Z</time>
      </trkpt>
      <trkpt lat="45.20405" lon="4.815">
        <ele>130.28448486328</ele>
        <time>2010-05-08T14:01:35Z</time>
      </trkpt>
      <trkpt lat="45.2042" lon="4.81499">
        <ele>129.97105407715</ele>
        <time>2010-05-08T14:01:41Z</time>
      </trkpt>
      <trkpt lat="45.20464" lon="4.81517">
        <ele>129.75205993652</ele>
        <time>2010-05-08T14:01:59Z</time>
      </trkpt>
      <trkpt lat="45.20583" lon="4.81519">
        <ele>129.99757385254</ele>
        <time>2010-05-08T14:02:47Z</time>
      </trkpt>
      <trkpt lat="45.2059" lon="4.81514">
        <ele>130.07794189453</ele>
        <time>2010-05-08T14:02:50Z</time>
      </trkpt>
      <trkpt lat="45.20792" lon="4.81526">
        <ele>132.46916198731</ele>
        <time>2010-05-08T14:04:11Z</time>
      </trkpt>
      <trkpt lat="45.20927" lon="4.81539">
        <ele>132.80917358398</ele>
        <time>2010-05-08T14:05:05Z</time>
      </trkpt>
      <trkpt lat="45.20942" lon="4.81547">
        <ele>132.56483459473</ele>
        <time>2010-05-08T14:05:12Z</time>
      </trkpt>
      <trkpt lat="45.20972" lon="4.8155">
        <ele>132.0691986084</ele>
        <time>2010-05-08T14:05:24Z</time>
      </trkpt>
      <trkpt lat="45.21082" lon="4.81551">
        <ele>133.19625854492</ele>
        <time>2010-05-08T14:06:08Z</time>
      </trkpt>
      <trkpt lat="45.21084" lon="4.81511">
        <ele>132.27487182617</ele>
        <time>2010-05-08T14:06:19Z</time>
      </trkpt>
      <trkpt lat="45.21093" lon="4.81485">
        <ele>132.009765625</ele>
        <time>2010-05-08T14:06:27Z</time>
      </trkpt>
      <trkpt lat="45.21131" lon="4.8149">
        <ele>132.88934326172</ele>
        <time>2010-05-08T14:06:42Z</time>
      </trkpt>
      <trkpt lat="45.21159" lon="4.81492">
        <ele>133.54508972168</ele>
        <time>2010-05-08T14:06:54Z</time>
      </trkpt>
      <trkpt lat="45.21187" lon="4.81484">
        <ele>133.75836181641</ele>
        <time>2010-05-08T14:07:05Z</time>
      </trkpt>
      <trkpt lat="45.213" lon="4.81399">
        <ele>134.60150146484</ele>
        <time>2010-05-08T14:07:56Z</time>
      </trkpt>
      <trkpt lat="45.2139" lon="4.8135">
        <ele>133.63635253906</ele>
        <time>2010-05-08T14:08:35Z</time>
      </trkpt>
      <trkpt lat="45.21727" lon="4.81239">
        <ele>135.05918884277</ele>
        <time>2010-05-08T14:10:53Z</time>
      </trkpt>
      <trkpt lat="45.22052" lon="4.81136">
        <ele>134.11747741699</ele>
        <time>2010-05-08T14:13:07Z</time>
      </trkpt>
      <trkpt lat="45.22086" lon="4.81117">
        <ele>134.44825744629</ele>
        <time>2010-05-08T14:13:21Z</time>
      </trkpt>
      <trkpt lat="45.22141" lon="4.81051">
        <ele>134.03497314453</ele>
        <time>2010-05-08T14:13:50Z</time>
      </trkpt>
      <trkpt lat="45.22155" lon="4.8104">
        <ele>133.89280700684</ele>
        <time>2010-05-08T14:13:57Z</time>
      </trkpt>
      <trkpt lat="45.22328" lon="4.80959">
        <ele>134.46173095703</ele>
        <time>2010-05-08T14:15:09Z</time>
      </trkpt>
      <trkpt lat="45.22378" lon="4.80941">
        <ele>134.9521484375</ele>
        <time>2010-05-08T14:15:30Z</time>
      </trkpt>
      <trkpt lat="45.22492" lon="4.80918">
        <ele>135.93505859375</ele>
        <time>2010-05-08T14:16:16Z</time>
      </trkpt>
      <trkpt lat="45.22774" lon="4.80878">
        <ele>134.03244018555</ele>
        <time>2010-05-08T14:18:10Z</time>
      </trkpt>
      <trkpt lat="45.2285" lon="4.80856">
        <ele>134.68969726562</ele>
        <time>2010-05-08T14:18:41Z</time>
      </trkpt>
      <trkpt lat="45.22991" lon="4.8079">
        <ele>136.21322631836</ele>
        <time>2010-05-08T14:19:40Z</time>
      </trkpt>
      <trkpt lat="45.2316" lon="4.80669">
        <ele>135.90283203125</ele>
        <time>2010-05-08T14:20:56Z</time>
      </trkpt>
      <trkpt lat="45.23216" lon="4.80639">
        <ele>136.39619445801</ele>
        <time>2010-05-08T14:21:20Z</time>
      </trkpt>
      <trkpt lat="45.23378" lon="4.80621">
        <ele>133.64979553223</ele>
        <time>2010-05-08T14:22:25Z</time>
      </trkpt>
      <trkpt lat="45.23509" lon="4.80652">
        <ele>131.1259765625</ele>
        <time>2010-05-08T14:23:18Z</time>
      </trkpt>
      <trkpt lat="45.23604" lon="4.80662">
        <ele>130.45553588867</ele>
        <time>2010-05-08T14:23:56Z</time>
      </trkpt>
      <trkpt lat="45.23773" lon="4.80674">
        <ele>130.81402587891</ele>
        <time>2010-05-08T14:25:04Z</time>
      </trkpt>
      <trkpt lat="45.23862" lon="4.80674">
        <ele>130.71704101562</ele>
        <time>2010-05-08T14:25:40Z</time>
      </trkpt>
      <trkpt lat="45.23889" lon="4.8066">
        <ele>131.39335632324</ele>
        <time>2010-05-08T14:25:51Z</time>
      </trkpt>
      <trkpt lat="45.23917" lon="4.80638">
        <ele>132.35243225098</ele>
        <time>2010-05-08T14:26:04Z</time>
      </trkpt>
      <trkpt lat="45.23931" lon="4.80621">
        <ele>132.89488220215</ele>
        <time>2010-05-08T14:26:11Z</time>
      </trkpt>
      <trkpt lat="45.2395" lon="4.80586">
        <ele>133.76348876953</ele>
        <time>2010-05-08T14:26:24Z</time>
      </trkpt>
      <trkpt lat="45.23975" lon="4.80557">
        <ele>134.49456787109</ele>
        <time>2010-05-08T14:26:37Z</time>
      </trkpt>
      <trkpt lat="45.24015" lon="4.80552">
        <ele>135.36108398438</ele>
        <time>2010-05-08T14:26:53Z</time>
      </trkpt>
      <trkpt lat="45.24214" lon="4.80565">
        <ele>136.90553283691</ele>
        <time>2010-05-08T14:28:12Z</time>
      </trkpt>
      <trkpt lat="45.24387" lon="4.80618">
        <ele>138.93121337891</ele>
        <time>2010-05-08T14:29:23Z</time>
      </trkpt>
      <trkpt lat="45.24426" lon="4.8063">
        <ele>139.73002624512</ele>
        <time>2010-05-08T14:29:39Z</time>
      </trkpt>
      <trkpt lat="45.24435" lon="4.80525">
        <ele>137.54768371582</ele>
        <time>2010-05-08T14:30:09Z</time>
      </trkpt>
      <trkpt lat="45.24436" lon="4.80507">
        <ele>136.97816467285</ele>
        <time>2010-05-08T14:30:14Z</time>
      </trkpt>
      <trkpt lat="45.24429" lon="4.80457">
        <ele>135.45735168457</ele>
        <time>2010-05-08T14:30:29Z</time>
      </trkpt>
      <trkpt lat="45.24411" lon="4.80424">
        <ele>134.27081298828</ele>
        <time>2010-05-08T14:30:40Z</time>
      </trkpt>
      <trkpt lat="45.244" lon="4.80416">
        <ele>133.99214172363</ele>
        <time>2010-05-08T14:30:45Z</time>
      </trkpt>
      <trkpt lat="45.24361" lon="4.80403">
        <ele>133.83592224121</ele>
        <time>2010-05-08T14:31:01Z</time>
      </trkpt>
      <trkpt lat="45.24272" lon="4.80399">
        <ele>134.21052551269</ele>
        <time>2010-05-08T14:31:37Z</time>
      </trkpt>
      <trkpt lat="45.24228" lon="4.80393">
        <ele>134.67756652832</ele>
        <time>2010-05-08T14:31:55Z</time>
      </trkpt>
      <trkpt lat="45.24215" lon="4.80385">
        <ele>134.70217895508</ele>
        <time>2010-05-08T14:32:00Z</time>
      </trkpt>
      <trkpt lat="45.2421" lon="4.80375">
        <ele>134.46070861816</ele>
        <time>2010-05-08T14:32:04Z</time>
      </trkpt>
      <trkpt lat="45.24215" lon="4.80273">
        <ele>131.81304931641</ele>
        <time>2010-05-08T14:32:33Z</time>
      </trkpt>
      <trkpt lat="45.24239" lon="4.80021">
        <ele>133.04595947266</ele>
        <time>2010-05-08T14:33:44Z</time>
      </trkpt>
      <trkpt lat="45.24247" lon="4.79964">
        <ele>143.20761108398</ele>
        <time>2010-05-08T14:34:01Z</time>
      </trkpt>
      <trkpt lat="45.24411" lon="4.80032">
        <ele>140.3864440918</ele>
        <time>2010-05-08T14:35:09Z</time>
      </trkpt>
      <trkpt lat="45.24548" lon="4.80051">
        <ele>138.26794433594</ele>
        <time>2010-05-08T14:36:04Z</time>
      </trkpt>
      <trkpt lat="45.24743" lon="4.80047">
        <ele>137.35060119629</ele>
        <time>2010-05-08T14:37:22Z</time>
      </trkpt>
      <trkpt lat="45.24889" lon="4.8005">
        <ele>137.06993103027</ele>
        <time>2010-05-08T14:38:21Z</time>
      </trkpt>
      <trkpt lat="45.2505" lon="4.80062">
        <ele>138.00526428223</ele>
        <time>2010-05-08T14:39:25Z</time>
      </trkpt>
      <trkpt lat="45.25371" lon="4.80047">
        <ele>138.90002441406</ele>
        <time>2010-05-08T14:41:34Z</time>
      </trkpt>
      <trkpt lat="45.25518" lon="4.80031">
        <ele>137.14831542969</ele>
        <time>2010-05-08T14:42:33Z</time>
      </trkpt>
      <trkpt lat="45.25536" lon="4.80037">
        <ele>136.55410766602</ele>
        <time>2010-05-08T14:42:40Z</time>
      </trkpt>
      <trkpt lat="45.25625" lon="4.80042">
        <ele>135.73774719238</ele>
        <time>2010-05-08T14:43:16Z</time>
      </trkpt>
      <trkpt lat="45.25761" lon="4.80041">
        <ele>133.50825500488</ele>
        <time>2010-05-08T14:44:10Z</time>
      </trkpt>
      <trkpt lat="45.25859" lon="4.80051">
        <ele>133.07925415039</ele>
        <time>2010-05-08T14:44:50Z</time>
      </trkpt>
      <trkpt lat="45.25858" lon="4.80037">
        <ele>133.26063537598</ele>
        <time>2010-05-08T14:44:54Z</time>
      </trkpt>
      <trkpt lat="45.25847" lon="4.80022">
        <ele>133.57363891602</ele>
        <time>2010-05-08T14:45:00Z</time>
      </trkpt>
      <trkpt lat="45.25774" lon="4.80018">
        <ele>133.78405761719</ele>
        <time>2010-05-08T14:45:29Z</time>
      </trkpt>
      <trkpt lat="45.25764" lon="4.80011">
        <ele>133.8681640625</ele>
        <time>2010-05-08T14:45:33Z</time>
      </trkpt>
      <trkpt lat="45.25765" lon="4.79974">
        <ele>134.45751953125</ele>
        <time>2010-05-08T14:45:44Z</time>
      </trkpt>
      <trkpt lat="45.25774" lon="4.79909">
        <ele>135.26708984375</ele>
        <time>2010-05-08T14:46:02Z</time>
      </trkpt>
      <trkpt lat="45.25771" lon="4.79864">
        <ele>136.19241333008</ele>
        <time>2010-05-08T14:46:15Z</time>
      </trkpt>
      <trkpt lat="45.25775" lon="4.79849">
        <ele>136.22859191894</ele>
        <time>2010-05-08T14:46:20Z</time>
      </trkpt>
      <trkpt lat="45.25836" lon="4.79743">
        <ele>133.05264282227</ele>
        <time>2010-05-08T14:46:58Z</time>
      </trkpt>
      <trkpt lat="45.25859" lon="4.79651">
        <ele>134.25950622559</ele>
        <time>2010-05-08T14:47:26Z</time>
      </trkpt>
      <trkpt lat="45.25869" lon="4.79546">
        <ele>135.59201049805</ele>
        <time>2010-05-08T14:47:56Z</time>
      </trkpt>
      <trkpt lat="45.25868" lon="4.79512">
        <ele>136.02803039551</ele>
        <time>2010-05-08T14:48:05Z</time>
      </trkpt>
      <trkpt lat="45.25861" lon="4.79467">
        <ele>137.78681945801</ele>
        <time>2010-05-08T14:48:18Z</time>
      </trkpt>
      <trkpt lat="45.25866" lon="4.79404">
        <ele>140.14511108398</ele>
        <time>2010-05-08T14:48:36Z</time>
      </trkpt>
      <trkpt lat="45.25854" lon="4.79385">
        <ele>140.09373474121</ele>
        <time>2010-05-08T14:48:43Z</time>
      </trkpt>
      <trkpt lat="45.25853" lon="4.79374">
        <ele>140.09117126465</ele>
        <time>2010-05-08T14:48:46Z</time>
      </trkpt>
      <trkpt lat="45.25866" lon="4.79301">
        <ele>141.64727783203</ele>
        <time>2010-05-08T14:49:08Z</time>
      </trkpt>
      <trkpt lat="45.25867" lon="4.79256">
        <ele>142.7042388916</ele>
        <time>2010-05-08T14:49:20Z</time>
      </trkpt>
      <trkpt lat="45.25858" lon="4.79119">
        <ele>145.27015686035</ele>
        <time>2010-05-08T14:49:59Z</time>
      </trkpt>
      <trkpt lat="45.25851" lon="4.79084">
        <ele>145.11541748047</ele>
        <time>2010-05-08T14:50:09Z</time>
      </trkpt>
      <trkpt lat="45.25839" lon="4.7905">
        <ele>144.78221130371</ele>
        <time>2010-05-08T14:50:20Z</time>
      </trkpt>
      <trkpt lat="45.2582" lon="4.79006">
        <ele>145.30960083008</ele>
        <time>2010-05-08T14:50:35Z</time>
      </trkpt>
      <trkpt lat="45.25785" lon="4.78945">
        <ele>144.15779113769</ele>
        <time>2010-05-08T14:50:57Z</time>
      </trkpt>
      <trkpt lat="45.2576" lon="4.78844">
        <ele>143.00698852539</ele>
        <time>2010-05-08T14:51:27Z</time>
      </trkpt>
      <trkpt lat="45.25721" lon="4.78769">
        <ele>143.78202819824</ele>
        <time>2010-05-08T14:51:53Z</time>
      </trkpt>
      <trkpt lat="45.25692" lon="4.78726">
        <ele>144.32444763184</ele>
        <time>2010-05-08T14:52:10Z</time>
      </trkpt>
      <trkpt lat="45.25637" lon="4.78669">
        <ele>144.13452148438</ele>
        <time>2010-05-08T14:52:37Z</time>
      </trkpt>
      <trkpt lat="45.25615" lon="4.78638">
        <ele>144.6961517334</ele>
        <time>2010-05-08T14:52:50Z</time>
      </trkpt>
      <trkpt lat="45.25589" lon="4.7859">
        <ele>144.20639038086</ele>
        <time>2010-05-08T14:53:07Z</time>
      </trkpt>
      <trkpt lat="45.25574" lon="4.78575">
        <ele>144.46624755859</ele>
        <time>2010-05-08T14:53:14Z</time>
      </trkpt>
      <trkpt lat="45.25559" lon="4.7857">
        <ele>144.83279418945</ele>
        <time>2010-05-08T14:53:20Z</time>
      </trkpt>
      <trkpt lat="45.25558" lon="4.78538">
        <ele>145.41410827637</ele>
        <time>2010-05-08T14:53:29Z</time>
      </trkpt>
      <trkpt lat="45.25557" lon="4.7856">
        <ele>145.02967834473</ele>
        <time>2010-05-08T14:53:35Z</time>
      </trkpt>
      <trkpt lat="45.25552" lon="4.78567">
        <ele>144.97193908691</ele>
        <time>2010-05-08T14:53:38Z</time>
      </trkpt>
      <trkpt lat="45.25506" lon="4.78552">
        <ele>145.23976135254</ele>
        <time>2010-05-08T14:53:57Z</time>
      </trkpt>
      <trkpt lat="45.25491" lon="4.78535">
        <ele>145.45629882812</ele>
        <time>2010-05-08T14:54:05Z</time>
      </trkpt>
      <trkpt lat="45.2543" lon="4.78438">
        <ele>146.34912109375</ele>
        <time>2010-05-08T14:54:41Z</time>
      </trkpt>
      <trkpt lat="45.25417" lon="4.78408">
        <ele>146.00035095215</ele>
        <time>2010-05-08T14:54:51Z</time>
      </trkpt>
      <trkpt lat="45.25425" lon="4.78373">
        <ele>146.05212402344</ele>
        <time>2010-05-08T14:55:02Z</time>
      </trkpt>
      <trkpt lat="45.25434" lon="4.78357">
        <ele>146.14994812012</ele>
        <time>2010-05-08T14:55:08Z</time>
      </trkpt>
      <trkpt lat="45.25492" lon="4.78292">
        <ele>149.33879089356</ele>
        <time>2010-05-08T14:55:37Z</time>
      </trkpt>
      <trkpt lat="45.25453" lon="4.78213">
        <ele>153.09788513184</ele>
        <time>2010-05-08T14:56:04Z</time>
      </trkpt>
      <trkpt lat="45.25412" lon="4.78115">
        <ele>157.22904968262</ele>
        <time>2010-05-08T14:56:36Z</time>
      </trkpt>
      <trkpt lat="45.25398" lon="4.7809">
        <ele>157.39901733398</ele>
        <time>2010-05-08T14:56:45Z</time>
      </trkpt>
      <trkpt lat="45.25412" lon="4.78067">
        <ele>158.85888671875</ele>
        <time>2010-05-08T14:56:54Z</time>
      </trkpt>
      <trkpt lat="45.25464" lon="4.78003">
        <ele>163.32223510742</ele>
        <time>2010-05-08T14:57:22Z</time>
      </trkpt>
      <trkpt lat="45.25514" lon="4.77957">
        <ele>168.88151550293</ele>
        <time>2010-05-08T14:57:45Z</time>
      </trkpt>
      <trkpt lat="45.25536" lon="4.77931">
        <ele>172.21870422363</ele>
        <time>2010-05-08T14:57:57Z</time>
      </trkpt>
      <trkpt lat="45.25575" lon="4.77874">
        <ele>179.54295349121</ele>
        <time>2010-05-08T14:58:19Z</time>
      </trkpt>
      <trkpt lat="45.25591" lon="4.77869">
        <ele>181.62620544434</ele>
        <time>2010-05-08T14:58:26Z</time>
      </trkpt>
      <trkpt lat="45.25604" lon="4.77872">
        <ele>182.70516967773</ele>
        <time>2010-05-08T14:58:31Z</time>
      </trkpt>
      <trkpt lat="45.2564" lon="4.77897">
        <ele>183.55361938477</ele>
        <time>2010-05-08T14:58:47Z</time>
      </trkpt>
      <trkpt lat="45.25675" lon="4.77902">
        <ele>185.74375915527</ele>
        <time>2010-05-08T14:59:01Z</time>
      </trkpt>
      <trkpt lat="45.25716" lon="4.77899">
        <ele>190.3602142334</ele>
        <time>2010-05-08T14:59:18Z</time>
      </trkpt>
      <trkpt lat="45.25782" lon="4.77884">
        <ele>205.35545349121</ele>
        <time>2010-05-08T14:59:44Z</time>
      </trkpt>
      <trkpt lat="45.25807" lon="4.77883">
        <ele>212.09181213379</ele>
        <time>2010-05-08T14:59:54Z</time>
      </trkpt>
      <trkpt lat="45.2582" lon="4.77874">
        <ele>217.30860900879</ele>
        <time>2010-05-08T15:00:00Z</time>
      </trkpt>
      <trkpt lat="45.25821" lon="4.77865">
        <ele>219.35993957519</ele>
        <time>2010-05-08T15:00:03Z</time>
      </trkpt>
      <trkpt lat="45.25815" lon="4.77856">
        <ele>219.64669799805</ele>
        <time>2010-05-08T15:00:06Z</time>
      </trkpt>
      <trkpt lat="45.2578" lon="4.77847">
        <ele>212.69302368164</ele>
        <time>2010-05-08T15:00:21Z</time>
      </trkpt>
      <trkpt lat="45.25768" lon="4.77835">
        <ele>212.1573638916</ele>
        <time>2010-05-08T15:00:26Z</time>
      </trkpt>
      <trkpt lat="45.25751" lon="4.77794">
        <ele>215.87448120117</ele>
        <time>2010-05-08T15:00:40Z</time>
      </trkpt>
      <trkpt lat="45.25727" lon="4.77703">
        <ele>227.73497009277</ele>
        <time>2010-05-08T15:01:07Z</time>
      </trkpt>
      <trkpt lat="45.25715" lon="4.77679">
        <ele>228.75724792481</ele>
        <time>2010-05-08T15:01:15Z</time>
      </trkpt>
      <trkpt lat="45.25656" lon="4.77594">
        <ele>227.44450378418</ele>
        <time>2010-05-08T15:01:49Z</time>
      </trkpt>
      <trkpt lat="45.25653" lon="4.77579">
        <ele>229.37504577637</ele>
        <time>2010-05-08T15:01:54Z</time>
      </trkpt>
      <trkpt lat="45.25657" lon="4.77566">
        <ele>233.07511901856</ele>
        <time>2010-05-08T15:01:57Z</time>
      </trkpt>
      <trkpt lat="45.25664" lon="4.7756">
        <ele>236.83992004394</ele>
        <time>2010-05-08T15:02:01Z</time>
      </trkpt>
      <trkpt lat="45.25671" lon="4.77562">
        <ele>238.70597839356</ele>
        <time>2010-05-08T15:02:04Z</time>
      </trkpt>
      <trkpt lat="45.25681" lon="4.77569">
        <ele>240.37051391602</ele>
        <time>2010-05-08T15:02:08Z</time>
      </trkpt>
      <trkpt lat="45.25715" lon="4.77626">
        <ele>239.41918945312</ele>
        <time>2010-05-08T15:02:29Z</time>
      </trkpt>
      <trkpt lat="45.25727" lon="4.77625">
        <ele>243.57661437988</ele>
        <time>2010-05-08T15:02:34Z</time>
      </trkpt>
      <trkpt lat="45.2573" lon="4.77618">
        <ele>245.9513092041</ele>
        <time>2010-05-08T15:02:36Z</time>
      </trkpt>
      <trkpt lat="45.25717" lon="4.77585">
        <ele>248.42276000977</ele>
        <time>2010-05-08T15:02:47Z</time>
      </trkpt>
      <trkpt lat="45.25656" lon="4.77489">
        <ele>246.40522766113</ele>
        <time>2010-05-08T15:03:23Z</time>
      </trkpt>
      <trkpt lat="45.25641" lon="4.77451">
        <ele>243.98994445801</ele>
        <time>2010-05-08T15:03:36Z</time>
      </trkpt>
      <trkpt lat="45.25631" lon="4.77363">
        <ele>252.17543029785</ele>
        <time>2010-05-08T15:04:01Z</time>
      </trkpt>
      <trkpt lat="45.25607" lon="4.77248">
        <ele>259.43222045898</ele>
        <time>2010-05-08T15:04:35Z</time>
      </trkpt>
      <trkpt lat="45.25607" lon="4.77213">
        <ele>263.6955871582</ele>
        <time>2010-05-08T15:04:44Z</time>
      </trkpt>
      <trkpt lat="45.25613" lon="4.77205">
        <ele>267.189453125</ele>
        <time>2010-05-08T15:04:48Z</time>
      </trkpt>
      <trkpt lat="45.25623" lon="4.77214">
        <ele>270.24584960938</ele>
        <time>2010-05-08T15:04:52Z</time>
      </trkpt>
      <trkpt lat="45.25633" lon="4.7728">
        <ele>265.79342651367</ele>
        <time>2010-05-08T15:05:11Z</time>
      </trkpt>
      <trkpt lat="45.25644" lon="4.77304">
        <ele>266.63531494141</ele>
        <time>2010-05-08T15:05:20Z</time>
      </trkpt>
      <trkpt lat="45.25717" lon="4.77403">
        <ele>276.85095214844</ele>
        <time>2010-05-08T15:06:00Z</time>
      </trkpt>
      <trkpt lat="45.25747" lon="4.77465">
        <ele>278.83282470703</ele>
        <time>2010-05-08T15:06:21Z</time>
      </trkpt>
      <trkpt lat="45.25765" lon="4.77494">
        <ele>280.17260742188</ele>
        <time>2010-05-08T15:06:32Z</time>
      </trkpt>
      <trkpt lat="45.25784" lon="4.77514">
        <ele>281.63021850586</ele>
        <time>2010-05-08T15:06:42Z</time>
      </trkpt>
      <trkpt lat="45.25886" lon="4.77588">
        <ele>293.3450012207</ele>
        <time>2010-05-08T15:07:27Z</time>
      </trkpt>
      <trkpt lat="45.25908" lon="4.77598">
        <ele>295.71353149414</ele>
        <time>2010-05-08T15:07:37Z</time>
      </trkpt>
      <trkpt lat="45.25932" lon="4.77597">
        <ele>299.8254699707</ele>
        <time>2010-05-08T15:07:46Z</time>
      </trkpt>
      <trkpt lat="45.25988" lon="4.77579">
        <ele>309.97857666016</ele>
        <time>2010-05-08T15:08:09Z</time>
      </trkpt>
      <trkpt lat="45.26001" lon="4.77583">
        <ele>311.24542236328</ele>
        <time>2010-05-08T15:08:15Z</time>
      </trkpt>
      <trkpt lat="45.26006" lon="4.77595">
        <ele>311.43099975586</ele>
        <time>2010-05-08T15:08:18Z</time>
      </trkpt>
      <trkpt lat="45.26002" lon="4.77681">
        <ele>304.56094360352</ele>
        <time>2010-05-08T15:08:43Z</time>
      </trkpt>
      <trkpt lat="45.2603" lon="4.77745">
        <ele>308.30679321289</ele>
        <time>2010-05-08T15:09:04Z</time>
      </trkpt>
      <trkpt lat="45.26057" lon="4.77787">
        <ele>312.70217895508</ele>
        <time>2010-05-08T15:09:20Z</time>
      </trkpt>
      <trkpt lat="45.2608" lon="4.77816">
        <ele>316.67758178711</ele>
        <time>2010-05-08T15:09:32Z</time>
      </trkpt>
      <trkpt lat="45.26101" lon="4.77833">
        <ele>318.56439208984</ele>
        <time>2010-05-08T15:09:42Z</time>
      </trkpt>
      <trkpt lat="45.26128" lon="4.77846">
        <ele>321.3200378418</ele>
        <time>2010-05-08T15:09:53Z</time>
      </trkpt>
      <trkpt lat="45.26215" lon="4.77873">
        <ele>330.20278930664</ele>
        <time>2010-05-08T15:10:29Z</time>
      </trkpt>
      <trkpt lat="45.26272" lon="4.779">
        <ele>335.08554077148</ele>
        <time>2010-05-08T15:10:53Z</time>
      </trkpt>
      <trkpt lat="45.26313" lon="4.77886">
        <ele>338.93966674805</ele>
        <time>2010-05-08T15:11:10Z</time>
      </trkpt>
      <trkpt lat="45.26346" lon="4.77881">
        <ele>341.45556640625</ele>
        <time>2010-05-08T15:11:23Z</time>
      </trkpt>
      <trkpt lat="45.26388" lon="4.77886">
        <ele>343.36785888672</ele>
        <time>2010-05-08T15:11:40Z</time>
      </trkpt>
      <trkpt lat="45.26478" lon="4.77909">
        <ele>347.11923217773</ele>
        <time>2010-05-08T15:12:17Z</time>
      </trkpt>
      <trkpt lat="45.26488" lon="4.77907">
        <ele>347.66168212891</ele>
        <time>2010-05-08T15:12:21Z</time>
      </trkpt>
      <trkpt lat="45.26537" lon="4.77808">
        <ele>353.32775878906</ele>
        <time>2010-05-08T15:12:55Z</time>
      </trkpt>
      <trkpt lat="45.26611" lon="4.77635">
        <ele>362.25183105469</ele>
        <time>2010-05-08T15:13:52Z</time>
      </trkpt>
      <trkpt lat="45.26617" lon="4.77606">
        <ele>362.58898925781</ele>
        <time>2010-05-08T15:14:00Z</time>
      </trkpt>
      <trkpt lat="45.26618" lon="4.77558">
        <ele>363.3623046875</ele>
        <time>2010-05-08T15:14:14Z</time>
      </trkpt>
      <trkpt lat="45.26604" lon="4.77413">
        <ele>364.16461181641</ele>
        <time>2010-05-08T15:14:55Z</time>
      </trkpt>
      <trkpt lat="45.26584" lon="4.77269">
        <ele>360.47662353516</ele>
        <time>2010-05-08T15:15:37Z</time>
      </trkpt>
      <trkpt lat="45.26574" lon="4.77117">
        <ele>357.93051147461</ele>
        <time>2010-05-08T15:16:20Z</time>
      </trkpt>
      <trkpt lat="45.26532" lon="4.77037">
        <ele>358.82958984375</ele>
        <time>2010-05-08T15:16:48Z</time>
      </trkpt>
      <trkpt lat="45.26517" lon="4.76946">
        <ele>360.42846679688</ele>
        <time>2010-05-08T15:17:14Z</time>
      </trkpt>
      <trkpt lat="45.26507" lon="4.76812">
        <ele>361.66284179688</ele>
        <time>2010-05-08T15:17:52Z</time>
      </trkpt>
      <trkpt lat="45.2647" lon="4.76701">
        <ele>363.39712524414</ele>
        <time>2010-05-08T15:18:27Z</time>
      </trkpt>
      <trkpt lat="45.26438" lon="4.76563">
        <ele>363.85925292969</ele>
        <time>2010-05-08T15:19:08Z</time>
      </trkpt>
      <trkpt lat="45.2643" lon="4.76501">
        <ele>363.64013671875</ele>
        <time>2010-05-08T15:19:25Z</time>
      </trkpt>
      <trkpt lat="45.26429" lon="4.7642">
        <ele>364.4091796875</ele>
        <time>2010-05-08T15:19:48Z</time>
      </trkpt>
      <trkpt lat="45.2644" lon="4.76296">
        <ele>365.70681762695</ele>
        <time>2010-05-08T15:20:23Z</time>
      </trkpt>
      <trkpt lat="45.26421" lon="4.7617">
        <ele>365</ele>
        <time>2010-05-08T15:21:00Z</time>
      </trkpt>
      <trkpt lat="45.26419" lon="4.76132">
        <ele>364.62008666992</ele>
        <time>2010-05-08T15:21:10Z</time>
      </trkpt>
      <trkpt lat="45.26421" lon="4.76093">
        <ele>364.25317382812</ele>
        <time>2010-05-08T15:21:21Z</time>
      </trkpt>
      <trkpt lat="45.26435" lon="4.75992">
        <ele>362.69256591797</ele>
        <time>2010-05-08T15:21:50Z</time>
      </trkpt>
      <trkpt lat="45.26436" lon="4.75922">
        <ele>361.04919433594</ele>
        <time>2010-05-08T15:22:10Z</time>
      </trkpt>
      <trkpt lat="45.2643" lon="4.75903">
        <ele>361.13873291016</ele>
        <time>2010-05-08T15:22:16Z</time>
      </trkpt>
      <trkpt lat="45.26414" lon="4.75874">
        <ele>361.35272216797</ele>
        <time>2010-05-08T15:22:26Z</time>
      </trkpt>
      <trkpt lat="45.26339" lon="4.75828">
        <ele>358.84710693359</ele>
        <time>2010-05-08T15:22:59Z</time>
      </trkpt>
      <trkpt lat="45.26323" lon="4.75808">
        <ele>359.60757446289</ele>
        <time>2010-05-08T15:23:08Z</time>
      </trkpt>
      <trkpt lat="45.26303" lon="4.75753">
        <ele>362.83392333984</ele>
        <time>2010-05-08T15:23:25Z</time>
      </trkpt>
      <trkpt lat="45.26299" lon="4.75711">
        <ele>362.69482421875</ele>
        <time>2010-05-08T15:23:37Z</time>
      </trkpt>
      <trkpt lat="45.26299" lon="4.75664">
        <ele>362.70248413086</ele>
        <time>2010-05-08T15:23:50Z</time>
      </trkpt>
      <trkpt lat="45.2631" lon="4.75597">
        <ele>363.62405395508</ele>
        <time>2010-05-08T15:24:10Z</time>
      </trkpt>
      <trkpt lat="45.26337" lon="4.7551">
        <ele>362.54833984375</ele>
        <time>2010-05-08T15:24:36Z</time>
      </trkpt>
      <trkpt lat="45.26393" lon="4.75205">
        <ele>363.93249511719</ele>
        <time>2010-05-08T15:26:05Z</time>
      </trkpt>
      <trkpt lat="45.2644" lon="4.74999">
        <ele>363.27194213867</ele>
        <time>2010-05-08T15:27:06Z</time>
      </trkpt>
      <trkpt lat="45.26453" lon="4.74938">
        <ele>363.01684570312</ele>
        <time>2010-05-08T15:27:24Z</time>
      </trkpt>
      <trkpt lat="45.2647" lon="4.74882">
        <ele>363.01712036133</ele>
        <time>2010-05-08T15:27:41Z</time>
      </trkpt>
      <trkpt lat="45.26596" lon="4.74563">
        <ele>366.28158569336</ele>
        <time>2010-05-08T15:29:24Z</time>
      </trkpt>
      <trkpt lat="45.26616" lon="4.74493">
        <ele>367.26983642578</ele>
        <time>2010-05-08T15:29:46Z</time>
      </trkpt>
      <trkpt lat="45.26623" lon="4.74478">
        <ele>367.19052124023</ele>
        <time>2010-05-08T15:29:51Z</time>
      </trkpt>
      <trkpt lat="45.26726" lon="4.74332">
        <ele>369.43218994141</ele>
        <time>2010-05-08T15:30:49Z</time>
      </trkpt>
      <trkpt lat="45.26732" lon="4.7431">
        <ele>369.62579345703</ele>
        <time>2010-05-08T15:30:56Z</time>
      </trkpt>
      <trkpt lat="45.26743" lon="4.74212">
        <ele>369.34292602539</ele>
        <time>2010-05-08T15:31:24Z</time>
      </trkpt>
      <trkpt lat="45.26756" lon="4.7414">
        <ele>368.54653930664</ele>
        <time>2010-05-08T15:31:45Z</time>
      </trkpt>
      <trkpt lat="45.2679" lon="4.73996">
        <ele>367.34567260742</ele>
        <time>2010-05-08T15:32:27Z</time>
      </trkpt>
      <trkpt lat="45.26798" lon="4.73977">
        <ele>367.55484008789</ele>
        <time>2010-05-08T15:32:34Z</time>
      </trkpt>
      <trkpt lat="45.26809" lon="4.73963">
        <ele>367.908203125</ele>
        <time>2010-05-08T15:32:39Z</time>
      </trkpt>
      <trkpt lat="45.26856" lon="4.73963">
        <ele>370.04302978516</ele>
        <time>2010-05-08T15:32:58Z</time>
      </trkpt>
      <trkpt lat="45.26936" lon="4.73976">
        <ele>373.17492675781</ele>
        <time>2010-05-08T15:33:31Z</time>
      </trkpt>
      <trkpt lat="45.26958" lon="4.73972">
        <ele>373.65786743164</ele>
        <time>2010-05-08T15:33:39Z</time>
      </trkpt>
      <trkpt lat="45.27031" lon="4.73908">
        <ele>376.01431274414</ele>
        <time>2010-05-08T15:34:14Z</time>
      </trkpt>
      <trkpt lat="45.2706" lon="4.73898">
        <ele>377.62377929688</ele>
        <time>2010-05-08T15:34:26Z</time>
      </trkpt>
      <trkpt lat="45.27117" lon="4.7392">
        <ele>380.22521972656</ele>
        <time>2010-05-08T15:34:49Z</time>
      </trkpt>
      <trkpt lat="45.27272" lon="4.73936">
        <ele>385.0651550293</ele>
        <time>2010-05-08T15:35:52Z</time>
      </trkpt>
      <trkpt lat="45.27571" lon="4.74025">
        <ele>393.10629272461</ele>
        <time>2010-05-08T15:37:54Z</time>
      </trkpt>
      <trkpt lat="45.27596" lon="4.74027">
        <ele>393.20086669922</ele>
        <time>2010-05-08T15:38:04Z</time>
      </trkpt>
      <trkpt lat="45.27661" lon="4.73661">
        <ele>398.93859863281</ele>
        <time>2010-05-08T15:39:50Z</time>
      </trkpt>
      <trkpt lat="45.27662" lon="4.73637">
        <ele>399.83868408203</ele>
        <time>2010-05-08T15:39:57Z</time>
      </trkpt>
      <trkpt lat="45.27657" lon="4.73599">
        <ele>400.96878051758</ele>
        <time>2010-05-08T15:40:08Z</time>
      </trkpt>
      <trkpt lat="45.27666" lon="4.73535">
        <ele>404.29177856445</ele>
        <time>2010-05-08T15:40:26Z</time>
      </trkpt>
      <trkpt lat="45.27688" lon="4.73414">
        <ele>409.08032226562</ele>
        <time>2010-05-08T15:41:01Z</time>
      </trkpt>
      <trkpt lat="45.27751" lon="4.73114">
        <ele>413.99633789062</ele>
        <time>2010-05-08T15:42:30Z</time>
      </trkpt>
      <trkpt lat="45.27777" lon="4.7296">
        <ele>413.0256652832</ele>
        <time>2010-05-08T15:43:14Z</time>
      </trkpt>
      <trkpt lat="45.27763" lon="4.72868">
        <ele>412.7532043457</ele>
        <time>2010-05-08T15:43:41Z</time>
      </trkpt>
      <trkpt lat="45.27759" lon="4.72814">
        <ele>413.01205444336</ele>
        <time>2010-05-08T15:43:56Z</time>
      </trkpt>
      <trkpt lat="45.27764" lon="4.72705">
        <ele>414.38427734375</ele>
        <time>2010-05-08T15:44:27Z</time>
      </trkpt>
      <trkpt lat="45.27807" lon="4.72582">
        <ele>416.33874511719</ele>
        <time>2010-05-08T15:45:06Z</time>
      </trkpt>
      <trkpt lat="45.27814" lon="4.72539">
        <ele>416.88562011719</ele>
        <time>2010-05-08T15:45:18Z</time>
      </trkpt>
      <trkpt lat="45.27819" lon="4.72462">
        <ele>418.41110229492</ele>
        <time>2010-05-08T15:45:40Z</time>
      </trkpt>
      <trkpt lat="45.27828" lon="4.72302">
        <ele>419.20587158203</ele>
        <time>2010-05-08T15:46:25Z</time>
      </trkpt>
      <trkpt lat="45.27866" lon="4.72119">
        <ele>419.35559082031</ele>
        <time>2010-05-08T15:47:19Z</time>
      </trkpt>
      <trkpt lat="45.27889" lon="4.72012">
        <ele>421.18893432617</ele>
        <time>2010-05-08T15:47:50Z</time>
      </trkpt>
      <trkpt lat="45.27909" lon="4.7194">
        <ele>423.45474243164</ele>
        <time>2010-05-08T15:48:12Z</time>
      </trkpt>
      <trkpt lat="45.27924" lon="4.71802">
        <ele>436.67251586914</ele>
        <time>2010-05-08T15:48:51Z</time>
      </trkpt>
      <trkpt lat="45.27999" lon="4.7159">
        <ele>451.4846496582</ele>
        <time>2010-05-08T15:49:58Z</time>
      </trkpt>
      <trkpt lat="45.28021" lon="4.71532">
        <ele>454.07885742188</ele>
        <time>2010-05-08T15:50:17Z</time>
      </trkpt>
      <trkpt lat="45.28076" lon="4.71322">
        <ele>465.28915405273</ele>
        <time>2010-05-08T15:51:20Z</time>
      </trkpt>
      <trkpt lat="45.28105" lon="4.71248">
        <ele>467.70275878906</ele>
        <time>2010-05-08T15:51:44Z</time>
      </trkpt>
      <trkpt lat="45.28152" lon="4.71165">
        <ele>467.3576965332</ele>
        <time>2010-05-08T15:52:14Z</time>
      </trkpt>
      <trkpt lat="45.28304" lon="4.70968">
        <ele>469.79708862305</ele>
        <time>2010-05-08T15:53:36Z</time>
      </trkpt>
      <trkpt lat="45.28367" lon="4.70894">
        <ele>470.91448974609</ele>
        <time>2010-05-08T15:54:09Z</time>
      </trkpt>
      <trkpt lat="45.28383" lon="4.70869">
        <ele>470.89886474609</ele>
        <time>2010-05-08T15:54:18Z</time>
      </trkpt>
      <trkpt lat="45.28426" lon="4.7077">
        <ele>473.10012817383</ele>
        <time>2010-05-08T15:54:51Z</time>
      </trkpt>
      <trkpt lat="45.28476" lon="4.70684">
        <ele>477.76449584961</ele>
        <time>2010-05-08T15:55:22Z</time>
      </trkpt>
      <trkpt lat="45.28503" lon="4.70632">
        <ele>481.39443969727</ele>
        <time>2010-05-08T15:55:41Z</time>
      </trkpt>
      <trkpt lat="45.28512" lon="4.70605">
        <ele>482.78717041016</ele>
        <time>2010-05-08T15:55:49Z</time>
      </trkpt>
      <trkpt lat="45.28551" lon="4.70412">
        <ele>492.03341674805</ele>
        <time>2010-05-08T15:56:46Z</time>
      </trkpt>
      <trkpt lat="45.28555" lon="4.70373">
        <ele>494.88037109375</ele>
        <time>2010-05-08T15:56:57Z</time>
      </trkpt>
      <trkpt lat="45.28557" lon="4.70317">
        <ele>497.76718139648</ele>
        <time>2010-05-08T15:57:13Z</time>
      </trkpt>
      <trkpt lat="45.28546" lon="4.70198">
        <ele>500.87817382812</ele>
        <time>2010-05-08T15:57:46Z</time>
      </trkpt>
      <trkpt lat="45.28545" lon="4.70142">
        <ele>503.18478393555</ele>
        <time>2010-05-08T15:58:02Z</time>
      </trkpt>
      <trkpt lat="45.28559" lon="4.70037">
        <ele>505.96640014648</ele>
        <time>2010-05-08T15:58:32Z</time>
      </trkpt>
      <trkpt lat="45.28577" lon="4.69985">
        <ele>505.99197387695</ele>
        <time>2010-05-08T15:58:49Z</time>
      </trkpt>
      <trkpt lat="45.28608" lon="4.69921">
        <ele>505.29122924805</ele>
        <time>2010-05-08T15:59:10Z</time>
      </trkpt>
      <trkpt lat="45.28683" lon="4.69796">
        <ele>507.64105224609</ele>
        <time>2010-05-08T15:59:57Z</time>
      </trkpt>
      <trkpt lat="45.28713" lon="4.69703">
        <ele>506.39141845703</ele>
        <time>2010-05-08T16:00:25Z</time>
      </trkpt>
      <trkpt lat="45.28724" lon="4.6968">
        <ele>506.49206542969</ele>
        <time>2010-05-08T16:00:33Z</time>
      </trkpt>
      <trkpt lat="45.28776" lon="4.69638">
        <ele>509.82452392578</ele>
        <time>2010-05-08T16:00:57Z</time>
      </trkpt>
      <trkpt lat="45.28875" lon="4.69547">
        <ele>517.90667724609</ele>
        <time>2010-05-08T16:01:44Z</time>
      </trkpt>
      <trkpt lat="45.28984" lon="4.69464">
        <ele>523.45843505859</ele>
        <time>2010-05-08T16:02:34Z</time>
      </trkpt>
      <trkpt lat="45.29048" lon="4.69455">
        <ele>525.03448486328</ele>
        <time>2010-05-08T16:03:00Z</time>
      </trkpt>
      <trkpt lat="45.29114" lon="4.69413">
        <ele>522.57965087891</ele>
        <time>2010-05-08T16:03:29Z</time>
      </trkpt>
      <trkpt lat="45.29131" lon="4.69409">
        <ele>522.82653808594</ele>
        <time>2010-05-08T16:03:36Z</time>
      </trkpt>
      <trkpt lat="45.29191" lon="4.69435">
        <ele>526.21020507812</ele>
        <time>2010-05-08T16:04:01Z</time>
      </trkpt>
      <trkpt lat="45.29236" lon="4.69463">
        <ele>529.18621826172</ele>
        <time>2010-05-08T16:04:20Z</time>
      </trkpt>
      <trkpt lat="45.29321" lon="4.6952">
        <ele>536.47235107422</ele>
        <time>2010-05-08T16:04:58Z</time>
      </trkpt>
      <trkpt lat="45.2935" lon="4.69529">
        <ele>539.97155761719</ele>
        <time>2010-05-08T16:05:10Z</time>
      </trkpt>
      <trkpt lat="45.2937" lon="4.69524">
        <ele>542.15966796875</ele>
        <time>2010-05-08T16:05:18Z</time>
      </trkpt>
      <trkpt lat="45.29388" lon="4.69506">
        <ele>542.79595947266</ele>
        <time>2010-05-08T16:05:27Z</time>
      </trkpt>
      <trkpt lat="45.29482" lon="4.69366">
        <ele>545.31329345703</ele>
        <time>2010-05-08T16:06:21Z</time>
      </trkpt>
      <trkpt lat="45.29512" lon="4.69338">
        <ele>546.53723144531</ele>
        <time>2010-05-08T16:06:36Z</time>
      </trkpt>
      <trkpt lat="45.29603" lon="4.69324">
        <ele>554.83819580078</ele>
        <time>2010-05-08T16:07:12Z</time>
      </trkpt>
      <trkpt lat="45.2968" lon="4.69287">
        <ele>560.70373535156</ele>
        <time>2010-05-08T16:07:45Z</time>
      </trkpt>
      <trkpt lat="45.29748" lon="4.69311">
        <ele>567.52105712891</ele>
        <time>2010-05-08T16:08:13Z</time>
      </trkpt>
      <trkpt lat="45.29776" lon="4.69305">
        <ele>570.83135986328</ele>
        <time>2010-05-08T16:08:24Z</time>
      </trkpt>
      <trkpt lat="45.29793" lon="4.69286">
        <ele>571.78851318359</ele>
        <time>2010-05-08T16:08:33Z</time>
      </trkpt>
      <trkpt lat="45.2982" lon="4.69233">
        <ele>571.39666748047</ele>
        <time>2010-05-08T16:08:51Z</time>
      </trkpt>
      <trkpt lat="45.29845" lon="4.69204">
        <ele>573.33361816406</ele>
        <time>2010-05-08T16:09:04Z</time>
      </trkpt>
      <trkpt lat="45.29927" lon="4.6913">
        <ele>581.56701660156</ele>
        <time>2010-05-08T16:09:43Z</time>
      </trkpt>
      <trkpt lat="45.29962" lon="4.69114">
        <ele>584.17944335938</ele>
        <time>2010-05-08T16:09:58Z</time>
      </trkpt>
      <trkpt lat="45.2999" lon="4.69108">
        <ele>586.59899902344</ele>
        <time>2010-05-08T16:10:09Z</time>
      </trkpt>
      <trkpt lat="45.30044" lon="4.69113">
        <ele>585.36645507812</ele>
        <time>2010-05-08T16:10:31Z</time>
      </trkpt>
      <trkpt lat="45.30063" lon="4.69126">
        <ele>585.44842529297</ele>
        <time>2010-05-08T16:10:39Z</time>
      </trkpt>
      <trkpt lat="45.30088" lon="4.69152">
        <ele>586.09533691406</ele>
        <time>2010-05-08T16:10:52Z</time>
      </trkpt>
      <trkpt lat="45.30128" lon="4.69211">
        <ele>587.42205810547</ele>
        <time>2010-05-08T16:11:15Z</time>
      </trkpt>
      <trkpt lat="45.30136" lon="4.69233">
        <ele>588.66717529297</ele>
        <time>2010-05-08T16:11:22Z</time>
      </trkpt>
      <trkpt lat="45.30135" lon="4.69293">
        <ele>592.61242675781</ele>
        <time>2010-05-08T16:11:39Z</time>
      </trkpt>
      <trkpt lat="45.30119" lon="4.69374">
        <ele>600.75</ele>
        <time>2010-05-08T16:12:02Z</time>
      </trkpt>
      <trkpt lat="45.30123" lon="4.69392">
        <ele>602.39312744141</ele>
        <time>2010-05-08T16:12:08Z</time>
      </trkpt>
      <trkpt lat="45.30134" lon="4.69403">
        <ele>602.43359375</ele>
        <time>2010-05-08T16:12:13Z</time>
      </trkpt>
      <trkpt lat="45.30186" lon="4.69411">
        <ele>600.15411376953</ele>
        <time>2010-05-08T16:12:34Z</time>
      </trkpt>
      <trkpt lat="45.30231" lon="4.69433">
        <ele>604.30834960938</ele>
        <time>2010-05-08T16:12:53Z</time>
      </trkpt>
      <trkpt lat="45.30248" lon="4.69425">
        <ele>603.83752441406</ele>
        <time>2010-05-08T16:13:00Z</time>
      </trkpt>
      <trkpt lat="45.30287" lon="4.69386">
        <ele>603.50708007812</ele>
        <time>2010-05-08T16:13:19Z</time>
      </trkpt>
      <trkpt lat="45.30331" lon="4.69374">
        <ele>606.70635986328</ele>
        <time>2010-05-08T16:13:37Z</time>
      </trkpt>
      <trkpt lat="45.3035" lon="4.69321">
        <ele>605.12542724609</ele>
        <time>2010-05-08T16:13:54Z</time>
      </trkpt>
      <trkpt lat="45.30368" lon="4.69296">
        <ele>604.990234375</ele>
        <time>2010-05-08T16:14:04Z</time>
      </trkpt>
      <trkpt lat="45.30379" lon="4.69288">
        <ele>605.28002929688</ele>
        <time>2010-05-08T16:14:09Z</time>
      </trkpt>
      <trkpt lat="45.30435" lon="4.69278">
        <ele>609.72943115234</ele>
        <time>2010-05-08T16:14:31Z</time>
      </trkpt>
      <trkpt lat="45.30454" lon="4.69268">
        <ele>610.97338867188</ele>
        <time>2010-05-08T16:14:40Z</time>
      </trkpt>
      <trkpt lat="45.30474" lon="4.69252">
        <ele>611.80499267578</ele>
        <time>2010-05-08T16:14:49Z</time>
      </trkpt>
      <trkpt lat="45.3049" lon="4.6923">
        <ele>612.40838623047</ele>
        <time>2010-05-08T16:14:58Z</time>
      </trkpt>
      <trkpt lat="45.30503" lon="4.69197">
        <ele>612.42108154297</ele>
        <time>2010-05-08T16:15:08Z</time>
      </trkpt>
      <trkpt lat="45.30528" lon="4.69102">
        <ele>614.91107177734</ele>
        <time>2010-05-08T16:15:37Z</time>
      </trkpt>
      <trkpt lat="45.30529" lon="4.69068">
        <ele>614.92053222656</ele>
        <time>2010-05-08T16:15:46Z</time>
      </trkpt>
      <trkpt lat="45.30521" lon="4.6894">
        <ele>612.56042480469</ele>
        <time>2010-05-08T16:16:23Z</time>
      </trkpt>
      <trkpt lat="45.3053" lon="4.68901">
        <ele>612.56286621094</ele>
        <time>2010-05-08T16:16:34Z</time>
      </trkpt>
      <trkpt lat="45.3054" lon="4.68886">
        <ele>612.88171386719</ele>
        <time>2010-05-08T16:16:40Z</time>
      </trkpt>
      <trkpt lat="45.30645" lon="4.68795">
        <ele>617.60034179688</ele>
        <time>2010-05-08T16:17:29Z</time>
      </trkpt>
      <trkpt lat="45.30651" lon="4.68781">
        <ele>616.98919677734</ele>
        <time>2010-05-08T16:17:34Z</time>
      </trkpt>
      <trkpt lat="45.30672" lon="4.68685">
        <ele>613.97686767578</ele>
        <time>2010-05-08T16:18:02Z</time>
      </trkpt>
      <trkpt lat="45.30697" lon="4.68653">
        <ele>614.01751708984</ele>
        <time>2010-05-08T16:18:16Z</time>
      </trkpt>
      <trkpt lat="45.30753" lon="4.68631">
        <ele>616.04260253906</ele>
        <time>2010-05-08T16:18:39Z</time>
      </trkpt>
      <trkpt lat="45.30767" lon="4.68621">
        <ele>615.27069091797</ele>
        <time>2010-05-08T16:18:45Z</time>
      </trkpt>
      <trkpt lat="45.3084" lon="4.68508">
        <ele>612.12341308594</ele>
        <time>2010-05-08T16:19:28Z</time>
      </trkpt>
      <trkpt lat="45.30858" lon="4.68471">
        <ele>610.34722900391</ele>
        <time>2010-05-08T16:19:41Z</time>
      </trkpt>
      <trkpt lat="45.30868" lon="4.6844">
        <ele>610.08209228516</ele>
        <time>2010-05-08T16:19:51Z</time>
      </trkpt>
      <trkpt lat="45.30874" lon="4.68392">
        <ele>610.76232910156</ele>
        <time>2010-05-08T16:20:04Z</time>
      </trkpt>
      <trkpt lat="45.30871" lon="4.68345">
        <ele>612.60900878906</ele>
        <time>2010-05-08T16:20:18Z</time>
      </trkpt>
      <trkpt lat="45.30838" lon="4.68251">
        <ele>619.36492919922</ele>
        <time>2010-05-08T16:20:47Z</time>
      </trkpt>
      <trkpt lat="45.30835" lon="4.68232">
        <ele>619.36004638672</ele>
        <time>2010-05-08T16:20:53Z</time>
      </trkpt>
      <trkpt lat="45.30839" lon="4.68124">
        <ele>612.84753417969</ele>
        <time>2010-05-08T16:21:23Z</time>
      </trkpt>
      <trkpt lat="45.30829" lon="4.68061">
        <ele>612.42279052734</ele>
        <time>2010-05-08T16:21:41Z</time>
      </trkpt>
      <trkpt lat="45.30829" lon="4.68026">
        <ele>611.82232666016</ele>
        <time>2010-05-08T16:21:51Z</time>
      </trkpt>
      <trkpt lat="45.3084" lon="4.67985">
        <ele>611.09991455078</ele>
        <time>2010-05-08T16:22:04Z</time>
      </trkpt>
      <trkpt lat="45.30887" lon="4.67882">
        <ele>613.25720214844</ele>
        <time>2010-05-08T16:22:38Z</time>
      </trkpt>
      <trkpt lat="45.30948" lon="4.67665">
        <ele>623.50646972656</ele>
        <time>2010-05-08T16:23:44Z</time>
      </trkpt>
      <trkpt lat="45.30947" lon="4.67625">
        <ele>626.78839111328</ele>
        <time>2010-05-08T16:23:55Z</time>
      </trkpt>
      <trkpt lat="45.30941" lon="4.67611">
        <ele>627.52990722656</ele>
        <time>2010-05-08T16:24:00Z</time>
      </trkpt>
      <trkpt lat="45.30929" lon="4.67604">
        <ele>627.52001953125</ele>
        <time>2010-05-08T16:24:05Z</time>
      </trkpt>
      <trkpt lat="45.30894" lon="4.67617">
        <ele>623.12438964844</ele>
        <time>2010-05-08T16:24:19Z</time>
      </trkpt>
      <trkpt lat="45.30865" lon="4.67602">
        <ele>623.37274169922</ele>
        <time>2010-05-08T16:24:32Z</time>
      </trkpt>
      <trkpt lat="45.30852" lon="4.67586">
        <ele>624.93829345703</ele>
        <time>2010-05-08T16:24:39Z</time>
      </trkpt>
      <trkpt lat="45.30817" lon="4.67516">
        <ele>630.83782958984</ele>
        <time>2010-05-08T16:25:03Z</time>
      </trkpt>
      <trkpt lat="45.30787" lon="4.67472">
        <ele>630.3310546875</ele>
        <time>2010-05-08T16:25:20Z</time>
      </trkpt>
      <trkpt lat="45.30678" lon="4.67341">
        <ele>620.63854980469</ele>
        <time>2010-05-08T16:26:17Z</time>
      </trkpt>
      <trkpt lat="45.30639" lon="4.67267">
        <ele>617.76947021484</ele>
        <time>2010-05-08T16:26:43Z</time>
      </trkpt>
      <trkpt lat="45.30633" lon="4.67219">
        <ele>617.45416259766</ele>
        <time>2010-05-08T16:26:57Z</time>
      </trkpt>
      <trkpt lat="45.30636" lon="4.67201">
        <ele>618.05493164062</ele>
        <time>2010-05-08T16:27:02Z</time>
      </trkpt>
      <trkpt lat="45.3064" lon="4.67185">
        <ele>619.14978027344</ele>
        <time>2010-05-08T16:27:07Z</time>
      </trkpt>
      <trkpt lat="45.30669" lon="4.67132">
        <ele>627.41748046875</ele>
        <time>2010-05-08T16:27:26Z</time>
      </trkpt>
      <trkpt lat="45.30667" lon="4.6707">
        <ele>626.81518554688</ele>
        <time>2010-05-08T16:27:43Z</time>
      </trkpt>
      <trkpt lat="45.3066" lon="4.67026">
        <ele>626.85510253906</ele>
        <time>2010-05-08T16:27:56Z</time>
      </trkpt>
      <trkpt lat="45.3059" lon="4.66824">
        <ele>623.21380615234</ele>
        <time>2010-05-08T16:28:59Z</time>
      </trkpt>
      <trkpt lat="45.3058" lon="4.66781">
        <ele>622.63061523438</ele>
        <time>2010-05-08T16:29:12Z</time>
      </trkpt>
      <trkpt lat="45.30564" lon="4.66665">
        <ele>622.67321777344</ele>
        <time>2010-05-08T16:29:46Z</time>
      </trkpt>
      <trkpt lat="45.30547" lon="4.66609">
        <ele>620.99517822266</ele>
        <time>2010-05-08T16:30:03Z</time>
      </trkpt>
      <trkpt lat="45.30512" lon="4.66536">
        <ele>617.79327392578</ele>
        <time>2010-05-08T16:30:28Z</time>
      </trkpt>
      <trkpt lat="45.30496" lon="4.66483">
        <ele>617.80096435547</ele>
        <time>2010-05-08T16:30:44Z</time>
      </trkpt>
      <trkpt lat="45.30497" lon="4.66447">
        <ele>617.93395996094</ele>
        <time>2010-05-08T16:30:54Z</time>
      </trkpt>
      <trkpt lat="45.30546" lon="4.66348">
        <ele>614.38024902344</ele>
        <time>2010-05-08T16:31:28Z</time>
      </trkpt>
      <trkpt lat="45.30558" lon="4.66337">
        <ele>613.55133056641</ele>
        <time>2010-05-08T16:31:34Z</time>
      </trkpt>
      <trkpt lat="45.30602" lon="4.6632">
        <ele>611.70471191406</ele>
        <time>2010-05-08T16:31:52Z</time>
      </trkpt>
      <trkpt lat="45.30668" lon="4.66339">
        <ele>611.08166503906</ele>
        <time>2010-05-08T16:32:19Z</time>
      </trkpt>
      <trkpt lat="45.30682" lon="4.66337">
        <ele>611.46820068359</ele>
        <time>2010-05-08T16:32:25Z</time>
      </trkpt>
      <trkpt lat="45.30694" lon="4.66329">
        <ele>611.66174316406</ele>
        <time>2010-05-08T16:32:30Z</time>
      </trkpt>
      <trkpt lat="45.30699" lon="4.6632">
        <ele>612.10150146484</ele>
        <time>2010-05-08T16:32:33Z</time>
      </trkpt>
      <trkpt lat="45.30698" lon="4.66291">
        <ele>612.32824707031</ele>
        <time>2010-05-08T16:32:41Z</time>
      </trkpt>
      <trkpt lat="45.30691" lon="4.6628">
        <ele>611.76892089844</ele>
        <time>2010-05-08T16:32:45Z</time>
      </trkpt>
      <trkpt lat="45.30544" lon="4.66135">
        <ele>602.83099365234</ele>
        <time>2010-05-08T16:33:57Z</time>
      </trkpt>
      <trkpt lat="45.30525" lon="4.66088">
        <ele>599.73498535156</ele>
        <time>2010-05-08T16:34:12Z</time>
      </trkpt>
      <trkpt lat="45.30523" lon="4.66044">
        <ele>597.177734375</ele>
        <time>2010-05-08T16:34:25Z</time>
      </trkpt>
      <trkpt lat="45.30539" lon="4.65975">
        <ele>595.87170410156</ele>
        <time>2010-05-08T16:34:45Z</time>
      </trkpt>
      <trkpt lat="45.30547" lon="4.65961">
        <ele>595.97106933594</ele>
        <time>2010-05-08T16:34:50Z</time>
      </trkpt>
      <trkpt lat="45.30559" lon="4.65948">
        <ele>596.88330078125</ele>
        <time>2010-05-08T16:34:56Z</time>
      </trkpt>
      <trkpt lat="45.30628" lon="4.65922">
        <ele>606.20587158203</ele>
        <time>2010-05-08T16:35:25Z</time>
      </trkpt>
      <trkpt lat="45.30635" lon="4.65911">
        <ele>607.08361816406</ele>
        <time>2010-05-08T16:35:29Z</time>
      </trkpt>
      <trkpt lat="45.30636" lon="4.65898">
        <ele>607.59558105469</ele>
        <time>2010-05-08T16:35:33Z</time>
      </trkpt>
      <trkpt lat="45.30629" lon="4.65876">
        <ele>606.48193359375</ele>
        <time>2010-05-08T16:35:40Z</time>
      </trkpt>
      <trkpt lat="45.30601" lon="4.65831">
        <ele>598.58947753906</ele>
        <time>2010-05-08T16:35:56Z</time>
      </trkpt>
      <trkpt lat="45.3059" lon="4.65806">
        <ele>595.47869873047</ele>
        <time>2010-05-08T16:36:05Z</time>
      </trkpt>
      <trkpt lat="45.30576" lon="4.65746">
        <ele>592.07885742188</ele>
        <time>2010-05-08T16:36:23Z</time>
      </trkpt>
      <trkpt lat="45.30575" lon="4.65714">
        <ele>590.7041015625</ele>
        <time>2010-05-08T16:36:32Z</time>
      </trkpt>
      <trkpt lat="45.30585" lon="4.65629">
        <ele>588.83355712891</ele>
        <time>2010-05-08T16:36:56Z</time>
      </trkpt>
      <trkpt lat="45.30593" lon="4.65588">
        <ele>588.06677246094</ele>
        <time>2010-05-08T16:37:08Z</time>
      </trkpt>
      <trkpt lat="45.30622" lon="4.65525">
        <ele>588.19555664062</ele>
        <time>2010-05-08T16:37:29Z</time>
      </trkpt>
      <trkpt lat="45.30637" lon="4.65507">
        <ele>588.67413330078</ele>
        <time>2010-05-08T16:37:37Z</time>
      </trkpt>
      <trkpt lat="45.30793" lon="4.65371">
        <ele>587.56512451172</ele>
        <time>2010-05-08T16:38:50Z</time>
      </trkpt>
      <trkpt lat="45.30824" lon="4.65328">
        <ele>583.73114013672</ele>
        <time>2010-05-08T16:39:08Z</time>
      </trkpt>
      <trkpt lat="45.30849" lon="4.6527">
        <ele>583.47418212891</ele>
        <time>2010-05-08T16:39:27Z</time>
      </trkpt>
      <trkpt lat="45.30878" lon="4.65228">
        <ele>582.88610839844</ele>
        <time>2010-05-08T16:39:43Z</time>
      </trkpt>
      <trkpt lat="45.31328" lon="4.64799">
        <ele>588.53271484375</ele>
        <time>2010-05-08T16:43:20Z</time>
      </trkpt>
      <trkpt lat="45.31401" lon="4.64713">
        <ele>591.33630371094</ele>
        <time>2010-05-08T16:43:58Z</time>
      </trkpt>
      <trkpt lat="45.31501" lon="4.6457">
        <ele>594.06866455078</ele>
        <time>2010-05-08T16:44:55Z</time>
      </trkpt>
      <trkpt lat="45.31572" lon="4.64475">
        <ele>596.37744140625</ele>
        <time>2010-05-08T16:45:34Z</time>
      </trkpt>
      <trkpt lat="45.31613" lon="4.64431">
        <ele>594.03375244141</ele>
        <time>2010-05-08T16:45:54Z</time>
      </trkpt>
      <trkpt lat="45.31692" lon="4.64392">
        <ele>591.04608154297</ele>
        <time>2010-05-08T16:46:28Z</time>
      </trkpt>
      <trkpt lat="45.31782" lon="4.64355">
        <ele>588.23077392578</ele>
        <time>2010-05-08T16:47:05Z</time>
      </trkpt>
      <trkpt lat="45.31799" lon="4.64342">
        <ele>587.73876953125</ele>
        <time>2010-05-08T16:47:13Z</time>
      </trkpt>
      <trkpt lat="45.31807" lon="4.64327">
        <ele>587.19067382812</ele>
        <time>2010-05-08T16:47:18Z</time>
      </trkpt>
      <trkpt lat="45.31811" lon="4.64275">
        <ele>585.88043212891</ele>
        <time>2010-05-08T16:47:33Z</time>
      </trkpt>
      <trkpt lat="45.31766" lon="4.64185">
        <ele>583.1025390625</ele>
        <time>2010-05-08T16:48:04Z</time>
      </trkpt>
      <trkpt lat="45.31751" lon="4.64132">
        <ele>582.05651855469</ele>
        <time>2010-05-08T16:48:20Z</time>
      </trkpt>
      <trkpt lat="45.31741" lon="4.64079">
        <ele>581.93103027344</ele>
        <time>2010-05-08T16:48:36Z</time>
      </trkpt>
      <trkpt lat="45.3173" lon="4.63998">
        <ele>580.22180175781</ele>
        <time>2010-05-08T16:48:59Z</time>
      </trkpt>
      <trkpt lat="45.31723" lon="4.63721">
        <ele>570.06091308594</ele>
        <time>2010-05-08T16:50:17Z</time>
      </trkpt>
      <trkpt lat="45.3173" lon="4.63649">
        <ele>566.85833740234</ele>
        <time>2010-05-08T16:50:37Z</time>
      </trkpt>
      <trkpt lat="45.31822" lon="4.63405">
        <ele>557.14788818359</ele>
        <time>2010-05-08T16:51:55Z</time>
      </trkpt>
      <trkpt lat="45.31835" lon="4.63355">
        <ele>556.51373291016</ele>
        <time>2010-05-08T16:52:10Z</time>
      </trkpt>
      <trkpt lat="45.31836" lon="4.63336">
        <ele>556.09002685547</ele>
        <time>2010-05-08T16:52:16Z</time>
      </trkpt>
      <trkpt lat="45.31826" lon="4.63321">
        <ele>555.69598388672</ele>
        <time>2010-05-08T16:52:22Z</time>
      </trkpt>
      <trkpt lat="45.31844" lon="4.63293">
        <ele>556.42657470703</ele>
        <time>2010-05-08T16:52:32Z</time>
      </trkpt>
      <trkpt lat="45.31851" lon="4.63273">
        <ele>556.47814941406</ele>
        <time>2010-05-08T16:52:39Z</time>
      </trkpt>
      <trkpt lat="45.31858" lon="4.63195">
        <ele>556.01470947266</ele>
        <time>2010-05-08T16:53:01Z</time>
      </trkpt>
      <trkpt lat="45.31887" lon="4.62994">
        <ele>560.88018798828</ele>
        <time>2010-05-08T16:53:58Z</time>
      </trkpt>
      <trkpt lat="45.31893" lon="4.62883">
        <ele>562.96032714844</ele>
        <time>2010-05-08T16:54:30Z</time>
      </trkpt>
      <trkpt lat="45.31889" lon="4.62719">
        <ele>563.44641113281</ele>
        <time>2010-05-08T16:55:16Z</time>
      </trkpt>
      <trkpt lat="45.31894" lon="4.6265">
        <ele>565.79956054688</ele>
        <time>2010-05-08T16:55:35Z</time>
      </trkpt>
      <trkpt lat="45.31929" lon="4.62524">
        <ele>571.27618408203</ele>
        <time>2010-05-08T16:56:14Z</time>
      </trkpt>
      <trkpt lat="45.31951" lon="4.62479">
        <ele>572.57489013672</ele>
        <time>2010-05-08T16:56:29Z</time>
      </trkpt>
      <trkpt lat="45.31946" lon="4.62467">
        <ele>573.15008544922</ele>
        <time>2010-05-08T16:56:33Z</time>
      </trkpt>
      <trkpt lat="45.31948" lon="4.62452">
        <ele>573.67303466797</ele>
        <time>2010-05-08T16:56:37Z</time>
      </trkpt>
      <trkpt lat="45.31973" lon="4.62359">
        <ele>577.33422851562</ele>
        <time>2010-05-08T16:57:05Z</time>
      </trkpt>
      <trkpt lat="45.32008" lon="4.62258">
        <ele>579.51049804688</ele>
        <time>2010-05-08T16:57:37Z</time>
      </trkpt>
      <trkpt lat="45.32047" lon="4.62127">
        <ele>583.37609863281</ele>
        <time>2010-05-08T16:58:17Z</time>
      </trkpt>
      <trkpt lat="45.32089" lon="4.61966">
        <ele>585.24194335938</ele>
        <time>2010-05-08T16:59:05Z</time>
      </trkpt>
      <trkpt lat="45.32118" lon="4.61779">
        <ele>586.76293945312</ele>
        <time>2010-05-08T16:59:59Z</time>
      </trkpt>
      <trkpt lat="45.32153" lon="4.6171">
        <ele>586.78186035156</ele>
        <time>2010-05-08T17:00:23Z</time>
      </trkpt>
      <trkpt lat="45.32218" lon="4.61597">
        <ele>588.54040527344</ele>
        <time>2010-05-08T17:01:04Z</time>
      </trkpt>
      <trkpt lat="45.32181" lon="4.61473">
        <ele>594.78430175781</ele>
        <time>2010-05-08T17:01:42Z</time>
      </trkpt>
      <trkpt lat="45.32092" lon="4.61518">
        <ele>594.88269042969</ele>
        <time>2010-05-08T17:02:20Z</time>
      </trkpt>
      <trkpt lat="45.32058" lon="4.61523">
        <ele>596.45043945312</ele>
        <time>2010-05-08T17:02:34Z</time>
      </trkpt>
      <trkpt lat="45.32009" lon="4.61521">
        <ele>599.87756347656</ele>
        <time>2010-05-08T17:02:53Z</time>
      </trkpt>
      <trkpt lat="45.31977" lon="4.61509">
        <ele>600.82116699219</ele>
        <time>2010-05-08T17:03:07Z</time>
      </trkpt>
      <trkpt lat="45.31939" lon="4.61487">
        <ele>601.17095947266</ele>
        <time>2010-05-08T17:03:23Z</time>
      </trkpt>
      <trkpt lat="45.31906" lon="4.61458">
        <ele>600.37786865234</ele>
        <time>2010-05-08T17:03:39Z</time>
      </trkpt>
      <trkpt lat="45.31814" lon="4.61164">
        <ele>611.18841552734</ele>
        <time>2010-05-08T17:05:09Z</time>
      </trkpt>
      <trkpt lat="45.31745" lon="4.61025">
        <ele>611.24487304688</ele>
        <time>2010-05-08T17:05:57Z</time>
      </trkpt>
      <trkpt lat="45.317" lon="4.60949">
        <ele>614.22137451172</ele>
        <time>2010-05-08T17:06:25Z</time>
      </trkpt>
      <trkpt lat="45.3159" lon="4.60765">
        <ele>617.78649902344</ele>
        <time>2010-05-08T17:07:33Z</time>
      </trkpt>
      <trkpt lat="45.31573" lon="4.6073">
        <ele>618.80297851562</ele>
        <time>2010-05-08T17:07:45Z</time>
      </trkpt>
      <trkpt lat="45.31547" lon="4.60636">
        <ele>622.14239501953</ele>
        <time>2010-05-08T17:08:13Z</time>
      </trkpt>
      <trkpt lat="45.31514" lon="4.60563">
        <ele>622.65515136719</ele>
        <time>2010-05-08T17:08:38Z</time>
      </trkpt>
      <trkpt lat="45.31441" lon="4.60434">
        <ele>626.29553222656</ele>
        <time>2010-05-08T17:09:24Z</time>
      </trkpt>
      <trkpt lat="45.31397" lon="4.60371">
        <ele>628.81628417969</ele>
        <time>2010-05-08T17:09:49Z</time>
      </trkpt>
      <trkpt lat="45.31387" lon="4.60349">
        <ele>629.89337158203</ele>
        <time>2010-05-08T17:09:57Z</time>
      </trkpt>
      <trkpt lat="45.31347" lon="4.60151">
        <ele>639.18365478516</ele>
        <time>2010-05-08T17:10:55Z</time>
      </trkpt>
      <trkpt lat="45.31296" lon="4.60028">
        <ele>648.40844726562</ele>
        <time>2010-05-08T17:11:35Z</time>
      </trkpt>
      <trkpt lat="45.31286" lon="4.5998">
        <ele>651.87884521484</ele>
        <time>2010-05-08T17:11:49Z</time>
      </trkpt>
      <trkpt lat="45.31282" lon="4.59847">
        <ele>659.16094970703</ele>
        <time>2010-05-08T17:12:27Z</time>
      </trkpt>
      <trkpt lat="45.31288" lon="4.59789">
        <ele>661.11492919922</ele>
        <time>2010-05-08T17:12:43Z</time>
      </trkpt>
      <trkpt lat="45.31308" lon="4.59693">
        <ele>664.79986572266</ele>
        <time>2010-05-08T17:13:11Z</time>
      </trkpt>
      <trkpt lat="45.31311" lon="4.5967">
        <ele>665.66845703125</ele>
        <time>2010-05-08T17:13:18Z</time>
      </trkpt>
      <trkpt lat="45.31308" lon="4.59649">
        <ele>667.00061035156</ele>
        <time>2010-05-08T17:13:24Z</time>
      </trkpt>
      <trkpt lat="45.31294" lon="4.59639">
        <ele>668.51904296875</ele>
        <time>2010-05-08T17:13:30Z</time>
      </trkpt>
      <trkpt lat="45.31282" lon="4.5965">
        <ele>668.30883789062</ele>
        <time>2010-05-08T17:13:36Z</time>
      </trkpt>
      <trkpt lat="45.3125" lon="4.5975">
        <ele>661.00128173828</ele>
        <time>2010-05-08T17:14:07Z</time>
      </trkpt>
      <trkpt lat="45.31221" lon="4.59818">
        <ele>662.13140869141</ele>
        <time>2010-05-08T17:14:29Z</time>
      </trkpt>
      <trkpt lat="45.31206" lon="4.59841">
        <ele>663.23236083984</ele>
        <time>2010-05-08T17:14:38Z</time>
      </trkpt>
      <trkpt lat="45.31165" lon="4.59858">
        <ele>667.43896484375</ele>
        <time>2010-05-08T17:14:55Z</time>
      </trkpt>
      <trkpt lat="45.31063" lon="4.59873">
        <ele>672.31213378906</ele>
        <time>2010-05-08T17:15:36Z</time>
      </trkpt>
      <trkpt lat="45.31048" lon="4.59867">
        <ele>673.37945556641</ele>
        <time>2010-05-08T17:15:42Z</time>
      </trkpt>
      <trkpt lat="45.31036" lon="4.59858">
        <ele>674.13739013672</ele>
        <time>2010-05-08T17:15:48Z</time>
      </trkpt>
      <trkpt lat="45.3102" lon="4.59833">
        <ele>674.74505615234</ele>
        <time>2010-05-08T17:15:57Z</time>
      </trkpt>
      <trkpt lat="45.31008" lon="4.59774">
        <ele>671.25787353516</ele>
        <time>2010-05-08T17:16:15Z</time>
      </trkpt>
      <trkpt lat="45.30999" lon="4.59663">
        <ele>669.10034179688</ele>
        <time>2010-05-08T17:16:46Z</time>
      </trkpt>
      <trkpt lat="45.30964" lon="4.59545">
        <ele>667.34808349609</ele>
        <time>2010-05-08T17:17:22Z</time>
      </trkpt>
      <trkpt lat="45.30943" lon="4.59493">
        <ele>663.46179199219</ele>
        <time>2010-05-08T17:17:39Z</time>
      </trkpt>
      <trkpt lat="45.3091" lon="4.59432">
        <ele>657.21459960938</ele>
        <time>2010-05-08T17:18:01Z</time>
      </trkpt>
      <trkpt lat="45.30894" lon="4.59386">
        <ele>653.80139160156</ele>
        <time>2010-05-08T17:18:15Z</time>
      </trkpt>
      <trkpt lat="45.30898" lon="4.59315">
        <ele>657.04223632812</ele>
        <time>2010-05-08T17:18:35Z</time>
      </trkpt>
      <trkpt lat="45.30918" lon="4.59173">
        <ele>655.82110595703</ele>
        <time>2010-05-08T17:19:16Z</time>
      </trkpt>
      <trkpt lat="45.30918" lon="4.59136">
        <ele>653.95202636719</ele>
        <time>2010-05-08T17:19:26Z</time>
      </trkpt>
      <trkpt lat="45.30911" lon="4.59089">
        <ele>649.45947265625</ele>
        <time>2010-05-08T17:19:40Z</time>
      </trkpt>
      <trkpt lat="45.30912" lon="4.59062">
        <ele>647.07574462891</ele>
        <time>2010-05-08T17:19:47Z</time>
      </trkpt>
      <trkpt lat="45.30921" lon="4.59028">
        <ele>645.56854248047</ele>
        <time>2010-05-08T17:19:58Z</time>
      </trkpt>
      <trkpt lat="45.30951" lon="4.58953">
        <ele>646.79248046875</ele>
        <time>2010-05-08T17:20:22Z</time>
      </trkpt>
      <trkpt lat="45.3095" lon="4.5887">
        <ele>647.185546875</ele>
        <time>2010-05-08T17:20:45Z</time>
      </trkpt>
      <trkpt lat="45.30945" lon="4.58847">
        <ele>647.18090820312</ele>
        <time>2010-05-08T17:20:52Z</time>
      </trkpt>
      <trkpt lat="45.30937" lon="4.58833">
        <ele>645.85528564453</ele>
        <time>2010-05-08T17:20:57Z</time>
      </trkpt>
      <trkpt lat="45.30855" lon="4.58752">
        <ele>634.70397949219</ele>
        <time>2010-05-08T17:21:37Z</time>
      </trkpt>
      <trkpt lat="45.30845" lon="4.58732">
        <ele>633.54364013672</ele>
        <time>2010-05-08T17:21:44Z</time>
      </trkpt>
      <trkpt lat="45.30831" lon="4.5869">
        <ele>632.71466064453</ele>
        <time>2010-05-08T17:21:57Z</time>
      </trkpt>
      <trkpt lat="45.30828" lon="4.58668">
        <ele>633.45855712891</ele>
        <time>2010-05-08T17:22:03Z</time>
      </trkpt>
      <trkpt lat="45.3083" lon="4.58624">
        <ele>630.57684326172</ele>
        <time>2010-05-08T17:22:16Z</time>
      </trkpt>
      <trkpt lat="45.30842" lon="4.58572">
        <ele>628.73333740234</ele>
        <time>2010-05-08T17:22:31Z</time>
      </trkpt>
      <trkpt lat="45.30871" lon="4.58499">
        <ele>625.10687255859</ele>
        <time>2010-05-08T17:22:55Z</time>
      </trkpt>
      <trkpt lat="45.30886" lon="4.5845">
        <ele>621.98272705078</ele>
        <time>2010-05-08T17:23:10Z</time>
      </trkpt>
      <trkpt lat="45.30895" lon="4.58403">
        <ele>616.63452148438</ele>
        <time>2010-05-08T17:23:24Z</time>
      </trkpt>
      <trkpt lat="45.30907" lon="4.58368">
        <ele>613.78692626953</ele>
        <time>2010-05-08T17:23:35Z</time>
      </trkpt>
      <trkpt lat="45.30921" lon="4.58355">
        <ele>613.95281982422</ele>
        <time>2010-05-08T17:23:41Z</time>
      </trkpt>
      <trkpt lat="45.31021" lon="4.58319">
        <ele>618.19012451172</ele>
        <time>2010-05-08T17:24:23Z</time>
      </trkpt>
      <trkpt lat="45.3104" lon="4.58296">
        <ele>617.90545654297</ele>
        <time>2010-05-08T17:24:33Z</time>
      </trkpt>
      <trkpt lat="45.31045" lon="4.58283">
        <ele>617.45074462891</ele>
        <time>2010-05-08T17:24:37Z</time>
      </trkpt>
      <trkpt lat="45.31048" lon="4.5827">
        <ele>616.78210449219</ele>
        <time>2010-05-08T17:24:41Z</time>
      </trkpt>
      <trkpt lat="45.31047" lon="4.58246">
        <ele>615.62976074219</ele>
        <time>2010-05-08T17:24:47Z</time>
      </trkpt>
      <trkpt lat="45.31026" lon="4.58208">
        <ele>616.44439697266</ele>
        <time>2010-05-08T17:25:01Z</time>
      </trkpt>
      <trkpt lat="45.31004" lon="4.58191">
        <ele>614.57727050781</ele>
        <time>2010-05-08T17:25:11Z</time>
      </trkpt>
      <trkpt lat="45.30907" lon="4.58138">
        <ele>616.23974609375</ele>
        <time>2010-05-08T17:25:53Z</time>
      </trkpt>
      <trkpt lat="45.30864" lon="4.58121">
        <ele>619.671875</ele>
        <time>2010-05-08T17:26:10Z</time>
      </trkpt>
      <trkpt lat="45.3083" lon="4.58119">
        <ele>620.19415283203</ele>
        <time>2010-05-08T17:26:24Z</time>
      </trkpt>
      <trkpt lat="45.30764" lon="4.58134">
        <ele>621.67303466797</ele>
        <time>2010-05-08T17:26:51Z</time>
      </trkpt>
      <trkpt lat="45.30715" lon="4.58154">
        <ele>620.02374267578</ele>
        <time>2010-05-08T17:27:11Z</time>
      </trkpt>
      <trkpt lat="45.30654" lon="4.58193">
        <ele>615.08782958984</ele>
        <time>2010-05-08T17:27:38Z</time>
      </trkpt>
      <trkpt lat="45.30634" lon="4.58189">
        <ele>614.87725830078</ele>
        <time>2010-05-08T17:27:46Z</time>
      </trkpt>
      <trkpt lat="45.30616" lon="4.58176">
        <ele>615.97436523438</ele>
        <time>2010-05-08T17:27:54Z</time>
      </trkpt>
      <trkpt lat="45.30608" lon="4.58164">
        <ele>616.76031494141</ele>
        <time>2010-05-08T17:27:59Z</time>
      </trkpt>
      <trkpt lat="45.306" lon="4.58133">
        <ele>616.36126708984</ele>
        <time>2010-05-08T17:28:08Z</time>
      </trkpt>
      <trkpt lat="45.30605" lon="4.58046">
        <ele>614.82452392578</ele>
        <time>2010-05-08T17:28:33Z</time>
      </trkpt>
      <trkpt lat="45.3063" lon="4.57969">
        <ele>613.22857666016</ele>
        <time>2010-05-08T17:28:57Z</time>
      </trkpt>
      <trkpt lat="45.30665" lon="4.57898">
        <ele>612.71435546875</ele>
        <time>2010-05-08T17:29:21Z</time>
      </trkpt>
      <trkpt lat="45.30684" lon="4.57843">
        <ele>613.7197265625</ele>
        <time>2010-05-08T17:29:38Z</time>
      </trkpt>
      <trkpt lat="45.30697" lon="4.57779">
        <ele>615.60705566406</ele>
        <time>2010-05-08T17:29:57Z</time>
      </trkpt>
      <trkpt lat="45.30699" lon="4.57751">
        <ele>615.55541992188</ele>
        <time>2010-05-08T17:30:05Z</time>
      </trkpt>
      <trkpt lat="45.30699" lon="4.57736">
        <ele>615.87969970703</ele>
        <time>2010-05-08T17:30:09Z</time>
      </trkpt>
      <trkpt lat="45.30693" lon="4.57713">
        <ele>614.80816650391</ele>
        <time>2010-05-08T17:30:16Z</time>
      </trkpt>
      <trkpt lat="45.30674" lon="4.57685">
        <ele>611.36553955078</ele>
        <time>2010-05-08T17:30:27Z</time>
      </trkpt>
      <trkpt lat="45.30657" lon="4.57676">
        <ele>609.75073242188</ele>
        <time>2010-05-08T17:30:34Z</time>
      </trkpt>
      <trkpt lat="45.30622" lon="4.57672">
        <ele>608.20007324219</ele>
        <time>2010-05-08T17:30:48Z</time>
      </trkpt>
      <trkpt lat="45.30584" lon="4.57686">
        <ele>603.79644775391</ele>
        <time>2010-05-08T17:31:04Z</time>
      </trkpt>
      <trkpt lat="45.3051" lon="4.57701">
        <ele>599.10516357422</ele>
        <time>2010-05-08T17:31:34Z</time>
      </trkpt>
      <trkpt lat="45.30468" lon="4.57708">
        <ele>595.05889892578</ele>
        <time>2010-05-08T17:31:51Z</time>
      </trkpt>
      <trkpt lat="45.30444" lon="4.57705">
        <ele>593.59100341797</ele>
        <time>2010-05-08T17:32:01Z</time>
      </trkpt>
      <trkpt lat="45.30412" lon="4.57679">
        <ele>593.80517578125</ele>
        <time>2010-05-08T17:32:15Z</time>
      </trkpt>
      <trkpt lat="45.30398" lon="4.57657">
        <ele>594.45581054688</ele>
        <time>2010-05-08T17:32:24Z</time>
      </trkpt>
      <trkpt lat="45.30352" lon="4.57605">
        <ele>593.64947509766</ele>
        <time>2010-05-08T17:32:47Z</time>
      </trkpt>
      <trkpt lat="45.30339" lon="4.57585">
        <ele>593.826171875</ele>
        <time>2010-05-08T17:32:55Z</time>
      </trkpt>
      <trkpt lat="45.30308" lon="4.57469">
        <ele>593.03472900391</ele>
        <time>2010-05-08T17:33:30Z</time>
      </trkpt>
      <trkpt lat="45.30294" lon="4.5743">
        <ele>593.251953125</ele>
        <time>2010-05-08T17:33:42Z</time>
      </trkpt>
      <trkpt lat="45.30281" lon="4.57413">
        <ele>592.08422851562</ele>
        <time>2010-05-08T17:33:49Z</time>
      </trkpt>
      <trkpt lat="45.30231" lon="4.57378">
        <ele>586.16375732422</ele>
        <time>2010-05-08T17:34:11Z</time>
      </trkpt>
      <trkpt lat="45.30214" lon="4.57358">
        <ele>584.89111328125</ele>
        <time>2010-05-08T17:34:20Z</time>
      </trkpt>
      <trkpt lat="45.30175" lon="4.57272">
        <ele>586.08959960938</ele>
        <time>2010-05-08T17:34:49Z</time>
      </trkpt>
      <trkpt lat="45.30124" lon="4.57181">
        <ele>581.52972412109</ele>
        <time>2010-05-08T17:35:22Z</time>
      </trkpt>
      <trkpt lat="45.30105" lon="4.57139">
        <ele>578.89739990234</ele>
        <time>2010-05-08T17:35:36Z</time>
      </trkpt>
      <trkpt lat="45.30104" lon="4.57108">
        <ele>579.56158447266</ele>
        <time>2010-05-08T17:35:45Z</time>
      </trkpt>
      <trkpt lat="45.30125" lon="4.56937">
        <ele>578.9990234375</ele>
        <time>2010-05-08T17:36:34Z</time>
      </trkpt>
      <trkpt lat="45.30126" lon="4.56895">
        <ele>579.68322753906</ele>
        <time>2010-05-08T17:36:45Z</time>
      </trkpt>
      <trkpt lat="45.30118" lon="4.5685">
        <ele>580.03930664062</ele>
        <time>2010-05-08T17:36:58Z</time>
      </trkpt>
      <trkpt lat="45.30104" lon="4.56831">
        <ele>578.88586425781</ele>
        <time>2010-05-08T17:37:06Z</time>
      </trkpt>
      <trkpt lat="45.30083" lon="4.56823">
        <ele>576.97808837891</ele>
        <time>2010-05-08T17:37:15Z</time>
      </trkpt>
      <trkpt lat="45.30071" lon="4.56823">
        <ele>576.83160400391</ele>
        <time>2010-05-08T17:37:20Z</time>
      </trkpt>
      <trkpt lat="45.3001" lon="4.56852">
        <ele>570.17810058594</ele>
        <time>2010-05-08T17:37:45Z</time>
      </trkpt>
      <trkpt lat="45.29977" lon="4.5685">
        <ele>566.17572021484</ele>
        <time>2010-05-08T17:37:59Z</time>
      </trkpt>
      <trkpt lat="45.29959" lon="4.56842">
        <ele>564.76666259766</ele>
        <time>2010-05-08T17:38:06Z</time>
      </trkpt>
      <trkpt lat="45.29919" lon="4.56804">
        <ele>564.03729248047</ele>
        <time>2010-05-08T17:38:25Z</time>
      </trkpt>
      <trkpt lat="45.29846" lon="4.56641">
        <ele>558.45867919922</ele>
        <time>2010-05-08T17:39:20Z</time>
      </trkpt>
      <trkpt lat="45.29843" lon="4.56615">
        <ele>560.298828125</ele>
        <time>2010-05-08T17:39:27Z</time>
      </trkpt>
      <trkpt lat="45.29849" lon="4.56573">
        <ele>566.52770996094</ele>
        <time>2010-05-08T17:39:39Z</time>
      </trkpt>
      <trkpt lat="45.29833" lon="4.56521">
        <ele>562.85943603516</ele>
        <time>2010-05-08T17:39:55Z</time>
      </trkpt>
      <trkpt lat="45.29823" lon="4.56501">
        <ele>561.20001220703</ele>
        <time>2010-05-08T17:40:02Z</time>
      </trkpt>
      <trkpt lat="45.29751" lon="4.56404">
        <ele>550.41198730469</ele>
        <time>2010-05-08T17:40:42Z</time>
      </trkpt>
      <trkpt lat="45.29701" lon="4.56346">
        <ele>548.29718017578</ele>
        <time>2010-05-08T17:41:08Z</time>
      </trkpt>
      <trkpt lat="45.29668" lon="4.56287">
        <ele>545.91973876953</ele>
        <time>2010-05-08T17:41:29Z</time>
      </trkpt>
      <trkpt lat="45.29651" lon="4.56236">
        <ele>545.09484863281</ele>
        <time>2010-05-08T17:41:45Z</time>
      </trkpt>
      <trkpt lat="45.29638" lon="4.56227">
        <ele>543.52319335938</ele>
        <time>2010-05-08T17:41:51Z</time>
      </trkpt>
      <trkpt lat="45.29636" lon="4.56201">
        <ele>542.88348388672</ele>
        <time>2010-05-08T17:41:58Z</time>
      </trkpt>
      <trkpt lat="45.2962" lon="4.56207">
        <ele>541.15252685547</ele>
        <time>2010-05-08T17:42:05Z</time>
      </trkpt>
      <trkpt lat="45.29581" lon="4.56247">
        <ele>537.79309082031</ele>
        <time>2010-05-08T17:42:24Z</time>
      </trkpt>
      <trkpt lat="45.2956" lon="4.56308">
        <ele>536.21716308594</ele>
        <time>2010-05-08T17:42:43Z</time>
      </trkpt>
      <trkpt lat="45.29556" lon="4.56329">
        <ele>535.72918701172</ele>
        <time>2010-05-08T17:42:49Z</time>
      </trkpt>
      <trkpt lat="45.29557" lon="4.5636">
        <ele>534.27465820312</ele>
        <time>2010-05-08T17:42:58Z</time>
      </trkpt>
      <trkpt lat="45.29564" lon="4.56392">
        <ele>532.80035400391</ele>
        <time>2010-05-08T17:43:07Z</time>
      </trkpt>
      <trkpt lat="45.29602" lon="4.56489">
        <ele>529.48620605469</ele>
        <time>2010-05-08T17:43:39Z</time>
      </trkpt>
      <trkpt lat="45.29607" lon="4.56527">
        <ele>528.39654541016</ele>
        <time>2010-05-08T17:43:50Z</time>
      </trkpt>
      <trkpt lat="45.29605" lon="4.56559">
        <ele>527.44421386719</ele>
        <time>2010-05-08T17:43:59Z</time>
      </trkpt>
      <trkpt lat="45.29597" lon="4.56589">
        <ele>526.28070068359</ele>
        <time>2010-05-08T17:44:08Z</time>
      </trkpt>
      <trkpt lat="45.2959" lon="4.56601">
        <ele>525.58184814453</ele>
        <time>2010-05-08T17:44:12Z</time>
      </trkpt>
      <trkpt lat="45.29494" lon="4.56678">
        <ele>529.74475097656</ele>
        <time>2010-05-08T17:44:56Z</time>
      </trkpt>
      <trkpt lat="45.29469" lon="4.56713">
        <ele>533.71429443359</ele>
        <time>2010-05-08T17:45:10Z</time>
      </trkpt>
      <trkpt lat="45.29455" lon="4.56761">
        <ele>535.45758056641</ele>
        <time>2010-05-08T17:45:25Z</time>
      </trkpt>
      <trkpt lat="45.29456" lon="4.56849">
        <ele>534.13806152344</ele>
        <time>2010-05-08T17:45:50Z</time>
      </trkpt>
      <trkpt lat="45.29453" lon="4.56863">
        <ele>534.81286621094</ele>
        <time>2010-05-08T17:45:54Z</time>
      </trkpt>
      <trkpt lat="45.29434" lon="4.56897">
        <ele>537.79565429688</ele>
        <time>2010-05-08T17:46:06Z</time>
      </trkpt>
      <trkpt lat="45.29425" lon="4.56928">
        <ele>539.55255126953</ele>
        <time>2010-05-08T17:46:15Z</time>
      </trkpt>
      <trkpt lat="45.29418" lon="4.56981">
        <ele>542.91973876953</ele>
        <time>2010-05-08T17:46:31Z</time>
      </trkpt>
      <trkpt lat="45.29419" lon="4.56992">
        <ele>543.36761474609</ele>
        <time>2010-05-08T17:46:34Z</time>
      </trkpt>
      <trkpt lat="45.29435" lon="4.57029">
        <ele>544.34973144531</ele>
        <time>2010-05-08T17:46:46Z</time>
      </trkpt>
      <trkpt lat="45.29512" lon="4.57117">
        <ele>543.54058837891</ele>
        <time>2010-05-08T17:47:25Z</time>
      </trkpt>
      <trkpt lat="45.29562" lon="4.57203">
        <ele>551.94012451172</ele>
        <time>2010-05-08T17:47:57Z</time>
      </trkpt>
      <trkpt lat="45.2959" lon="4.57237">
        <ele>552.20806884766</ele>
        <time>2010-05-08T17:48:12Z</time>
      </trkpt>
      <trkpt lat="45.29596" lon="4.57253">
        <ele>553.37463378906</ele>
        <time>2010-05-08T17:48:17Z</time>
      </trkpt>
      <trkpt lat="45.29591" lon="4.57261">
        <ele>555.68487548828</ele>
        <time>2010-05-08T17:48:20Z</time>
      </trkpt>
      <trkpt lat="45.29578" lon="4.57261">
        <ele>558.84979248047</ele>
        <time>2010-05-08T17:48:25Z</time>
      </trkpt>
      <trkpt lat="45.29516" lon="4.57203">
        <ele>561.45623779297</ele>
        <time>2010-05-08T17:48:55Z</time>
      </trkpt>
      <trkpt lat="45.29457" lon="4.5716">
        <ele>561.25512695312</ele>
        <time>2010-05-08T17:49:21Z</time>
      </trkpt>
      <trkpt lat="45.29434" lon="4.57153">
        <ele>563.46533203125</ele>
        <time>2010-05-08T17:49:31Z</time>
      </trkpt>
      <trkpt lat="45.29301" lon="4.57163">
        <ele>584.66290283203</ele>
        <time>2010-05-08T17:50:24Z</time>
      </trkpt>
      <trkpt lat="45.29233" lon="4.57152">
        <ele>587.14111328125</ele>
        <time>2010-05-08T17:50:51Z</time>
      </trkpt>
      <trkpt lat="45.29197" lon="4.5716">
        <ele>589.96472167969</ele>
        <time>2010-05-08T17:51:06Z</time>
      </trkpt>
      <trkpt lat="45.29172" lon="4.57174">
        <ele>592.34381103516</ele>
        <time>2010-05-08T17:51:17Z</time>
      </trkpt>
      <trkpt lat="45.29139" lon="4.57203">
        <ele>596.56982421875</ele>
        <time>2010-05-08T17:51:32Z</time>
      </trkpt>
      <trkpt lat="45.29124" lon="4.57232">
        <ele>600.06121826172</ele>
        <time>2010-05-08T17:51:42Z</time>
      </trkpt>
      <trkpt lat="45.29111" lon="4.57298">
        <ele>603.24334716797</ele>
        <time>2010-05-08T17:52:02Z</time>
      </trkpt>
      <trkpt lat="45.29105" lon="4.57309">
        <ele>603.73254394531</ele>
        <time>2010-05-08T17:52:06Z</time>
      </trkpt>
      <trkpt lat="45.29068" lon="4.57325">
        <ele>610.24615478516</ele>
        <time>2010-05-08T17:52:21Z</time>
      </trkpt>
      <trkpt lat="45.2906" lon="4.57337">
        <ele>613.10681152344</ele>
        <time>2010-05-08T17:52:26Z</time>
      </trkpt>
      <trkpt lat="45.29052" lon="4.57365">
        <ele>615.82000732422</ele>
        <time>2010-05-08T17:52:34Z</time>
      </trkpt>
      <trkpt lat="45.29043" lon="4.57438">
        <ele>618.29760742188</ele>
        <time>2010-05-08T17:52:55Z</time>
      </trkpt>
      <trkpt lat="45.28996" lon="4.57544">
        <ele>629.57202148438</ele>
        <time>2010-05-08T17:53:30Z</time>
      </trkpt>
      <trkpt lat="45.28972" lon="4.57609">
        <ele>633.39373779297</ele>
        <time>2010-05-08T17:53:51Z</time>
      </trkpt>
      <trkpt lat="45.28951" lon="4.57657">
        <ele>637.35168457031</ele>
        <time>2010-05-08T17:54:07Z</time>
      </trkpt>
      <trkpt lat="45.28923" lon="4.57707">
        <ele>640.16424560547</ele>
        <time>2010-05-08T17:54:25Z</time>
      </trkpt>
      <trkpt lat="45.28871" lon="4.57773">
        <ele>639.66845703125</ele>
        <time>2010-05-08T17:54:53Z</time>
      </trkpt>
      <trkpt lat="45.28839" lon="4.57801">
        <ele>640.68988037109</ele>
        <time>2010-05-08T17:55:08Z</time>
      </trkpt>
      <trkpt lat="45.28807" lon="4.57814">
        <ele>640.841796875</ele>
        <time>2010-05-08T17:55:21Z</time>
      </trkpt>
      <trkpt lat="45.28718" lon="4.57807">
        <ele>644.51635742188</ele>
        <time>2010-05-08T17:55:57Z</time>
      </trkpt>
      <trkpt lat="45.28679" lon="4.57793">
        <ele>645.50183105469</ele>
        <time>2010-05-08T17:56:13Z</time>
      </trkpt>
      <trkpt lat="45.28652" lon="4.57747">
        <ele>655.83544921875</ele>
        <time>2010-05-08T17:56:30Z</time>
      </trkpt>
      <trkpt lat="45.28592" lon="4.57673">
        <ele>667.46728515625</ele>
        <time>2010-05-08T17:57:02Z</time>
      </trkpt>
      <trkpt lat="45.28549" lon="4.57608">
        <ele>676.16705322266</ele>
        <time>2010-05-08T17:57:27Z</time>
      </trkpt>
      <trkpt lat="45.28443" lon="4.57541">
        <ele>685.33282470703</ele>
        <time>2010-05-08T17:58:13Z</time>
      </trkpt>
      <trkpt lat="45.2844" lon="4.57527">
        <ele>689.81286621094</ele>
        <time>2010-05-08T17:58:17Z</time>
      </trkpt>
      <trkpt lat="45.28453" lon="4.57518">
        <ele>692.93060302734</ele>
        <time>2010-05-08T17:58:23Z</time>
      </trkpt>
      <trkpt lat="45.28463" lon="4.57518">
        <ele>693.04302978516</ele>
        <time>2010-05-08T17:58:27Z</time>
      </trkpt>
      <trkpt lat="45.28541" lon="4.57543">
        <ele>690.40197753906</ele>
        <time>2010-05-08T17:58:59Z</time>
      </trkpt>
      <trkpt lat="45.28579" lon="4.57562">
        <ele>689.22369384766</ele>
        <time>2010-05-08T17:59:15Z</time>
      </trkpt>
      <trkpt lat="45.28704" lon="4.57597">
        <ele>693.79296875</ele>
        <time>2010-05-08T18:00:06Z</time>
      </trkpt>
      <trkpt lat="45.28745" lon="4.57597">
        <ele>695.3427734375</ele>
        <time>2010-05-08T18:00:23Z</time>
      </trkpt>
      <trkpt lat="45.28758" lon="4.57592">
        <ele>695.43029785156</ele>
        <time>2010-05-08T18:00:28Z</time>
      </trkpt>
      <trkpt lat="45.28768" lon="4.57572">
        <ele>696.92327880859</ele>
        <time>2010-05-08T18:00:35Z</time>
      </trkpt>
      <trkpt lat="45.28766" lon="4.57558">
        <ele>698.90051269531</ele>
        <time>2010-05-08T18:00:39Z</time>
      </trkpt>
      <trkpt lat="45.2876" lon="4.5755">
        <ele>700.76818847656</ele>
        <time>2010-05-08T18:00:42Z</time>
      </trkpt>
      <trkpt lat="45.28715" lon="4.5754">
        <ele>703.55456542969</ele>
        <time>2010-05-08T18:01:01Z</time>
      </trkpt>
      <trkpt lat="45.28685" lon="4.57521">
        <ele>706.80352783203</ele>
        <time>2010-05-08T18:01:14Z</time>
      </trkpt>
      <trkpt lat="45.28652" lon="4.57494">
        <ele>710.32183837891</ele>
        <time>2010-05-08T18:01:29Z</time>
      </trkpt>
      <trkpt lat="45.28556" lon="4.57389">
        <ele>723.43640136719</ele>
        <time>2010-05-08T18:02:17Z</time>
      </trkpt>
      <trkpt lat="45.28507" lon="4.57356">
        <ele>729.54656982422</ele>
        <time>2010-05-08T18:02:39Z</time>
      </trkpt>
      <trkpt lat="45.28428" lon="4.57333">
        <ele>744.58813476562</ele>
        <time>2010-05-08T18:03:11Z</time>
      </trkpt>
      <trkpt lat="45.28385" lon="4.57337">
        <ele>748.80712890625</ele>
        <time>2010-05-08T18:03:29Z</time>
      </trkpt>
      <trkpt lat="45.28313" lon="4.57353">
        <ele>752.64764404297</ele>
        <time>2010-05-08T18:03:58Z</time>
      </trkpt>
      <trkpt lat="45.2828" lon="4.57355">
        <ele>755.83441162109</ele>
        <time>2010-05-08T18:04:11Z</time>
      </trkpt>
      <trkpt lat="45.28172" lon="4.57346">
        <ele>773.7158203125</ele>
        <time>2010-05-08T18:04:54Z</time>
      </trkpt>
      <trkpt lat="45.28159" lon="4.57352">
        <ele>772.97705078125</ele>
        <time>2010-05-08T18:05:00Z</time>
      </trkpt>
      <trkpt lat="45.28134" lon="4.57383">
        <ele>765.14379882812</ele>
        <time>2010-05-08T18:05:13Z</time>
      </trkpt>
      <trkpt lat="45.28124" lon="4.57389">
        <ele>763.83056640625</ele>
        <time>2010-05-08T18:05:17Z</time>
      </trkpt>
      <trkpt lat="45.28108" lon="4.57393">
        <ele>763.25451660156</ele>
        <time>2010-05-08T18:05:24Z</time>
      </trkpt>
      <trkpt lat="45.28087" lon="4.57387">
        <ele>765.37475585938</ele>
        <time>2010-05-08T18:05:33Z</time>
      </trkpt>
      <trkpt lat="45.28052" lon="4.57346">
        <ele>765.38116455078</ele>
        <time>2010-05-08T18:05:51Z</time>
      </trkpt>
      <trkpt lat="45.28017" lon="4.5729">
        <ele>764.94390869141</ele>
        <time>2010-05-08T18:06:12Z</time>
      </trkpt>
      <trkpt lat="45.27996" lon="4.57241">
        <ele>766.86376953125</ele>
        <time>2010-05-08T18:06:28Z</time>
      </trkpt>
      <trkpt lat="45.27988" lon="4.57212">
        <ele>768.45513916016</ele>
        <time>2010-05-08T18:06:37Z</time>
      </trkpt>
      <trkpt lat="45.27979" lon="4.57043">
        <ele>783.58447265625</ele>
        <time>2010-05-08T18:07:24Z</time>
      </trkpt>
      <trkpt lat="45.27963" lon="4.56952">
        <ele>788.86279296875</ele>
        <time>2010-05-08T18:07:51Z</time>
      </trkpt>
      <trkpt lat="45.27935" lon="4.56866">
        <ele>796.39038085938</ele>
        <time>2010-05-08T18:08:18Z</time>
      </trkpt>
      <trkpt lat="45.27894" lon="4.56801">
        <ele>806.99029541016</ele>
        <time>2010-05-08T18:08:42Z</time>
      </trkpt>
      <trkpt lat="45.27865" lon="4.56775">
        <ele>811.68695068359</ele>
        <time>2010-05-08T18:08:56Z</time>
      </trkpt>
      <trkpt lat="45.27798" lon="4.56788">
        <ele>813.49487304688</ele>
        <time>2010-05-08T18:09:23Z</time>
      </trkpt>
      <trkpt lat="45.27748" lon="4.56777">
        <ele>821.42504882812</ele>
        <time>2010-05-08T18:09:43Z</time>
      </trkpt>
      <trkpt lat="45.27729" lon="4.56783">
        <ele>822.73724365234</ele>
        <time>2010-05-08T18:09:51Z</time>
      </trkpt>
      <trkpt lat="45.27698" lon="4.56808">
        <ele>821.75238037109</ele>
        <time>2010-05-08T18:10:05Z</time>
      </trkpt>
      <trkpt lat="45.27682" lon="4.56811">
        <ele>823.38153076172</ele>
        <time>2010-05-08T18:10:12Z</time>
      </trkpt>
      <trkpt lat="45.27668" lon="4.5681">
        <ele>825.57305908203</ele>
        <time>2010-05-08T18:10:17Z</time>
      </trkpt>
      <trkpt lat="45.2765" lon="4.56801">
        <ele>828.79650878906</ele>
        <time>2010-05-08T18:10:25Z</time>
      </trkpt>
      <trkpt lat="45.27631" lon="4.56774">
        <ele>833.18316650391</ele>
        <time>2010-05-08T18:10:36Z</time>
      </trkpt>
      <trkpt lat="45.27587" lon="4.56684">
        <ele>839.67016601562</ele>
        <time>2010-05-08T18:11:07Z</time>
      </trkpt>
      <trkpt lat="45.27516" lon="4.56502">
        <ele>857.43359375</ele>
        <time>2010-05-08T18:12:05Z</time>
      </trkpt>
      <trkpt lat="45.27493" lon="4.56468">
        <ele>858.89813232422</ele>
        <time>2010-05-08T18:12:19Z</time>
      </trkpt>
      <trkpt lat="45.27414" lon="4.56492">
        <ele>858.5478515625</ele>
        <time>2010-05-08T18:12:51Z</time>
      </trkpt>
      <trkpt lat="45.27389" lon="4.5649">
        <ele>860.13171386719</ele>
        <time>2010-05-08T18:13:01Z</time>
      </trkpt>
      <trkpt lat="45.27363" lon="4.56475">
        <ele>862.4296875</ele>
        <time>2010-05-08T18:13:12Z</time>
      </trkpt>
      <trkpt lat="45.27334" lon="4.5645">
        <ele>865.37078857422</ele>
        <time>2010-05-08T18:13:26Z</time>
      </trkpt>
      <trkpt lat="45.27277" lon="4.56421">
        <ele>869.49664306641</ele>
        <time>2010-05-08T18:13:50Z</time>
      </trkpt>
      <trkpt lat="45.27204" lon="4.56414">
        <ele>873.86309814453</ele>
        <time>2010-05-08T18:14:19Z</time>
      </trkpt>
      <trkpt lat="45.27176" lon="4.56456">
        <ele>875.23657226562</ele>
        <time>2010-05-08T18:14:36Z</time>
      </trkpt>
      <trkpt lat="45.2712" lon="4.56558">
        <ele>883.62377929688</ele>
        <time>2010-05-08T18:15:12Z</time>
      </trkpt>
      <trkpt lat="45.27119" lon="4.56586">
        <ele>885.04071044922</ele>
        <time>2010-05-08T18:15:20Z</time>
      </trkpt>
      <trkpt lat="45.27141" lon="4.56625">
        <ele>884.86181640625</ele>
        <time>2010-05-08T18:15:34Z</time>
      </trkpt>
      <trkpt lat="45.27145" lon="4.5664">
        <ele>885.52624511719</ele>
        <time>2010-05-08T18:15:38Z</time>
      </trkpt>
      <trkpt lat="45.27145" lon="4.56655">
        <ele>886.69055175781</ele>
        <time>2010-05-08T18:15:43Z</time>
      </trkpt>
      <trkpt lat="45.27141" lon="4.5666">
        <ele>887.54498291016</ele>
        <time>2010-05-08T18:15:45Z</time>
      </trkpt>
      <trkpt lat="45.27126" lon="4.56655">
        <ele>889.04357910156</ele>
        <time>2010-05-08T18:15:51Z</time>
      </trkpt>
      <trkpt lat="45.27005" lon="4.56562">
        <ele>893.92358398438</ele>
        <time>2010-05-08T18:16:46Z</time>
      </trkpt>
      <trkpt lat="45.2691" lon="4.56484">
        <ele>893.60308837891</ele>
        <time>2010-05-08T18:17:30Z</time>
      </trkpt>
      <trkpt lat="45.26884" lon="4.56455">
        <ele>891.38031005859</ele>
        <time>2010-05-08T18:17:43Z</time>
      </trkpt>
      <trkpt lat="45.26865" lon="4.56416">
        <ele>889.39416503906</ele>
        <time>2010-05-08T18:17:57Z</time>
      </trkpt>
      <trkpt lat="45.26867" lon="4.56376">
        <ele>888.06713867188</ele>
        <time>2010-05-08T18:18:08Z</time>
      </trkpt>
      <trkpt lat="45.26901" lon="4.56174">
        <ele>887.18218994141</ele>
        <time>2010-05-08T18:19:06Z</time>
      </trkpt>
      <trkpt lat="45.26905" lon="4.56114">
        <ele>888.99169921875</ele>
        <time>2010-05-08T18:19:23Z</time>
      </trkpt>
      <trkpt lat="45.26902" lon="4.56096">
        <ele>889.75915527344</ele>
        <time>2010-05-08T18:19:29Z</time>
      </trkpt>
      <trkpt lat="45.26891" lon="4.56085">
        <ele>891.06567382812</ele>
        <time>2010-05-08T18:19:34Z</time>
      </trkpt>
      <trkpt lat="45.26872" lon="4.56081">
        <ele>893.00091552734</ele>
        <time>2010-05-08T18:19:42Z</time>
      </trkpt>
      <trkpt lat="45.26862" lon="4.56096">
        <ele>892.24829101562</ele>
        <time>2010-05-08T18:19:47Z</time>
      </trkpt>
      <trkpt lat="45.26854" lon="4.56131">
        <ele>888.53259277344</ele>
        <time>2010-05-08T18:19:58Z</time>
      </trkpt>
      <trkpt lat="45.26849" lon="4.56136">
        <ele>887.89520263672</ele>
        <time>2010-05-08T18:20:00Z</time>
      </trkpt>
      <trkpt lat="45.26826" lon="4.56136">
        <ele>887.86364746094</ele>
        <time>2010-05-08T18:20:09Z</time>
      </trkpt>
      <trkpt lat="45.26811" lon="4.5613">
        <ele>888.90649414062</ele>
        <time>2010-05-08T18:20:16Z</time>
      </trkpt>
      <trkpt lat="45.26759" lon="4.56147">
        <ele>887.22076416016</ele>
        <time>2010-05-08T18:20:37Z</time>
      </trkpt>
      <trkpt lat="45.26728" lon="4.56151">
        <ele>888.35986328125</ele>
        <time>2010-05-08T18:20:50Z</time>
      </trkpt>
      <trkpt lat="45.26687" lon="4.56138">
        <ele>892.46575927734</ele>
        <time>2010-05-08T18:21:06Z</time>
      </trkpt>
      <trkpt lat="45.26663" lon="4.56137">
        <ele>894.22082519531</ele>
        <time>2010-05-08T18:21:16Z</time>
      </trkpt>
      <trkpt lat="45.26605" lon="4.56179">
        <ele>895.74920654297</ele>
        <time>2010-05-08T18:21:42Z</time>
      </trkpt>
      <trkpt lat="45.26485" lon="4.56336">
        <ele>901.1435546875</ele>
        <time>2010-05-08T18:22:47Z</time>
      </trkpt>
      <trkpt lat="45.26422" lon="4.56464">
        <ele>895.53149414062</ele>
        <time>2010-05-08T18:23:31Z</time>
      </trkpt>
      <trkpt lat="45.2638" lon="4.565">
        <ele>894.87579345703</ele>
        <time>2010-05-08T18:23:51Z</time>
      </trkpt>
      <trkpt lat="45.26334" lon="4.56527">
        <ele>893.72161865234</ele>
        <time>2010-05-08T18:24:11Z</time>
      </trkpt>
      <trkpt lat="45.26306" lon="4.56534">
        <ele>891.57275390625</ele>
        <time>2010-05-08T18:24:22Z</time>
      </trkpt>
      <trkpt lat="45.26156" lon="4.56506">
        <ele>885.42840576172</ele>
        <time>2010-05-08T18:25:23Z</time>
      </trkpt>
      <trkpt lat="45.26082" lon="4.56453">
        <ele>882.14990234375</ele>
        <time>2010-05-08T18:25:56Z</time>
      </trkpt>
      <trkpt lat="45.26029" lon="4.56426">
        <ele>880.43707275391</ele>
        <time>2010-05-08T18:26:19Z</time>
      </trkpt>
      <trkpt lat="45.25997" lon="4.56417">
        <ele>878.39398193359</ele>
        <time>2010-05-08T18:26:32Z</time>
      </trkpt>
      <trkpt lat="45.25934" lon="4.56363">
        <ele>874.9326171875</ele>
        <time>2010-05-08T18:27:01Z</time>
      </trkpt>
      <trkpt lat="45.25863" lon="4.5632">
        <ele>866.69543457031</ele>
        <time>2010-05-08T18:27:32Z</time>
      </trkpt>
      <trkpt lat="45.25769" lon="4.56178">
        <ele>859.00103759766</ele>
        <time>2010-05-08T18:28:27Z</time>
      </trkpt>
      <trkpt lat="45.25735" lon="4.56091">
        <ele>856.47442626953</ele>
        <time>2010-05-08T18:28:55Z</time>
      </trkpt>
      <trkpt lat="45.25694" lon="4.56017">
        <ele>854.19836425781</ele>
        <time>2010-05-08T18:29:21Z</time>
      </trkpt>
      <trkpt lat="45.25669" lon="4.5598">
        <ele>854.42883300781</ele>
        <time>2010-05-08T18:29:36Z</time>
      </trkpt>
      <trkpt lat="45.25647" lon="4.55954">
        <ele>855.18518066406</ele>
        <time>2010-05-08T18:29:47Z</time>
      </trkpt>
      <trkpt lat="45.25519" lon="4.55861">
        <ele>848.03527832031</ele>
        <time>2010-05-08T18:30:45Z</time>
      </trkpt>
      <trkpt lat="45.25473" lon="4.55816">
        <ele>844.19702148438</ele>
        <time>2010-05-08T18:31:07Z</time>
      </trkpt>
      <trkpt lat="45.25439" lon="4.55766">
        <ele>839.87609863281</ele>
        <time>2010-05-08T18:31:27Z</time>
      </trkpt>
      <trkpt lat="45.2542" lon="4.55692">
        <ele>839.39916992188</ele>
        <time>2010-05-08T18:31:49Z</time>
      </trkpt>
      <trkpt lat="45.25397" lon="4.55548">
        <ele>836.13098144531</ele>
        <time>2010-05-08T18:32:31Z</time>
      </trkpt>
      <trkpt lat="45.25388" lon="4.55412">
        <ele>832.73095703125</ele>
        <time>2010-05-08T18:33:09Z</time>
      </trkpt>
      <trkpt lat="45.25375" lon="4.55313">
        <ele>827.65466308594</ele>
        <time>2010-05-08T18:33:38Z</time>
      </trkpt>
      <trkpt lat="45.25376" lon="4.55281">
        <ele>825.86395263672</ele>
        <time>2010-05-08T18:33:47Z</time>
      </trkpt>
      <trkpt lat="45.25386" lon="4.55225">
        <ele>824.11749267578</ele>
        <time>2010-05-08T18:34:03Z</time>
      </trkpt>
      <trkpt lat="45.25421" lon="4.55174">
        <ele>829.84332275391</ele>
        <time>2010-05-08T18:34:23Z</time>
      </trkpt>
      <trkpt lat="45.2543" lon="4.55154">
        <ele>830.56085205078</ele>
        <time>2010-05-08T18:34:30Z</time>
      </trkpt>
      <trkpt lat="45.25437" lon="4.55055">
        <ele>826.80358886719</ele>
        <time>2010-05-08T18:34:58Z</time>
      </trkpt>
      <trkpt lat="45.25438" lon="4.54914">
        <ele>828.67260742188</ele>
        <time>2010-05-08T18:35:37Z</time>
      </trkpt>
      <trkpt lat="45.25437" lon="4.54851">
        <ele>835.47235107422</ele>
        <time>2010-05-08T18:35:55Z</time>
      </trkpt>
      <trkpt lat="45.25435" lon="4.54838">
        <ele>836.52282714844</ele>
        <time>2010-05-08T18:35:59Z</time>
      </trkpt>
      <trkpt lat="45.25426" lon="4.54827">
        <ele>837.34973144531</ele>
        <time>2010-05-08T18:36:04Z</time>
      </trkpt>
      <trkpt lat="45.2539" lon="4.54825">
        <ele>838.00604248047</ele>
        <time>2010-05-08T18:36:18Z</time>
      </trkpt>
      <trkpt lat="45.25351" lon="4.54848">
        <ele>834.44219970703</ele>
        <time>2010-05-08T18:36:35Z</time>
      </trkpt>
      <trkpt lat="45.25315" lon="4.54878">
        <ele>828.26470947266</ele>
        <time>2010-05-08T18:36:52Z</time>
      </trkpt>
      <trkpt lat="45.25303" lon="4.54882">
        <ele>828.07189941406</ele>
        <time>2010-05-08T18:36:57Z</time>
      </trkpt>
      <trkpt lat="45.25289" lon="4.54879">
        <ele>829.55914306641</ele>
        <time>2010-05-08T18:37:02Z</time>
      </trkpt>
      <trkpt lat="45.2527" lon="4.54854">
        <ele>835.23608398438</ele>
        <time>2010-05-08T18:37:13Z</time>
      </trkpt>
      <trkpt lat="45.25262" lon="4.5485">
        <ele>836.13824462891</ele>
        <time>2010-05-08T18:37:16Z</time>
      </trkpt>
      <trkpt lat="45.25245" lon="4.54854">
        <ele>837.05847167969</ele>
        <time>2010-05-08T18:37:23Z</time>
      </trkpt>
      <trkpt lat="45.25239" lon="4.5486">
        <ele>837.56317138672</ele>
        <time>2010-05-08T18:37:26Z</time>
      </trkpt>
      <trkpt lat="45.25229" lon="4.5493">
        <ele>828.80084228516</ele>
        <time>2010-05-08T18:37:46Z</time>
      </trkpt>
      <trkpt lat="45.25213" lon="4.54974">
        <ele>825.19927978516</ele>
        <time>2010-05-08T18:38:00Z</time>
      </trkpt>
      <trkpt lat="45.25195" lon="4.55006">
        <ele>824.86810302734</ele>
        <time>2010-05-08T18:38:12Z</time>
      </trkpt>
      <trkpt lat="45.25142" lon="4.55078">
        <ele>823.07989501953</ele>
        <time>2010-05-08T18:38:41Z</time>
      </trkpt>
      <trkpt lat="45.25026" lon="4.55208">
        <ele>813.25054931641</ele>
        <time>2010-05-08T18:39:40Z</time>
      </trkpt>
      <trkpt lat="45.25006" lon="4.55237">
        <ele>809.97943115234</ele>
        <time>2010-05-08T18:39:51Z</time>
      </trkpt>
      <trkpt lat="45.2498" lon="4.55259">
        <ele>806.04821777344</ele>
        <time>2010-05-08T18:40:04Z</time>
      </trkpt>
      <trkpt lat="45.2491" lon="4.55276">
        <ele>805.10089111328</ele>
        <time>2010-05-08T18:40:32Z</time>
      </trkpt>
      <trkpt lat="45.24876" lon="4.55281">
        <ele>799.68316650391</ele>
        <time>2010-05-08T18:40:46Z</time>
      </trkpt>
      <trkpt lat="45.24861" lon="4.55277">
        <ele>799.10675048828</ele>
        <time>2010-05-08T18:40:52Z</time>
      </trkpt>
      <trkpt lat="45.24844" lon="4.55268">
        <ele>799.54241943359</ele>
        <time>2010-05-08T18:40:59Z</time>
      </trkpt>
      <trkpt lat="45.24789" lon="4.55216">
        <ele>800.57891845703</ele>
        <time>2010-05-08T18:41:25Z</time>
      </trkpt>
      <trkpt lat="45.24686" lon="4.55145">
        <ele>789.81774902344</ele>
        <time>2010-05-08T18:42:11Z</time>
      </trkpt>
      <trkpt lat="45.24649" lon="4.55113">
        <ele>784.73590087891</ele>
        <time>2010-05-08T18:42:29Z</time>
      </trkpt>
      <trkpt lat="45.24624" lon="4.55071">
        <ele>783.02770996094</ele>
        <time>2010-05-08T18:42:44Z</time>
      </trkpt>
      <trkpt lat="45.24584" lon="4.54961">
        <ele>783.806640625</ele>
        <time>2010-05-08T18:43:19Z</time>
      </trkpt>
      <trkpt lat="45.24566" lon="4.54943">
        <ele>782.91040039062</ele>
        <time>2010-05-08T18:43:28Z</time>
      </trkpt>
      <trkpt lat="45.24554" lon="4.5494">
        <ele>781.2841796875</ele>
        <time>2010-05-08T18:43:33Z</time>
      </trkpt>
      <trkpt lat="45.245" lon="4.54945">
        <ele>771.60571289062</ele>
        <time>2010-05-08T18:43:54Z</time>
      </trkpt>
      <trkpt lat="45.2446" lon="4.54921">
        <ele>775.16186523438</ele>
        <time>2010-05-08T18:44:12Z</time>
      </trkpt>
      <trkpt lat="45.24434" lon="4.54914">
        <ele>776.03839111328</ele>
        <time>2010-05-08T18:44:22Z</time>
      </trkpt>
      <trkpt lat="45.24422" lon="4.54919">
        <ele>775.86444091797</ele>
        <time>2010-05-08T18:44:27Z</time>
      </trkpt>
      <trkpt lat="45.2441" lon="4.54937">
        <ele>776.82012939453</ele>
        <time>2010-05-08T18:44:34Z</time>
      </trkpt>
      <trkpt lat="45.24396" lon="4.5498">
        <ele>777.92004394531</ele>
        <time>2010-05-08T18:44:48Z</time>
      </trkpt>
      <trkpt lat="45.24373" lon="4.55084">
        <ele>774.21691894531</ele>
        <time>2010-05-08T18:45:18Z</time>
      </trkpt>
      <trkpt lat="45.24366" lon="4.55213">
        <ele>766.42681884766</ele>
        <time>2010-05-08T18:45:55Z</time>
      </trkpt>
      <trkpt lat="45.24351" lon="4.55287">
        <ele>764.58587646484</ele>
        <time>2010-05-08T18:46:17Z</time>
      </trkpt>
      <trkpt lat="45.24357" lon="4.55398">
        <ele>759.32165527344</ele>
        <time>2010-05-08T18:46:48Z</time>
      </trkpt>
      <trkpt lat="45.24354" lon="4.55435">
        <ele>758.44970703125</ele>
        <time>2010-05-08T18:46:59Z</time>
      </trkpt>
      <trkpt lat="45.24346" lon="4.55449">
        <ele>758.80969238281</ele>
        <time>2010-05-08T18:47:04Z</time>
      </trkpt>
      <trkpt lat="45.24332" lon="4.55451">
        <ele>759.72583007812</ele>
        <time>2010-05-08T18:47:09Z</time>
      </trkpt>
      <trkpt lat="45.24311" lon="4.55435">
        <ele>757.30932617188</ele>
        <time>2010-05-08T18:47:19Z</time>
      </trkpt>
      <trkpt lat="45.24285" lon="4.55386">
        <ele>757.01446533203</ele>
        <time>2010-05-08T18:47:36Z</time>
      </trkpt>
      <trkpt lat="45.24234" lon="4.55349">
        <ele>752.77990722656</ele>
        <time>2010-05-08T18:47:59Z</time>
      </trkpt>
      <trkpt lat="45.24181" lon="4.553">
        <ele>749.81213378906</ele>
        <time>2010-05-08T18:48:24Z</time>
      </trkpt>
      <trkpt lat="45.24054" lon="4.55226">
        <ele>746.10461425781</ele>
        <time>2010-05-08T18:49:19Z</time>
      </trkpt>
      <trkpt lat="45.24034" lon="4.55223">
        <ele>743.95538330078</ele>
        <time>2010-05-08T18:49:27Z</time>
      </trkpt>
      <trkpt lat="45.24012" lon="4.55234">
        <ele>738.70977783203</ele>
        <time>2010-05-08T18:49:37Z</time>
      </trkpt>
      <trkpt lat="45.23992" lon="4.55235">
        <ele>736.14312744141</ele>
        <time>2010-05-08T18:49:45Z</time>
      </trkpt>
      <trkpt lat="45.23982" lon="4.55227">
        <ele>736.73565673828</ele>
        <time>2010-05-08T18:49:49Z</time>
      </trkpt>
      <trkpt lat="45.23959" lon="4.55188">
        <ele>742.33367919922</ele>
        <time>2010-05-08T18:50:04Z</time>
      </trkpt>
      <trkpt lat="45.23945" lon="4.5518">
        <ele>742.70642089844</ele>
        <time>2010-05-08T18:50:10Z</time>
      </trkpt>
      <trkpt lat="45.23862" lon="4.55208">
        <ele>736.53009033203</ele>
        <time>2010-05-08T18:50:44Z</time>
      </trkpt>
      <trkpt lat="45.23833" lon="4.55228">
        <ele>733.54663085938</ele>
        <time>2010-05-08T18:50:57Z</time>
      </trkpt>
      <trkpt lat="45.2381" lon="4.55253">
        <ele>733.84674072266</ele>
        <time>2010-05-08T18:51:08Z</time>
      </trkpt>
      <trkpt lat="45.23788" lon="4.55287">
        <ele>732.34594726562</ele>
        <time>2010-05-08T18:51:21Z</time>
      </trkpt>
      <trkpt lat="45.23756" lon="4.55361">
        <ele>722.85089111328</ele>
        <time>2010-05-08T18:51:46Z</time>
      </trkpt>
      <trkpt lat="45.23748" lon="4.55371">
        <ele>721.71789550781</ele>
        <time>2010-05-08T18:51:50Z</time>
      </trkpt>
      <trkpt lat="45.23696" lon="4.55401">
        <ele>721.24230957031</ele>
        <time>2010-05-08T18:52:12Z</time>
      </trkpt>
      <trkpt lat="45.2366" lon="4.55435">
        <ele>715.81042480469</ele>
        <time>2010-05-08T18:52:30Z</time>
      </trkpt>
      <trkpt lat="45.23629" lon="4.55456">
        <ele>711.48474121094</ele>
        <time>2010-05-08T18:52:44Z</time>
      </trkpt>
      <trkpt lat="45.23584" lon="4.55472">
        <ele>708.38092041016</ele>
        <time>2010-05-08T18:53:02Z</time>
      </trkpt>
      <trkpt lat="45.23483" lon="4.55478">
        <ele>706.24072265625</ele>
        <time>2010-05-08T18:53:43Z</time>
      </trkpt>
      <trkpt lat="45.23417" lon="4.55476">
        <ele>706.35473632812</ele>
        <time>2010-05-08T18:54:09Z</time>
      </trkpt>
      <trkpt lat="45.23376" lon="4.55464">
        <ele>712.87847900391</ele>
        <time>2010-05-08T18:54:26Z</time>
      </trkpt>
      <trkpt lat="45.2335" lon="4.55471">
        <ele>712.74322509766</ele>
        <time>2010-05-08T18:54:36Z</time>
      </trkpt>
      <trkpt lat="45.23332" lon="4.55493">
        <ele>709.47320556641</ele>
        <time>2010-05-08T18:54:46Z</time>
      </trkpt>
      <trkpt lat="45.23295" lon="4.55592">
        <ele>692.02197265625</ele>
        <time>2010-05-08T18:55:17Z</time>
      </trkpt>
      <trkpt lat="45.23264" lon="4.55628">
        <ele>688.44085693359</ele>
        <time>2010-05-08T18:55:33Z</time>
      </trkpt>
      <trkpt lat="45.23235" lon="4.55641">
        <ele>685.38494873047</ele>
        <time>2010-05-08T18:55:46Z</time>
      </trkpt>
      <trkpt lat="45.23199" lon="4.55639">
        <ele>680.44616699219</ele>
        <time>2010-05-08T18:56:00Z</time>
      </trkpt>
      <trkpt lat="45.23161" lon="4.55619">
        <ele>678.37744140625</ele>
        <time>2010-05-08T18:56:16Z</time>
      </trkpt>
      <trkpt lat="45.23127" lon="4.55591">
        <ele>675.95367431641</ele>
        <time>2010-05-08T18:56:32Z</time>
      </trkpt>
      <trkpt lat="45.23073" lon="4.55525">
        <ele>674.47479248047</ele>
        <time>2010-05-08T18:57:01Z</time>
      </trkpt>
      <trkpt lat="45.23032" lon="4.55462">
        <ele>674.59533691406</ele>
        <time>2010-05-08T18:57:25Z</time>
      </trkpt>
      <trkpt lat="45.23022" lon="4.55453">
        <ele>673.65063476562</ele>
        <time>2010-05-08T18:57:29Z</time>
      </trkpt>
      <trkpt lat="45.23013" lon="4.5545">
        <ele>672.05218505859</ele>
        <time>2010-05-08T18:57:33Z</time>
      </trkpt>
      <trkpt lat="45.2299" lon="4.55454">
        <ele>667.95794677734</ele>
        <time>2010-05-08T18:57:42Z</time>
      </trkpt>
      <trkpt lat="45.22954" lon="4.5548">
        <ele>661.99822998047</ele>
        <time>2010-05-08T18:57:59Z</time>
      </trkpt>
      <trkpt lat="45.2293" lon="4.55486">
        <ele>659.68237304688</ele>
        <time>2010-05-08T18:58:08Z</time>
      </trkpt>
      <trkpt lat="45.22894" lon="4.55473">
        <ele>656.37933349609</ele>
        <time>2010-05-08T18:58:23Z</time>
      </trkpt>
      <trkpt lat="45.22816" lon="4.55386">
        <ele>652.16784667969</ele>
        <time>2010-05-08T18:59:03Z</time>
      </trkpt>
      <trkpt lat="45.22743" lon="4.55264">
        <ele>646.15789794922</ele>
        <time>2010-05-08T18:59:48Z</time>
      </trkpt>
      <trkpt lat="45.22733" lon="4.55243">
        <ele>646.41876220703</ele>
        <time>2010-05-08T18:59:55Z</time>
      </trkpt>
      <trkpt lat="45.22721" lon="4.552">
        <ele>649.42510986328</ele>
        <time>2010-05-08T19:00:08Z</time>
      </trkpt>
      <trkpt lat="45.22713" lon="4.55195">
        <ele>649.20965576172</ele>
        <time>2010-05-08T19:00:12Z</time>
      </trkpt>
      <trkpt lat="45.22697" lon="4.55202">
        <ele>646.87335205078</ele>
        <time>2010-05-08T19:00:18Z</time>
      </trkpt>
      <trkpt lat="45.2268" lon="4.55236">
        <ele>640.62878417969</ele>
        <time>2010-05-08T19:00:30Z</time>
      </trkpt>
      <trkpt lat="45.22655" lon="4.55269">
        <ele>634.56311035156</ele>
        <time>2010-05-08T19:00:44Z</time>
      </trkpt>
      <trkpt lat="45.2262" lon="4.55275">
        <ele>632.78723144531</ele>
        <time>2010-05-08T19:00:58Z</time>
      </trkpt>
      <trkpt lat="45.22564" lon="4.55204">
        <ele>637.20892333984</ele>
        <time>2010-05-08T19:01:28Z</time>
      </trkpt>
      <trkpt lat="45.22496" lon="4.55165">
        <ele>635.02893066406</ele>
        <time>2010-05-08T19:01:57Z</time>
      </trkpt>
      <trkpt lat="45.22546" lon="4.55287">
        <ele>627.11560058594</ele>
        <time>2010-05-08T19:02:37Z</time>
      </trkpt>
      <trkpt lat="45.22595" lon="4.55423">
        <ele>616.89727783203</ele>
        <time>2010-05-08T19:03:20Z</time>
      </trkpt>
      <trkpt lat="45.22609" lon="4.55444">
        <ele>615.57971191406</ele>
        <time>2010-05-08T19:03:28Z</time>
      </trkpt>
      <trkpt lat="45.22645" lon="4.55477">
        <ele>615.06524658203</ele>
        <time>2010-05-08T19:03:46Z</time>
      </trkpt>
      <trkpt lat="45.22601" lon="4.5564">
        <ele>601.54357910156</ele>
        <time>2010-05-08T19:04:35Z</time>
      </trkpt>
      <trkpt lat="45.22598" lon="4.55664">
        <ele>599.58233642578</ele>
        <time>2010-05-08T19:04:42Z</time>
      </trkpt>
      <trkpt lat="45.22604" lon="4.55688">
        <ele>597.80584716797</ele>
        <time>2010-05-08T19:04:49Z</time>
      </trkpt>
      <trkpt lat="45.22635" lon="4.55738">
        <ele>596.30249023438</ele>
        <time>2010-05-08T19:05:08Z</time>
      </trkpt>
      <trkpt lat="45.22649" lon="4.55769">
        <ele>594.90979003906</ele>
        <time>2010-05-08T19:05:18Z</time>
      </trkpt>
      <trkpt lat="45.22647" lon="4.55865">
        <ele>585.8681640625</ele>
        <time>2010-05-08T19:05:45Z</time>
      </trkpt>
      <trkpt lat="45.22653" lon="4.55926">
        <ele>582.85437011719</ele>
        <time>2010-05-08T19:06:02Z</time>
      </trkpt>
      <trkpt lat="45.22665" lon="4.55994">
        <ele>580.15557861328</ele>
        <time>2010-05-08T19:06:22Z</time>
      </trkpt>
      <trkpt lat="45.22681" lon="4.56045">
        <ele>577.15625</ele>
        <time>2010-05-08T19:06:38Z</time>
      </trkpt>
      <trkpt lat="45.22708" lon="4.56113">
        <ele>572.21795654297</ele>
        <time>2010-05-08T19:07:00Z</time>
      </trkpt>
      <trkpt lat="45.22736" lon="4.56199">
        <ele>566.82250976562</ele>
        <time>2010-05-08T19:07:27Z</time>
      </trkpt>
      <trkpt lat="45.22747" lon="4.56205">
        <ele>566.31561279297</ele>
        <time>2010-05-08T19:07:31Z</time>
      </trkpt>
      <trkpt lat="45.22772" lon="4.56205">
        <ele>566.46282958984</ele>
        <time>2010-05-08T19:07:41Z</time>
      </trkpt>
      <trkpt lat="45.22797" lon="4.56213">
        <ele>565.802734375</ele>
        <time>2010-05-08T19:07:52Z</time>
      </trkpt>
      <trkpt lat="45.22865" lon="4.56285">
        <ele>559.51611328125</ele>
        <time>2010-05-08T19:08:26Z</time>
      </trkpt>
      <trkpt lat="45.22874" lon="4.56311">
        <ele>557.23760986328</ele>
        <time>2010-05-08T19:08:34Z</time>
      </trkpt>
      <trkpt lat="45.2287" lon="4.5633">
        <ele>555.09503173828</ele>
        <time>2010-05-08T19:08:39Z</time>
      </trkpt>
      <trkpt lat="45.22856" lon="4.56353">
        <ele>552.57214355469</ele>
        <time>2010-05-08T19:08:48Z</time>
      </trkpt>
      <trkpt lat="45.22842" lon="4.5637">
        <ele>550.42742919922</ele>
        <time>2010-05-08T19:08:55Z</time>
      </trkpt>
      <trkpt lat="45.2281" lon="4.56393">
        <ele>548.18835449219</ele>
        <time>2010-05-08T19:09:10Z</time>
      </trkpt>
      <trkpt lat="45.22791" lon="4.56414">
        <ele>546.71801757812</ele>
        <time>2010-05-08T19:09:19Z</time>
      </trkpt>
      <trkpt lat="45.22762" lon="4.56493">
        <ele>540.4453125</ele>
        <time>2010-05-08T19:09:44Z</time>
      </trkpt>
      <trkpt lat="45.22752" lon="4.56507">
        <ele>539.9921875</ele>
        <time>2010-05-08T19:09:50Z</time>
      </trkpt>
      <trkpt lat="45.22697" lon="4.56535">
        <ele>542.08276367188</ele>
        <time>2010-05-08T19:10:13Z</time>
      </trkpt>
      <trkpt lat="45.2261" lon="4.56625">
        <ele>528.06976318359</ele>
        <time>2010-05-08T19:10:57Z</time>
      </trkpt>
      <trkpt lat="45.22538" lon="4.56673">
        <ele>520.36627197266</ele>
        <time>2010-05-08T19:11:28Z</time>
      </trkpt>
      <trkpt lat="45.22526" lon="4.56728">
        <ele>514.93023681641</ele>
        <time>2010-05-08T19:11:45Z</time>
      </trkpt>
      <trkpt lat="45.22479" lon="4.56769">
        <ele>508.99407958984</ele>
        <time>2010-05-08T19:12:07Z</time>
      </trkpt>
      <trkpt lat="45.22464" lon="4.56794">
        <ele>507.76022338867</ele>
        <time>2010-05-08T19:12:16Z</time>
      </trkpt>
      <trkpt lat="45.2245" lon="4.56829">
        <ele>507.31317138672</ele>
        <time>2010-05-08T19:12:27Z</time>
      </trkpt>
      <trkpt lat="45.22453" lon="4.56848">
        <ele>508.35424804688</ele>
        <time>2010-05-08T19:12:33Z</time>
      </trkpt>
      <trkpt lat="45.22496" lon="4.56895">
        <ele>506.54077148438</ele>
        <time>2010-05-08T19:12:55Z</time>
      </trkpt>
      <trkpt lat="45.22513" lon="4.56934">
        <ele>507.08013916016</ele>
        <time>2010-05-08T19:13:07Z</time>
      </trkpt>
      <trkpt lat="45.22519" lon="4.56981">
        <ele>508.67266845703</ele>
        <time>2010-05-08T19:13:21Z</time>
      </trkpt>
      <trkpt lat="45.22534" lon="4.57203">
        <ele>517.26513671875</ele>
        <time>2010-05-08T19:14:24Z</time>
      </trkpt>
      <trkpt lat="45.22541" lon="4.57251">
        <ele>515.29168701172</ele>
        <time>2010-05-08T19:14:38Z</time>
      </trkpt>
      <trkpt lat="45.2257" lon="4.57363">
        <ele>503.49502563477</ele>
        <time>2010-05-08T19:15:11Z</time>
      </trkpt>
      <trkpt lat="45.22573" lon="4.57396">
        <ele>501.74700927734</ele>
        <time>2010-05-08T19:15:21Z</time>
      </trkpt>
      <trkpt lat="45.22553" lon="4.57469">
        <ele>504.57626342773</ele>
        <time>2010-05-08T19:15:43Z</time>
      </trkpt>
      <trkpt lat="45.22546" lon="4.57513">
        <ele>503.95809936523</ele>
        <time>2010-05-08T19:15:55Z</time>
      </trkpt>
      <trkpt lat="45.22548" lon="4.57544">
        <ele>502.56201171875</ele>
        <time>2010-05-08T19:16:04Z</time>
      </trkpt>
      <trkpt lat="45.22559" lon="4.57578">
        <ele>498.07348632812</ele>
        <time>2010-05-08T19:16:15Z</time>
      </trkpt>
      <trkpt lat="45.22562" lon="4.57602">
        <ele>496.57022094727</ele>
        <time>2010-05-08T19:16:22Z</time>
      </trkpt>
      <trkpt lat="45.22553" lon="4.57722">
        <ele>494.42446899414</ele>
        <time>2010-05-08T19:16:56Z</time>
      </trkpt>
      <trkpt lat="45.22566" lon="4.57802">
        <ele>489.69110107422</ele>
        <time>2010-05-08T19:17:19Z</time>
      </trkpt>
      <trkpt lat="45.22563" lon="4.57874">
        <ele>489.99066162109</ele>
        <time>2010-05-08T19:17:39Z</time>
      </trkpt>
      <trkpt lat="45.22571" lon="4.57908">
        <ele>487.74365234375</ele>
        <time>2010-05-08T19:17:49Z</time>
      </trkpt>
      <trkpt lat="45.22605" lon="4.5797">
        <ele>478.74966430664</ele>
        <time>2010-05-08T19:18:11Z</time>
      </trkpt>
      <trkpt lat="45.22608" lon="4.58">
        <ele>477.33404541016</ele>
        <time>2010-05-08T19:18:20Z</time>
      </trkpt>
      <trkpt lat="45.22603" lon="4.58021">
        <ele>476.69467163086</ele>
        <time>2010-05-08T19:18:26Z</time>
      </trkpt>
      <trkpt lat="45.22579" lon="4.58065">
        <ele>477.24252319336</ele>
        <time>2010-05-08T19:18:42Z</time>
      </trkpt>
      <trkpt lat="45.2257" lon="4.58103">
        <ele>476.2522277832</ele>
        <time>2010-05-08T19:18:53Z</time>
      </trkpt>
      <trkpt lat="45.2255" lon="4.58238">
        <ele>470.48147583008</ele>
        <time>2010-05-08T19:19:32Z</time>
      </trkpt>
      <trkpt lat="45.22552" lon="4.58387">
        <ele>457.40295410156</ele>
        <time>2010-05-08T19:20:14Z</time>
      </trkpt>
      <trkpt lat="45.2253" lon="4.58458">
        <ele>454.88629150391</ele>
        <time>2010-05-08T19:20:36Z</time>
      </trkpt>
      <trkpt lat="45.22498" lon="4.58521">
        <ele>451.80038452148</ele>
        <time>2010-05-08T19:20:58Z</time>
      </trkpt>
      <trkpt lat="45.22436" lon="4.58594">
        <ele>441.23284912109</ele>
        <time>2010-05-08T19:21:30Z</time>
      </trkpt>
      <trkpt lat="45.22408" lon="4.5862">
        <ele>439.04318237305</ele>
        <time>2010-05-08T19:21:44Z</time>
      </trkpt>
      <trkpt lat="45.22394" lon="4.58627">
        <ele>438.04754638672</ele>
        <time>2010-05-08T19:21:49Z</time>
      </trkpt>
      <trkpt lat="45.22333" lon="4.58639">
        <ele>434.98358154297</ele>
        <time>2010-05-08T19:22:14Z</time>
      </trkpt>
      <trkpt lat="45.22329" lon="4.58645">
        <ele>434.37408447266</ele>
        <time>2010-05-08T19:22:16Z</time>
      </trkpt>
      <trkpt lat="45.22359" lon="4.58708">
        <ele>432.62850952148</ele>
        <time>2010-05-08T19:22:38Z</time>
      </trkpt>
      <trkpt lat="45.22405" lon="4.5883">
        <ele>429.8017578125</ele>
        <time>2010-05-08T19:23:17Z</time>
      </trkpt>
      <trkpt lat="45.22432" lon="4.58874">
        <ele>430.21832275391</ele>
        <time>2010-05-08T19:23:33Z</time>
      </trkpt>
      <trkpt lat="45.22511" lon="4.58934">
        <ele>433.16604614258</ele>
        <time>2010-05-08T19:24:09Z</time>
      </trkpt>
      <trkpt lat="45.22603" lon="4.58991">
        <ele>429.64801025391</ele>
        <time>2010-05-08T19:24:49Z</time>
      </trkpt>
      <trkpt lat="45.22623" lon="4.59008">
        <ele>428.04010009766</ele>
        <time>2010-05-08T19:24:59Z</time>
      </trkpt>
      <trkpt lat="45.22688" lon="4.5911">
        <ele>423.46746826172</ele>
        <time>2010-05-08T19:25:38Z</time>
      </trkpt>
      <trkpt lat="45.22825" lon="4.59246">
        <ele>417.37884521484</ele>
        <time>2010-05-08T19:26:44Z</time>
      </trkpt>
      <trkpt lat="45.22902" lon="4.59328">
        <ele>416.16271972656</ele>
        <time>2010-05-08T19:27:23Z</time>
      </trkpt>
      <trkpt lat="45.22923" lon="4.59357">
        <ele>415.69900512695</ele>
        <time>2010-05-08T19:27:35Z</time>
      </trkpt>
      <trkpt lat="45.23037" lon="4.59601">
        <ele>408.92492675781</ele>
        <time>2010-05-08T19:28:57Z</time>
      </trkpt>
      <trkpt lat="45.23051" lon="4.59645">
        <ele>407.49212646484</ele>
        <time>2010-05-08T19:29:11Z</time>
      </trkpt>
      <trkpt lat="45.2309" lon="4.59811">
        <ele>404.63665771484</ele>
        <time>2010-05-08T19:30:00Z</time>
      </trkpt>
      <trkpt lat="45.23108" lon="4.59857">
        <ele>403.64352416992</ele>
        <time>2010-05-08T19:30:15Z</time>
      </trkpt>
      <trkpt lat="45.23124" lon="4.59886">
        <ele>402.91592407227</ele>
        <time>2010-05-08T19:30:25Z</time>
      </trkpt>
      <trkpt lat="45.23264" lon="4.60088">
        <ele>399.7766418457</ele>
        <time>2010-05-08T19:31:45Z</time>
      </trkpt>
      <trkpt lat="45.23427" lon="4.60271">
        <ele>403.58407592773</ele>
        <time>2010-05-08T19:33:08Z</time>
      </trkpt>
      <trkpt lat="45.23449" lon="4.60311">
        <ele>404.31875610352</ele>
        <time>2010-05-08T19:33:23Z</time>
      </trkpt>
      <trkpt lat="45.23502" lon="4.60428">
        <ele>401.67938232422</ele>
        <time>2010-05-08T19:34:02Z</time>
      </trkpt>
      <trkpt lat="45.2353" lon="4.6054">
        <ele>398.49942016602</ele>
        <time>2010-05-08T19:34:35Z</time>
      </trkpt>
      <trkpt lat="45.23596" lon="4.60921">
        <ele>399.59634399414</ele>
        <time>2010-05-08T19:36:26Z</time>
      </trkpt>
      <trkpt lat="45.23674" lon="4.61568">
        <ele>403.58456420898</ele>
        <time>2010-05-08T19:39:31Z</time>
      </trkpt>
      <trkpt lat="45.2367" lon="4.61605">
        <ele>403.66156005859</ele>
        <time>2010-05-08T19:39:42Z</time>
      </trkpt>
      <trkpt lat="45.23655" lon="4.61661">
        <ele>401.31524658203</ele>
        <time>2010-05-08T19:39:59Z</time>
      </trkpt>
      <trkpt lat="45.23653" lon="4.61684">
        <ele>399.39431762695</ele>
        <time>2010-05-08T19:40:05Z</time>
      </trkpt>
      <trkpt lat="45.23696" lon="4.61842">
        <ele>400.21026611328</ele>
        <time>2010-05-08T19:40:53Z</time>
      </trkpt>
      <trkpt lat="45.23702" lon="4.61877">
        <ele>400.47814941406</ele>
        <time>2010-05-08T19:41:03Z</time>
      </trkpt>
      <trkpt lat="45.23701" lon="4.61909">
        <ele>398.40884399414</ele>
        <time>2010-05-08T19:41:12Z</time>
      </trkpt>
      <trkpt lat="45.23684" lon="4.61973">
        <ele>392.68344116211</ele>
        <time>2010-05-08T19:41:31Z</time>
      </trkpt>
      <trkpt lat="45.23685" lon="4.62004">
        <ele>393.13430786133</ele>
        <time>2010-05-08T19:41:40Z</time>
      </trkpt>
      <trkpt lat="45.23723" lon="4.6216">
        <ele>391.80319213867</ele>
        <time>2010-05-08T19:42:27Z</time>
      </trkpt>
      <trkpt lat="45.23779" lon="4.62254">
        <ele>390.16445922852</ele>
        <time>2010-05-08T19:43:01Z</time>
      </trkpt>
      <trkpt lat="45.23822" lon="4.62337">
        <ele>387.71536254883</ele>
        <time>2010-05-08T19:43:30Z</time>
      </trkpt>
      <trkpt lat="45.23839" lon="4.62422">
        <ele>379.93170166016</ele>
        <time>2010-05-08T19:43:55Z</time>
      </trkpt>
      <trkpt lat="45.23855" lon="4.6246">
        <ele>380.6408996582</ele>
        <time>2010-05-08T19:44:08Z</time>
      </trkpt>
      <trkpt lat="45.23861" lon="4.6249">
        <ele>379.68786621094</ele>
        <time>2010-05-08T19:44:17Z</time>
      </trkpt>
      <trkpt lat="45.23845" lon="4.62615">
        <ele>389.23794555664</ele>
        <time>2010-05-08T19:44:52Z</time>
      </trkpt>
      <trkpt lat="45.23828" lon="4.62669">
        <ele>391.35067749023</ele>
        <time>2010-05-08T19:45:09Z</time>
      </trkpt>
      <trkpt lat="45.23733" lon="4.62866">
        <ele>384.54821777344</ele>
        <time>2010-05-08T19:46:16Z</time>
      </trkpt>
      <trkpt lat="45.23715" lon="4.62875">
        <ele>383.22180175781</ele>
        <time>2010-05-08T19:46:24Z</time>
      </trkpt>
      <trkpt lat="45.23668" lon="4.62881">
        <ele>377.19189453125</ele>
        <time>2010-05-08T19:46:43Z</time>
      </trkpt>
      <trkpt lat="45.23646" lon="4.62896">
        <ele>378.65530395508</ele>
        <time>2010-05-08T19:46:53Z</time>
      </trkpt>
      <trkpt lat="45.23637" lon="4.62909">
        <ele>379.00338745117</ele>
        <time>2010-05-08T19:46:58Z</time>
      </trkpt>
      <trkpt lat="45.23618" lon="4.62967">
        <ele>380.20858764648</ele>
        <time>2010-05-08T19:47:16Z</time>
      </trkpt>
      <trkpt lat="45.23611" lon="4.63075">
        <ele>383.58438110352</ele>
        <time>2010-05-08T19:47:46Z</time>
      </trkpt>
      <trkpt lat="45.23605" lon="4.63107">
        <ele>383.89151000977</ele>
        <time>2010-05-08T19:47:56Z</time>
      </trkpt>
      <trkpt lat="45.23593" lon="4.6313">
        <ele>382.02169799805</ele>
        <time>2010-05-08T19:48:04Z</time>
      </trkpt>
      <trkpt lat="45.23518" lon="4.63238">
        <ele>374.06915283203</ele>
        <time>2010-05-08T19:48:47Z</time>
      </trkpt>
      <trkpt lat="45.2351" lon="4.63263">
        <ele>371.24563598633</ele>
        <time>2010-05-08T19:48:54Z</time>
      </trkpt>
      <trkpt lat="45.2351" lon="4.63278">
        <ele>370.19332885742</ele>
        <time>2010-05-08T19:48:58Z</time>
      </trkpt>
      <trkpt lat="45.23517" lon="4.63311">
        <ele>368.94250488281</ele>
        <time>2010-05-08T19:49:08Z</time>
      </trkpt>
      <trkpt lat="45.23546" lon="4.63348">
        <ele>371.06817626953</ele>
        <time>2010-05-08T19:49:24Z</time>
      </trkpt>
      <trkpt lat="45.23553" lon="4.63377">
        <ele>372.15084838867</ele>
        <time>2010-05-08T19:49:32Z</time>
      </trkpt>
      <trkpt lat="45.23553" lon="4.63508">
        <ele>377.22885131836</ele>
        <time>2010-05-08T19:50:09Z</time>
      </trkpt>
      <trkpt lat="45.23532" lon="4.63557">
        <ele>373.81338500977</ele>
        <time>2010-05-08T19:50:26Z</time>
      </trkpt>
      <trkpt lat="45.23528" lon="4.63593">
        <ele>373.14450073242</ele>
        <time>2010-05-08T19:50:36Z</time>
      </trkpt>
      <trkpt lat="45.23535" lon="4.63627">
        <ele>374.62518310547</ele>
        <time>2010-05-08T19:50:46Z</time>
      </trkpt>
      <trkpt lat="45.23562" lon="4.63683">
        <ele>379.76293945312</ele>
        <time>2010-05-08T19:51:05Z</time>
      </trkpt>
      <trkpt lat="45.23563" lon="4.63699">
        <ele>378.28549194336</ele>
        <time>2010-05-08T19:51:09Z</time>
      </trkpt>
      <trkpt lat="45.23549" lon="4.63784">
        <ele>371.12673950195</ele>
        <time>2010-05-08T19:51:34Z</time>
      </trkpt>
      <trkpt lat="45.23566" lon="4.63849">
        <ele>374.71929931641</ele>
        <time>2010-05-08T19:51:54Z</time>
      </trkpt>
      <trkpt lat="45.23567" lon="4.64013">
        <ele>369.34600830078</ele>
        <time>2010-05-08T19:52:40Z</time>
      </trkpt>
      <trkpt lat="45.23581" lon="4.64033">
        <ele>367.31634521484</ele>
        <time>2010-05-08T19:52:48Z</time>
      </trkpt>
      <trkpt lat="45.23656" lon="4.64076">
        <ele>378.56610107422</ele>
        <time>2010-05-08T19:53:20Z</time>
      </trkpt>
      <trkpt lat="45.23669" lon="4.64099">
        <ele>378.07107543945</ele>
        <time>2010-05-08T19:53:28Z</time>
      </trkpt>
      <trkpt lat="45.23673" lon="4.64121">
        <ele>376.93719482422</ele>
        <time>2010-05-08T19:53:35Z</time>
      </trkpt>
      <trkpt lat="45.23673" lon="4.64184">
        <ele>370.65298461914</ele>
        <time>2010-05-08T19:53:53Z</time>
      </trkpt>
      <trkpt lat="45.23639" lon="4.64254">
        <ele>366.63806152344</ele>
        <time>2010-05-08T19:54:17Z</time>
      </trkpt>
      <trkpt lat="45.23624" lon="4.6435">
        <ele>361.41665649414</ele>
        <time>2010-05-08T19:54:44Z</time>
      </trkpt>
      <trkpt lat="45.23624" lon="4.6438">
        <ele>358.9387512207</ele>
        <time>2010-05-08T19:54:53Z</time>
      </trkpt>
      <trkpt lat="45.23638" lon="4.64405">
        <ele>358.46243286133</ele>
        <time>2010-05-08T19:55:02Z</time>
      </trkpt>
      <trkpt lat="45.23653" lon="4.64421">
        <ele>358.25552368164</ele>
        <time>2010-05-08T19:55:09Z</time>
      </trkpt>
      <trkpt lat="45.23711" lon="4.64466">
        <ele>358.23901367188</ele>
        <time>2010-05-08T19:55:36Z</time>
      </trkpt>
      <trkpt lat="45.23751" lon="4.64476">
        <ele>361.12945556641</ele>
        <time>2010-05-08T19:55:52Z</time>
      </trkpt>
      <trkpt lat="45.23769" lon="4.64488">
        <ele>362.71731567383</ele>
        <time>2010-05-08T19:56:00Z</time>
      </trkpt>
      <trkpt lat="45.23796" lon="4.6452">
        <ele>362.96697998047</ele>
        <time>2010-05-08T19:56:14Z</time>
      </trkpt>
      <trkpt lat="45.23816" lon="4.64559">
        <ele>359.73638916016</ele>
        <time>2010-05-08T19:56:28Z</time>
      </trkpt>
      <trkpt lat="45.2387" lon="4.64621">
        <ele>360.58502197266</ele>
        <time>2010-05-08T19:56:55Z</time>
      </trkpt>
      <trkpt lat="45.239" lon="4.64667">
        <ele>358.54772949219</ele>
        <time>2010-05-08T19:57:13Z</time>
      </trkpt>
      <trkpt lat="45.23911" lon="4.64699">
        <ele>358.35125732422</ele>
        <time>2010-05-08T19:57:23Z</time>
      </trkpt>
      <trkpt lat="45.23916" lon="4.64766">
        <ele>353.42227172852</ele>
        <time>2010-05-08T19:57:42Z</time>
      </trkpt>
      <trkpt lat="45.23922" lon="4.64789">
        <ele>353.00207519531</ele>
        <time>2010-05-08T19:57:49Z</time>
      </trkpt>
      <trkpt lat="45.2396" lon="4.6485">
        <ele>359.45159912109</ele>
        <time>2010-05-08T19:58:12Z</time>
      </trkpt>
      <trkpt lat="45.2398" lon="4.64941">
        <ele>352.31057739258</ele>
        <time>2010-05-08T19:58:39Z</time>
      </trkpt>
      <trkpt lat="45.23991" lon="4.64959">
        <ele>351.49374389648</ele>
        <time>2010-05-08T19:58:46Z</time>
      </trkpt>
      <trkpt lat="45.24038" lon="4.65002">
        <ele>354.02890014648</ele>
        <time>2010-05-08T19:59:08Z</time>
      </trkpt>
      <trkpt lat="45.24054" lon="4.65023">
        <ele>355.56011962891</ele>
        <time>2010-05-08T19:59:17Z</time>
      </trkpt>
      <trkpt lat="45.24072" lon="4.65056">
        <ele>355.84927368164</ele>
        <time>2010-05-08T19:59:28Z</time>
      </trkpt>
      <trkpt lat="45.24126" lon="4.65183">
        <ele>354.31314086914</ele>
        <time>2010-05-08T20:00:10Z</time>
      </trkpt>
      <trkpt lat="45.24132" lon="4.65245">
        <ele>356.38397216797</ele>
        <time>2010-05-08T20:00:28Z</time>
      </trkpt>
      <trkpt lat="45.24128" lon="4.65276">
        <ele>357.51306152344</ele>
        <time>2010-05-08T20:00:37Z</time>
      </trkpt>
      <trkpt lat="45.24089" lon="4.65396">
        <ele>349.99496459961</ele>
        <time>2010-05-08T20:01:14Z</time>
      </trkpt>
      <trkpt lat="45.2409" lon="4.65418">
        <ele>350.24383544922</ele>
        <time>2010-05-08T20:01:20Z</time>
      </trkpt>
      <trkpt lat="45.24095" lon="4.65428">
        <ele>349.65267944336</ele>
        <time>2010-05-08T20:01:24Z</time>
      </trkpt>
      <trkpt lat="45.24164" lon="4.65474">
        <ele>353.07077026367</ele>
        <time>2010-05-08T20:01:54Z</time>
      </trkpt>
      <trkpt lat="45.24209" lon="4.65531">
        <ele>358.91796875</ele>
        <time>2010-05-08T20:02:18Z</time>
      </trkpt>
      <trkpt lat="45.2422" lon="4.65553">
        <ele>360.39047241211</ele>
        <time>2010-05-08T20:02:26Z</time>
      </trkpt>
      <trkpt lat="45.24224" lon="4.65571">
        <ele>359.73318481445</ele>
        <time>2010-05-08T20:02:31Z</time>
      </trkpt>
      <trkpt lat="45.24218" lon="4.65636">
        <ele>353.75442504883</ele>
        <time>2010-05-08T20:02:50Z</time>
      </trkpt>
      <trkpt lat="45.2422" lon="4.65728">
        <ele>354.44128417969</ele>
        <time>2010-05-08T20:03:16Z</time>
      </trkpt>
      <trkpt lat="45.24213" lon="4.65752">
        <ele>352.71932983398</ele>
        <time>2010-05-08T20:03:23Z</time>
      </trkpt>
      <trkpt lat="45.2417" lon="4.65813">
        <ele>352.03210449219</ele>
        <time>2010-05-08T20:03:47Z</time>
      </trkpt>
      <trkpt lat="45.2409" lon="4.65905">
        <ele>354.57733154297</ele>
        <time>2010-05-08T20:04:29Z</time>
      </trkpt>
      <trkpt lat="45.24068" lon="4.65915">
        <ele>353.16979980469</ele>
        <time>2010-05-08T20:04:38Z</time>
      </trkpt>
      <trkpt lat="45.24007" lon="4.6592">
        <ele>344.76141357422</ele>
        <time>2010-05-08T20:05:02Z</time>
      </trkpt>
      <trkpt lat="45.23988" lon="4.6593">
        <ele>343.80633544922</ele>
        <time>2010-05-08T20:05:10Z</time>
      </trkpt>
      <trkpt lat="45.2398" lon="4.65941">
        <ele>344.53359985352</ele>
        <time>2010-05-08T20:05:15Z</time>
      </trkpt>
      <trkpt lat="45.23928" lon="4.66025">
        <ele>344.4333190918</ele>
        <time>2010-05-08T20:05:46Z</time>
      </trkpt>
      <trkpt lat="45.23942" lon="4.66147">
        <ele>349.38168334961</ele>
        <time>2010-05-08T20:06:21Z</time>
      </trkpt>
      <trkpt lat="45.23974" lon="4.66397">
        <ele>356.85586547852</ele>
        <time>2010-05-08T20:07:33Z</time>
      </trkpt>
      <trkpt lat="45.23937" lon="4.66434">
        <ele>345.4167175293</ele>
        <time>2010-05-08T20:07:51Z</time>
      </trkpt>
      <trkpt lat="45.23933" lon="4.66427">
        <ele>343.92269897461</ele>
        <time>2010-05-08T20:07:54Z</time>
      </trkpt>
      <trkpt lat="45.23942" lon="4.66413">
        <ele>346.37490844727</ele>
        <time>2010-05-08T20:07:59Z</time>
      </trkpt>
      <trkpt lat="45.23942" lon="4.66398">
        <ele>345.55474853516</ele>
        <time>2010-05-08T20:08:03Z</time>
      </trkpt>
      <trkpt lat="45.23924" lon="4.6639">
        <ele>338.40228271484</ele>
        <time>2010-05-08T20:08:11Z</time>
      </trkpt>
      <trkpt lat="45.23906" lon="4.66392">
        <ele>334.10668945312</ele>
        <time>2010-05-08T20:08:18Z</time>
      </trkpt>
      <trkpt lat="45.23896" lon="4.66401">
        <ele>332.83129882812</ele>
        <time>2010-05-08T20:08:23Z</time>
      </trkpt>
      <trkpt lat="45.23878" lon="4.66434">
        <ele>330.13150024414</ele>
        <time>2010-05-08T20:08:34Z</time>
      </trkpt>
      <trkpt lat="45.23867" lon="4.66469">
        <ele>328.17541503906</ele>
        <time>2010-05-08T20:08:45Z</time>
      </trkpt>
      <trkpt lat="45.23859" lon="4.66512">
        <ele>326.40975952148</ele>
        <time>2010-05-08T20:08:58Z</time>
      </trkpt>
      <trkpt lat="45.23863" lon="4.66537">
        <ele>327.46994018555</ele>
        <time>2010-05-08T20:09:05Z</time>
      </trkpt>
      <trkpt lat="45.23887" lon="4.66615">
        <ele>331.48272705078</ele>
        <time>2010-05-08T20:09:29Z</time>
      </trkpt>
      <trkpt lat="45.23878" lon="4.66622">
        <ele>328.92492675781</ele>
        <time>2010-05-08T20:09:33Z</time>
      </trkpt>
      <trkpt lat="45.23877" lon="4.66647">
        <ele>327.13607788086</ele>
        <time>2010-05-08T20:09:40Z</time>
      </trkpt>
      <trkpt lat="45.23889" lon="4.66891">
        <ele>321.25860595703</ele>
        <time>2010-05-08T20:10:49Z</time>
      </trkpt>
      <trkpt lat="45.23885" lon="4.6693">
        <ele>318.89047241211</ele>
        <time>2010-05-08T20:11:00Z</time>
      </trkpt>
      <trkpt lat="45.23878" lon="4.6694">
        <ele>317.48583984375</ele>
        <time>2010-05-08T20:11:04Z</time>
      </trkpt>
      <trkpt lat="45.23867" lon="4.66945">
        <ele>315.2033996582</ele>
        <time>2010-05-08T20:11:09Z</time>
      </trkpt>
      <trkpt lat="45.23836" lon="4.66942">
        <ele>308.96130371094</ele>
        <time>2010-05-08T20:11:21Z</time>
      </trkpt>
      <trkpt lat="45.23807" lon="4.66988">
        <ele>308.8623046875</ele>
        <time>2010-05-08T20:11:39Z</time>
      </trkpt>
      <trkpt lat="45.23738" lon="4.67018">
        <ele>310.65454101562</ele>
        <time>2010-05-08T20:12:07Z</time>
      </trkpt>
      <trkpt lat="45.23644" lon="4.67123">
        <ele>313.81616210938</ele>
        <time>2010-05-08T20:12:55Z</time>
      </trkpt>
      <trkpt lat="45.23595" lon="4.67149">
        <ele>314.71038818359</ele>
        <time>2010-05-08T20:13:16Z</time>
      </trkpt>
      <trkpt lat="45.23557" lon="4.6715">
        <ele>321.74017333984</ele>
        <time>2010-05-08T20:13:32Z</time>
      </trkpt>
      <trkpt lat="45.23538" lon="4.67156">
        <ele>325.29745483398</ele>
        <time>2010-05-08T20:13:39Z</time>
      </trkpt>
      <trkpt lat="45.23522" lon="4.67181">
        <ele>324.36572265625</ele>
        <time>2010-05-08T20:13:49Z</time>
      </trkpt>
      <trkpt lat="45.23469" lon="4.67237">
        <ele>319.27908325195</ele>
        <time>2010-05-08T20:14:15Z</time>
      </trkpt>
      <trkpt lat="45.23436" lon="4.67258">
        <ele>320.69607543945</ele>
        <time>2010-05-08T20:14:30Z</time>
      </trkpt>
      <trkpt lat="45.23426" lon="4.67254">
        <ele>323.33532714844</ele>
        <time>2010-05-08T20:14:34Z</time>
      </trkpt>
      <trkpt lat="45.23419" lon="4.67259">
        <ele>323.50128173828</ele>
        <time>2010-05-08T20:14:37Z</time>
      </trkpt>
      <trkpt lat="45.23416" lon="4.67267">
        <ele>322.16229248047</ele>
        <time>2010-05-08T20:14:40Z</time>
      </trkpt>
      <trkpt lat="45.23418" lon="4.6728">
        <ele>318.95346069336</ele>
        <time>2010-05-08T20:14:43Z</time>
      </trkpt>
      <trkpt lat="45.23415" lon="4.67282">
        <ele>318.84393310547</ele>
        <time>2010-05-08T20:14:45Z</time>
      </trkpt>
      <trkpt lat="45.23394" lon="4.67281">
        <ele>320.8268737793</ele>
        <time>2010-05-08T20:14:53Z</time>
      </trkpt>
      <trkpt lat="45.23359" lon="4.67269">
        <ele>325.70538330078</ele>
        <time>2010-05-08T20:15:08Z</time>
      </trkpt>
      <trkpt lat="45.23303" lon="4.67317">
        <ele>330.00823974609</ele>
        <time>2010-05-08T20:15:34Z</time>
      </trkpt>
      <trkpt lat="45.23164" lon="4.67462">
        <ele>329.96966552734</ele>
        <time>2010-05-08T20:16:43Z</time>
      </trkpt>
      <trkpt lat="45.23149" lon="4.67473">
        <ele>328.01452636719</ele>
        <time>2010-05-08T20:16:49Z</time>
      </trkpt>
      <trkpt lat="45.23127" lon="4.67478">
        <ele>329.37344360352</ele>
        <time>2010-05-08T20:16:58Z</time>
      </trkpt>
      <trkpt lat="45.2311" lon="4.67464">
        <ele>333.81927490234</ele>
        <time>2010-05-08T20:17:06Z</time>
      </trkpt>
      <trkpt lat="45.23072" lon="4.67412">
        <ele>340.1686706543</ele>
        <time>2010-05-08T20:17:27Z</time>
      </trkpt>
      <trkpt lat="45.23065" lon="4.67408">
        <ele>340.55029296875</ele>
        <time>2010-05-08T20:17:30Z</time>
      </trkpt>
      <trkpt lat="45.23004" lon="4.6742">
        <ele>334.39743041992</ele>
        <time>2010-05-08T20:17:55Z</time>
      </trkpt>
      <trkpt lat="45.2299" lon="4.67411">
        <ele>333.65249633789</ele>
        <time>2010-05-08T20:18:01Z</time>
      </trkpt>
      <trkpt lat="45.22965" lon="4.67368">
        <ele>338.4709777832</ele>
        <time>2010-05-08T20:18:17Z</time>
      </trkpt>
      <trkpt lat="45.22922" lon="4.67268">
        <ele>351.1833190918</ele>
        <time>2010-05-08T20:18:50Z</time>
      </trkpt>
      <trkpt lat="45.22903" lon="4.67245">
        <ele>354.67681884766</ele>
        <time>2010-05-08T20:19:00Z</time>
      </trkpt>
      <trkpt lat="45.22893" lon="4.67242">
        <ele>355.12442016602</ele>
        <time>2010-05-08T20:19:04Z</time>
      </trkpt>
      <trkpt lat="45.22859" lon="4.67247">
        <ele>352.78741455078</ele>
        <time>2010-05-08T20:19:18Z</time>
      </trkpt>
      <trkpt lat="45.22793" lon="4.67275">
        <ele>346.68426513672</ele>
        <time>2010-05-08T20:19:45Z</time>
      </trkpt>
      <trkpt lat="45.22776" lon="4.67278">
        <ele>347.31719970703</ele>
        <time>2010-05-08T20:19:52Z</time>
      </trkpt>
      <trkpt lat="45.22714" lon="4.67267">
        <ele>358.13339233398</ele>
        <time>2010-05-08T20:20:17Z</time>
      </trkpt>
      <trkpt lat="45.2266" lon="4.67298">
        <ele>352.57040405273</ele>
        <time>2010-05-08T20:20:41Z</time>
      </trkpt>
      <trkpt lat="45.22638" lon="4.67303">
        <ele>352.19873046875</ele>
        <time>2010-05-08T20:20:49Z</time>
      </trkpt>
      <trkpt lat="45.22499" lon="4.67316">
        <ele>356.42443847656</ele>
        <time>2010-05-08T20:21:45Z</time>
      </trkpt>
      <trkpt lat="45.22467" lon="4.67308">
        <ele>359.16430664062</ele>
        <time>2010-05-08T20:21:58Z</time>
      </trkpt>
      <trkpt lat="45.22454" lon="4.67299">
        <ele>361.42248535156</ele>
        <time>2010-05-08T20:22:04Z</time>
      </trkpt>
      <trkpt lat="45.22413" lon="4.67258">
        <ele>368.60781860352</ele>
        <time>2010-05-08T20:22:24Z</time>
      </trkpt>
      <trkpt lat="45.22383" lon="4.6722">
        <ele>372.29870605469</ele>
        <time>2010-05-08T20:22:40Z</time>
      </trkpt>
      <trkpt lat="45.22302" lon="4.67207">
        <ele>371.11376953125</ele>
        <time>2010-05-08T20:23:13Z</time>
      </trkpt>
      <trkpt lat="45.22263" lon="4.67195">
        <ele>370.39404296875</ele>
        <time>2010-05-08T20:23:29Z</time>
      </trkpt>
      <trkpt lat="45.2223" lon="4.67168">
        <ele>370.0068359375</ele>
        <time>2010-05-08T20:23:44Z</time>
      </trkpt>
      <trkpt lat="45.22208" lon="4.67126">
        <ele>371.17266845703</ele>
        <time>2010-05-08T20:23:59Z</time>
      </trkpt>
      <trkpt lat="45.22197" lon="4.67098">
        <ele>371.59994506836</ele>
        <time>2010-05-08T20:24:08Z</time>
      </trkpt>
      <trkpt lat="45.22182" lon="4.67038">
        <ele>371.85330200195</ele>
        <time>2010-05-08T20:24:26Z</time>
      </trkpt>
      <trkpt lat="45.22174" lon="4.6697">
        <ele>372.87222290039</ele>
        <time>2010-05-08T20:24:45Z</time>
      </trkpt>
      <trkpt lat="45.22166" lon="4.66936">
        <ele>373.27099609375</ele>
        <time>2010-05-08T20:24:55Z</time>
      </trkpt>
      <trkpt lat="45.22154" lon="4.66913">
        <ele>373.50054931641</ele>
        <time>2010-05-08T20:25:03Z</time>
      </trkpt>
      <trkpt lat="45.22132" lon="4.66903">
        <ele>372.94049072266</ele>
        <time>2010-05-08T20:25:13Z</time>
      </trkpt>
      <trkpt lat="45.21965" lon="4.66878">
        <ele>371.82669067383</ele>
        <time>2010-05-08T20:26:20Z</time>
      </trkpt>
      <trkpt lat="45.21919" lon="4.66876">
        <ele>371.083984375</ele>
        <time>2010-05-08T20:26:38Z</time>
      </trkpt>
      <trkpt lat="45.21891" lon="4.66881">
        <ele>369.70455932617</ele>
        <time>2010-05-08T20:26:50Z</time>
      </trkpt>
      <trkpt lat="45.21819" lon="4.66919">
        <ele>368.03747558594</ele>
        <time>2010-05-08T20:27:20Z</time>
      </trkpt>
      <trkpt lat="45.21793" lon="4.66943">
        <ele>369.90515136719</ele>
        <time>2010-05-08T20:27:33Z</time>
      </trkpt>
      <trkpt lat="45.21757" lon="4.67018">
        <ele>371.19204711914</ele>
        <time>2010-05-08T20:27:58Z</time>
      </trkpt>
      <trkpt lat="45.21732" lon="4.67046">
        <ele>371.00872802734</ele>
        <time>2010-05-08T20:28:11Z</time>
      </trkpt>
      <trkpt lat="45.21674" lon="4.6708">
        <ele>373.55285644531</ele>
        <time>2010-05-08T20:28:36Z</time>
      </trkpt>
      <trkpt lat="45.21653" lon="4.67085">
        <ele>374.43975830078</ele>
        <time>2010-05-08T20:28:45Z</time>
      </trkpt>
      <trkpt lat="45.21638" lon="4.67084">
        <ele>375.01022338867</ele>
        <time>2010-05-08T20:28:51Z</time>
      </trkpt>
      <trkpt lat="45.2162" lon="4.67075">
        <ele>375.96151733398</ele>
        <time>2010-05-08T20:28:58Z</time>
      </trkpt>
      <trkpt lat="45.21588" lon="4.67031">
        <ele>378.15545654297</ele>
        <time>2010-05-08T20:29:16Z</time>
      </trkpt>
      <trkpt lat="45.21561" lon="4.66982">
        <ele>379.75759887695</ele>
        <time>2010-05-08T20:29:34Z</time>
      </trkpt>
      <trkpt lat="45.21542" lon="4.66966">
        <ele>380.51449584961</ele>
        <time>2010-05-08T20:29:43Z</time>
      </trkpt>
      <trkpt lat="45.21496" lon="4.66966">
        <ele>381.45407104492</ele>
        <time>2010-05-08T20:30:01Z</time>
      </trkpt>
      <trkpt lat="45.21436" lon="4.66988">
        <ele>384.16580200195</ele>
        <time>2010-05-08T20:30:26Z</time>
      </trkpt>
      <trkpt lat="45.21181" lon="4.6707">
        <ele>388.66680908203</ele>
        <time>2010-05-08T20:32:10Z</time>
      </trkpt>
      <trkpt lat="45.21055" lon="4.67143">
        <ele>384.9736328125</ele>
        <time>2010-05-08T20:33:05Z</time>
      </trkpt>
      <trkpt lat="45.20795" lon="4.67282">
        <ele>377.33822631836</ele>
        <time>2010-05-08T20:34:56Z</time>
      </trkpt>
      <trkpt lat="45.20642" lon="4.67255">
        <ele>373.57934570312</ele>
        <time>2010-05-08T20:35:58Z</time>
      </trkpt>
      <trkpt lat="45.2047" lon="4.67155">
        <ele>371.60104370117</ele>
        <time>2010-05-08T20:37:12Z</time>
      </trkpt>
      <trkpt lat="45.20449" lon="4.67151">
        <ele>371.11129760742</ele>
        <time>2010-05-08T20:37:21Z</time>
      </trkpt>
      <trkpt lat="45.20426" lon="4.67156">
        <ele>370.38577270508</ele>
        <time>2010-05-08T20:37:30Z</time>
      </trkpt>
      <trkpt lat="45.20418" lon="4.67163">
        <ele>370.08172607422</ele>
        <time>2010-05-08T20:37:34Z</time>
      </trkpt>
      <trkpt lat="45.20399" lon="4.67196">
        <ele>369.79653930664</ele>
        <time>2010-05-08T20:37:46Z</time>
      </trkpt>
      <trkpt lat="45.20358" lon="4.67288">
        <ele>371.1884765625</ele>
        <time>2010-05-08T20:38:17Z</time>
      </trkpt>
      <trkpt lat="45.20349" lon="4.67323">
        <ele>372.20751953125</ele>
        <time>2010-05-08T20:38:27Z</time>
      </trkpt>
      <trkpt lat="45.2035" lon="4.67381">
        <ele>374.23379516602</ele>
        <time>2010-05-08T20:38:43Z</time>
      </trkpt>
      <trkpt lat="45.20392" lon="4.67711">
        <ele>386.625</ele>
        <time>2010-05-08T20:40:18Z</time>
      </trkpt>
      <trkpt lat="45.20394" lon="4.67758">
        <ele>387.91366577148</ele>
        <time>2010-05-08T20:40:31Z</time>
      </trkpt>
      <trkpt lat="45.20388" lon="4.67792">
        <ele>389.42840576172</ele>
        <time>2010-05-08T20:40:41Z</time>
      </trkpt>
      <trkpt lat="45.20379" lon="4.67818">
        <ele>390.87319946289</ele>
        <time>2010-05-08T20:40:49Z</time>
      </trkpt>
      <trkpt lat="45.20367" lon="4.67839">
        <ele>391.91021728516</ele>
        <time>2010-05-08T20:40:57Z</time>
      </trkpt>
      <trkpt lat="45.20342" lon="4.67867">
        <ele>392.38726806641</ele>
        <time>2010-05-08T20:41:10Z</time>
      </trkpt>
      <trkpt lat="45.20283" lon="4.67922">
        <ele>393.35711669922</ele>
        <time>2010-05-08T20:41:38Z</time>
      </trkpt>
      <trkpt lat="45.20259" lon="4.67938">
        <ele>393.94927978516</ele>
        <time>2010-05-08T20:41:49Z</time>
      </trkpt>
      <trkpt lat="45.20169" lon="4.6797">
        <ele>398.60931396484</ele>
        <time>2010-05-08T20:42:26Z</time>
      </trkpt>
      <trkpt lat="45.20058" lon="4.67998">
        <ele>404.86083984375</ele>
        <time>2010-05-08T20:43:11Z</time>
      </trkpt>
      <trkpt lat="45.20032" lon="4.68014">
        <ele>406.5456237793</ele>
        <time>2010-05-08T20:43:22Z</time>
      </trkpt>
      <trkpt lat="45.20001" lon="4.68047">
        <ele>407.82864379883</ele>
        <time>2010-05-08T20:43:38Z</time>
      </trkpt>
      <trkpt lat="45.1991" lon="4.68245">
        <ele>414.95413208008</ele>
        <time>2010-05-08T20:44:44Z</time>
      </trkpt>
      <trkpt lat="45.19877" lon="4.68306">
        <ele>411.99011230469</ele>
        <time>2010-05-08T20:45:06Z</time>
      </trkpt>
      <trkpt lat="45.19812" lon="4.68349">
        <ele>408.52941894531</ele>
        <time>2010-05-08T20:45:35Z</time>
      </trkpt>
      <trkpt lat="45.19517" lon="4.68486">
        <ele>398.16430664062</ele>
        <time>2010-05-08T20:47:39Z</time>
      </trkpt>
      <trkpt lat="45.19511" lon="4.68477">
        <ele>398.45587158203</ele>
        <time>2010-05-08T20:47:43Z</time>
      </trkpt>
      <trkpt lat="45.19505" lon="4.68476">
        <ele>398.53366088867</ele>
        <time>2010-05-08T20:47:45Z</time>
      </trkpt>
      <trkpt lat="45.19496" lon="4.68486">
        <ele>398.38934326172</ele>
        <time>2010-05-08T20:47:50Z</time>
      </trkpt>
      <trkpt lat="45.19496" lon="4.68495">
        <ele>398.1692199707</ele>
        <time>2010-05-08T20:47:52Z</time>
      </trkpt>
      <trkpt lat="45.19098" lon="4.68682">
        <ele>393.94488525391</ele>
        <time>2010-05-08T20:50:40Z</time>
      </trkpt>
      <trkpt lat="45.19066" lon="4.68691">
        <ele>395.00848388672</ele>
        <time>2010-05-08T20:50:53Z</time>
      </trkpt>
      <trkpt lat="45.18908" lon="4.68708">
        <ele>401.45126342773</ele>
        <time>2010-05-08T20:51:56Z</time>
      </trkpt>
      <trkpt lat="45.18781" lon="4.6876">
        <ele>401.43344116211</ele>
        <time>2010-05-08T20:52:49Z</time>
      </trkpt>
      <trkpt lat="45.18778" lon="4.6889">
        <ele>398.18725585938</ele>
        <time>2010-05-08T20:53:26Z</time>
      </trkpt>
      <trkpt lat="45.18767" lon="4.68948">
        <ele>396.45440673828</ele>
        <time>2010-05-08T20:53:43Z</time>
      </trkpt>
      <trkpt lat="45.1875" lon="4.68978">
        <ele>395.52743530273</ele>
        <time>2010-05-08T20:53:54Z</time>
      </trkpt>
      <trkpt lat="45.18725" lon="4.69008">
        <ele>393.84310913086</ele>
        <time>2010-05-08T20:54:07Z</time>
      </trkpt>
      <trkpt lat="45.18703" lon="4.69024">
        <ele>392.41088867188</ele>
        <time>2010-05-08T20:54:17Z</time>
      </trkpt>
      <trkpt lat="45.18399" lon="4.69101">
        <ele>371.35055541992</ele>
        <time>2010-05-08T20:56:20Z</time>
      </trkpt>
      <trkpt lat="45.18379" lon="4.69099">
        <ele>370.78338623047</ele>
        <time>2010-05-08T20:56:28Z</time>
      </trkpt>
      <trkpt lat="45.18336" lon="4.69082">
        <ele>370.08511352539</ele>
        <time>2010-05-08T20:56:46Z</time>
      </trkpt>
      <trkpt lat="45.183" lon="4.69085">
        <ele>369.12576293945</ele>
        <time>2010-05-08T20:57:01Z</time>
      </trkpt>
      <trkpt lat="45.18028" lon="4.69191">
        <ele>375.75842285156</ele>
        <time>2010-05-08T20:58:54Z</time>
      </trkpt>
      <trkpt lat="45.17974" lon="4.69226">
        <ele>379.53518676758</ele>
        <time>2010-05-08T20:59:17Z</time>
      </trkpt>
      <trkpt lat="45.17875" lon="4.6928">
        <ele>385.92782592773</ele>
        <time>2010-05-08T21:00:00Z</time>
      </trkpt>
      <trkpt lat="45.17846" lon="4.69286">
        <ele>388.19390869141</ele>
        <time>2010-05-08T21:00:12Z</time>
      </trkpt>
      <trkpt lat="45.17812" lon="4.69302">
        <ele>389.88311767578</ele>
        <time>2010-05-08T21:00:26Z</time>
      </trkpt>
      <trkpt lat="45.17743" lon="4.69412">
        <ele>391.22601318359</ele>
        <time>2010-05-08T21:01:08Z</time>
      </trkpt>
      <trkpt lat="45.17623" lon="4.6954">
        <ele>395.88052368164</ele>
        <time>2010-05-08T21:02:08Z</time>
      </trkpt>
      <trkpt lat="45.17582" lon="4.69562">
        <ele>397.54959106445</ele>
        <time>2010-05-08T21:02:25Z</time>
      </trkpt>
      <trkpt lat="45.17558" lon="4.69564">
        <ele>398.14477539062</ele>
        <time>2010-05-08T21:02:35Z</time>
      </trkpt>
      <trkpt lat="45.17496" lon="4.69552">
        <ele>400.15740966797</ele>
        <time>2010-05-08T21:03:00Z</time>
      </trkpt>
      <trkpt lat="45.17457" lon="4.69537">
        <ele>400.89749145508</ele>
        <time>2010-05-08T21:03:16Z</time>
      </trkpt>
      <trkpt lat="45.17157" lon="4.6946">
        <ele>403.84353637695</ele>
        <time>2010-05-08T21:05:18Z</time>
      </trkpt>
      <trkpt lat="45.17024" lon="4.69431">
        <ele>403.90142822266</ele>
        <time>2010-05-08T21:06:12Z</time>
      </trkpt>
      <trkpt lat="45.17008" lon="4.69423">
        <ele>403.98571777344</ele>
        <time>2010-05-08T21:06:19Z</time>
      </trkpt>
      <trkpt lat="45.16873" lon="4.69389">
        <ele>402.80990600586</ele>
        <time>2010-05-08T21:07:14Z</time>
      </trkpt>
      <trkpt lat="45.16887" lon="4.69623">
        <ele>403.65350341797</ele>
        <time>2010-05-08T21:08:20Z</time>
      </trkpt>
      <trkpt lat="45.1691" lon="4.69723">
        <ele>400.99990844727</ele>
        <time>2010-05-08T21:08:50Z</time>
      </trkpt>
      <trkpt lat="45.16927" lon="4.69918">
        <ele>397.87850952148</ele>
        <time>2010-05-08T21:09:45Z</time>
      </trkpt>
      <trkpt lat="45.17045" lon="4.70335">
        <ele>404.00152587891</ele>
        <time>2010-05-08T21:11:52Z</time>
      </trkpt>
      <trkpt lat="45.17146" lon="4.70904">
        <ele>406.02035522461</ele>
        <time>2010-05-08T21:14:37Z</time>
      </trkpt>
      <trkpt lat="45.17155" lon="4.70934">
        <ele>405.65121459961</ele>
        <time>2010-05-08T21:14:47Z</time>
      </trkpt>
      <trkpt lat="45.17243" lon="4.71115">
        <ele>406.63589477539</ele>
        <time>2010-05-08T21:15:49Z</time>
      </trkpt>
      <trkpt lat="45.17254" lon="4.71146">
        <ele>406.41424560547</ele>
        <time>2010-05-08T21:15:58Z</time>
      </trkpt>
      <trkpt lat="45.17512" lon="4.71951">
        <ele>384.32138061523</ele>
        <time>2010-05-08T21:20:08Z</time>
      </trkpt>
      <trkpt lat="45.1753" lon="4.72034">
        <ele>382.69232177734</ele>
        <time>2010-05-08T21:20:32Z</time>
      </trkpt>
      <trkpt lat="45.1754" lon="4.72108">
        <ele>381.35589599609</ele>
        <time>2010-05-08T21:20:54Z</time>
      </trkpt>
      <trkpt lat="45.17549" lon="4.72134">
        <ele>381.07174682617</ele>
        <time>2010-05-08T21:21:02Z</time>
      </trkpt>
      <trkpt lat="45.178" lon="4.72642">
        <ele>378.93978881836</ele>
        <time>2010-05-08T21:23:57Z</time>
      </trkpt>
      <trkpt lat="45.17817" lon="4.72672">
        <ele>378.8723449707</ele>
        <time>2010-05-08T21:24:08Z</time>
      </trkpt>
      <trkpt lat="45.17884" lon="4.72749">
        <ele>377.61087036133</ele>
        <time>2010-05-08T21:24:42Z</time>
      </trkpt>
      <trkpt lat="45.17996" lon="4.72831">
        <ele>379.9221496582</ele>
        <time>2010-05-08T21:25:33Z</time>
      </trkpt>
      <trkpt lat="45.18039" lon="4.72874">
        <ele>380.26010131836</ele>
        <time>2010-05-08T21:25:54Z</time>
      </trkpt>
      <trkpt lat="45.18069" lon="4.72927">
        <ele>379.71759033203</ele>
        <time>2010-05-08T21:26:13Z</time>
      </trkpt>
      <trkpt lat="45.18159" lon="4.73057">
        <ele>378.61138916016</ele>
        <time>2010-05-08T21:27:04Z</time>
      </trkpt>
      <trkpt lat="45.18173" lon="4.73068">
        <ele>378.24130249023</ele>
        <time>2010-05-08T21:27:11Z</time>
      </trkpt>
      <trkpt lat="45.18197" lon="4.73076">
        <ele>377.31646728516</ele>
        <time>2010-05-08T21:27:21Z</time>
      </trkpt>
      <trkpt lat="45.18241" lon="4.73078">
        <ele>376.66760253906</ele>
        <time>2010-05-08T21:27:38Z</time>
      </trkpt>
      <trkpt lat="45.18298" lon="4.73069">
        <ele>378.20404052734</ele>
        <time>2010-05-08T21:28:01Z</time>
      </trkpt>
      <trkpt lat="45.18313" lon="4.73072">
        <ele>378.21905517578</ele>
        <time>2010-05-08T21:28:07Z</time>
      </trkpt>
      <trkpt lat="45.18336" lon="4.73094">
        <ele>377.4743347168</ele>
        <time>2010-05-08T21:28:18Z</time>
      </trkpt>
      <trkpt lat="45.18361" lon="4.73138">
        <ele>376.81378173828</ele>
        <time>2010-05-08T21:28:34Z</time>
      </trkpt>
      <trkpt lat="45.18405" lon="4.73199">
        <ele>376.86804199219</ele>
        <time>2010-05-08T21:28:59Z</time>
      </trkpt>
      <trkpt lat="45.18442" lon="4.73238">
        <ele>375.54983520508</ele>
        <time>2010-05-08T21:29:18Z</time>
      </trkpt>
      <trkpt lat="45.1847" lon="4.73256">
        <ele>375.8391418457</ele>
        <time>2010-05-08T21:29:30Z</time>
      </trkpt>
      <trkpt lat="45.18543" lon="4.73281">
        <ele>376.33123779297</ele>
        <time>2010-05-08T21:30:00Z</time>
      </trkpt>
      <trkpt lat="45.18557" lon="4.73296">
        <ele>375.61624145508</ele>
        <time>2010-05-08T21:30:07Z</time>
      </trkpt>
      <trkpt lat="45.18574" lon="4.7332">
        <ele>374.54699707031</ele>
        <time>2010-05-08T21:30:17Z</time>
      </trkpt>
      <trkpt lat="45.18629" lon="4.73452">
        <ele>374.01428222656</ele>
        <time>2010-05-08T21:31:00Z</time>
      </trkpt>
      <trkpt lat="45.18653" lon="4.73561">
        <ele>375.88650512695</ele>
        <time>2010-05-08T21:31:32Z</time>
      </trkpt>
      <trkpt lat="45.18665" lon="4.73646">
        <ele>376.85946655273</ele>
        <time>2010-05-08T21:31:56Z</time>
      </trkpt>
      <trkpt lat="45.18673" lon="4.73675">
        <ele>376.48867797852</ele>
        <time>2010-05-08T21:32:05Z</time>
      </trkpt>
      <trkpt lat="45.18723" lon="4.73675">
        <ele>374.80978393555</ele>
        <time>2010-05-08T21:32:25Z</time>
      </trkpt>
      <trkpt lat="45.18753" lon="4.73663">
        <ele>373.93579101562</ele>
        <time>2010-05-08T21:32:38Z</time>
      </trkpt>
      <trkpt lat="45.18875" lon="4.73595">
        <ele>371.14541625977</ele>
        <time>2010-05-08T21:33:30Z</time>
      </trkpt>
      <trkpt lat="45.1889" lon="4.73592">
        <ele>370.68145751953</ele>
        <time>2010-05-08T21:33:36Z</time>
      </trkpt>
      <trkpt lat="45.18914" lon="4.73604">
        <ele>369.35827636719</ele>
        <time>2010-05-08T21:33:46Z</time>
      </trkpt>
      <trkpt lat="45.18952" lon="4.73664">
        <ele>367.94839477539</ele>
        <time>2010-05-08T21:34:09Z</time>
      </trkpt>
      <trkpt lat="45.18982" lon="4.7369">
        <ele>367.06945800781</ele>
        <time>2010-05-08T21:34:23Z</time>
      </trkpt>
      <trkpt lat="45.19007" lon="4.73721">
        <ele>365.4528503418</ele>
        <time>2010-05-08T21:34:37Z</time>
      </trkpt>
      <trkpt lat="45.19016" lon="4.73837">
        <ele>359.65930175781</ele>
        <time>2010-05-08T21:35:09Z</time>
      </trkpt>
      <trkpt lat="45.1904" lon="4.73907">
        <ele>358.3332824707</ele>
        <time>2010-05-08T21:35:31Z</time>
      </trkpt>
      <trkpt lat="45.19042" lon="4.74113">
        <ele>349.46463012695</ele>
        <time>2010-05-08T21:36:30Z</time>
      </trkpt>
      <trkpt lat="45.1905" lon="4.74199">
        <ele>346.21368408203</ele>
        <time>2010-05-08T21:36:54Z</time>
      </trkpt>
      <trkpt lat="45.1915" lon="4.74523">
        <ele>336.48345947266</ele>
        <time>2010-05-08T21:38:34Z</time>
      </trkpt>
      <trkpt lat="45.19192" lon="4.74689">
        <ele>337.64608764648</ele>
        <time>2010-05-08T21:39:24Z</time>
      </trkpt>
      <trkpt lat="45.1919" lon="4.74702">
        <ele>337.2848815918</ele>
        <time>2010-05-08T21:39:27Z</time>
      </trkpt>
      <trkpt lat="45.19175" lon="4.74719">
        <ele>334.53588867188</ele>
        <time>2010-05-08T21:39:35Z</time>
      </trkpt>
      <trkpt lat="45.19128" lon="4.74761">
        <ele>329.6418762207</ele>
        <time>2010-05-08T21:39:57Z</time>
      </trkpt>
      <trkpt lat="45.19091" lon="4.74773">
        <ele>325.19586181641</ele>
        <time>2010-05-08T21:40:12Z</time>
      </trkpt>
      <trkpt lat="45.19082" lon="4.74779">
        <ele>323.9465637207</ele>
        <time>2010-05-08T21:40:16Z</time>
      </trkpt>
      <trkpt lat="45.19077" lon="4.74789">
        <ele>322.81854248047</ele>
        <time>2010-05-08T21:40:20Z</time>
      </trkpt>
      <trkpt lat="45.19073" lon="4.7481">
        <ele>322.29528808594</ele>
        <time>2010-05-08T21:40:26Z</time>
      </trkpt>
      <trkpt lat="45.19073" lon="4.74868">
        <ele>322.76580810547</ele>
        <time>2010-05-08T21:40:42Z</time>
      </trkpt>
      <trkpt lat="45.19062" lon="4.74994">
        <ele>310.10510253906</ele>
        <time>2010-05-08T21:41:18Z</time>
      </trkpt>
      <trkpt lat="45.19073" lon="4.75017">
        <ele>311.18643188477</ele>
        <time>2010-05-08T21:41:26Z</time>
      </trkpt>
      <trkpt lat="45.1916" lon="4.75088">
        <ele>315.8352355957</ele>
        <time>2010-05-08T21:42:06Z</time>
      </trkpt>
      <trkpt lat="45.19178" lon="4.75098">
        <ele>315.64453125</ele>
        <time>2010-05-08T21:42:14Z</time>
      </trkpt>
      <trkpt lat="45.19212" lon="4.75105">
        <ele>320.97525024414</ele>
        <time>2010-05-08T21:42:28Z</time>
      </trkpt>
      <trkpt lat="45.19219" lon="4.75112">
        <ele>320.69467163086</ele>
        <time>2010-05-08T21:42:31Z</time>
      </trkpt>
      <trkpt lat="45.19236" lon="4.75166">
        <ele>312.77490234375</ele>
        <time>2010-05-08T21:42:48Z</time>
      </trkpt>
      <trkpt lat="45.19261" lon="4.75217">
        <ele>310.23767089844</ele>
        <time>2010-05-08T21:43:05Z</time>
      </trkpt>
      <trkpt lat="45.19303" lon="4.75344">
        <ele>305.82107543945</ele>
        <time>2010-05-08T21:43:45Z</time>
      </trkpt>
      <trkpt lat="45.19327" lon="4.75384">
        <ele>311.49905395508</ele>
        <time>2010-05-08T21:44:00Z</time>
      </trkpt>
      <trkpt lat="45.19328" lon="4.75394">
        <ele>310.52514648438</ele>
        <time>2010-05-08T21:44:03Z</time>
      </trkpt>
      <trkpt lat="45.19314" lon="4.75449">
        <ele>301.6015625</ele>
        <time>2010-05-08T21:44:19Z</time>
      </trkpt>
      <trkpt lat="45.19315" lon="4.75488">
        <ele>302.76586914062</ele>
        <time>2010-05-08T21:44:30Z</time>
      </trkpt>
      <trkpt lat="45.19309" lon="4.75523">
        <ele>301.49755859375</ele>
        <time>2010-05-08T21:44:40Z</time>
      </trkpt>
      <trkpt lat="45.19295" lon="4.75571">
        <ele>298.24142456055</ele>
        <time>2010-05-08T21:44:55Z</time>
      </trkpt>
      <trkpt lat="45.19273" lon="4.75607">
        <ele>293.455078125</ele>
        <time>2010-05-08T21:45:08Z</time>
      </trkpt>
      <trkpt lat="45.19247" lon="4.75633">
        <ele>288.76565551758</ele>
        <time>2010-05-08T21:45:21Z</time>
      </trkpt>
      <trkpt lat="45.19218" lon="4.75688">
        <ele>297.36840820312</ele>
        <time>2010-05-08T21:45:40Z</time>
      </trkpt>
      <trkpt lat="45.192" lon="4.75693">
        <ele>295.91784667969</ele>
        <time>2010-05-08T21:45:48Z</time>
      </trkpt>
      <trkpt lat="45.19163" lon="4.75667">
        <ele>282.10369873047</ele>
        <time>2010-05-08T21:46:04Z</time>
      </trkpt>
      <trkpt lat="45.19106" lon="4.75658">
        <ele>279.73693847656</ele>
        <time>2010-05-08T21:46:27Z</time>
      </trkpt>
      <trkpt lat="45.1905" lon="4.75653">
        <ele>273.54556274414</ele>
        <time>2010-05-08T21:46:50Z</time>
      </trkpt>
      <trkpt lat="45.19038" lon="4.7566">
        <ele>272.86349487305</ele>
        <time>2010-05-08T21:46:55Z</time>
      </trkpt>
      <trkpt lat="45.19036" lon="4.7567">
        <ele>273.37423706055</ele>
        <time>2010-05-08T21:46:58Z</time>
      </trkpt>
      <trkpt lat="45.19041" lon="4.75687">
        <ele>273.76574707031</ele>
        <time>2010-05-08T21:47:03Z</time>
      </trkpt>
      <trkpt lat="45.19076" lon="4.75715">
        <ele>281.41888427734</ele>
        <time>2010-05-08T21:47:19Z</time>
      </trkpt>
      <trkpt lat="45.19102" lon="4.75755">
        <ele>289.42608642578</ele>
        <time>2010-05-08T21:47:35Z</time>
      </trkpt>
      <trkpt lat="45.19106" lon="4.75776">
        <ele>289.94174194336</ele>
        <time>2010-05-08T21:47:41Z</time>
      </trkpt>
      <trkpt lat="45.19106" lon="4.75806">
        <ele>288.98254394531</ele>
        <time>2010-05-08T21:47:49Z</time>
      </trkpt>
      <trkpt lat="45.19101" lon="4.75843">
        <ele>287.12084960938</ele>
        <time>2010-05-08T21:48:00Z</time>
      </trkpt>
      <trkpt lat="45.19079" lon="4.75885">
        <ele>284.32971191406</ele>
        <time>2010-05-08T21:48:15Z</time>
      </trkpt>
      <trkpt lat="45.19059" lon="4.75899">
        <ele>280.72598266602</ele>
        <time>2010-05-08T21:48:23Z</time>
      </trkpt>
      <trkpt lat="45.18975" lon="4.75924">
        <ele>262.49105834961</ele>
        <time>2010-05-08T21:48:58Z</time>
      </trkpt>
      <trkpt lat="45.18968" lon="4.75929">
        <ele>261.5947265625</ele>
        <time>2010-05-08T21:49:01Z</time>
      </trkpt>
      <trkpt lat="45.18965" lon="4.7594">
        <ele>261.93609619141</ele>
        <time>2010-05-08T21:49:04Z</time>
      </trkpt>
      <trkpt lat="45.18966" lon="4.75954">
        <ele>263.18600463867</ele>
        <time>2010-05-08T21:49:08Z</time>
      </trkpt>
      <trkpt lat="45.19001" lon="4.76022">
        <ele>275.86734008789</ele>
        <time>2010-05-08T21:49:32Z</time>
      </trkpt>
      <trkpt lat="45.19009" lon="4.7605">
        <ele>277.7721862793</ele>
        <time>2010-05-08T21:49:41Z</time>
      </trkpt>
      <trkpt lat="45.19004" lon="4.76095">
        <ele>272.70227050781</ele>
        <time>2010-05-08T21:49:53Z</time>
      </trkpt>
      <trkpt lat="45.18993" lon="4.76134">
        <ele>268.83142089844</ele>
        <time>2010-05-08T21:50:05Z</time>
      </trkpt>
      <trkpt lat="45.1899" lon="4.76161">
        <ele>268.21795654297</ele>
        <time>2010-05-08T21:50:13Z</time>
      </trkpt>
      <trkpt lat="45.18996" lon="4.76229">
        <ele>261.52825927734</ele>
        <time>2010-05-08T21:50:32Z</time>
      </trkpt>
      <trkpt lat="45.19002" lon="4.7626">
        <ele>258.83013916016</ele>
        <time>2010-05-08T21:50:41Z</time>
      </trkpt>
      <trkpt lat="45.19043" lon="4.76344">
        <ele>268.42974853516</ele>
        <time>2010-05-08T21:51:10Z</time>
      </trkpt>
      <trkpt lat="45.19047" lon="4.76373">
        <ele>268.49258422852</ele>
        <time>2010-05-08T21:51:18Z</time>
      </trkpt>
      <trkpt lat="45.19045" lon="4.76464">
        <ele>263.10955810547</ele>
        <time>2010-05-08T21:51:44Z</time>
      </trkpt>
      <trkpt lat="45.19027" lon="4.76512">
        <ele>253.50804138184</ele>
        <time>2010-05-08T21:52:00Z</time>
      </trkpt>
      <trkpt lat="45.19029" lon="4.76567">
        <ele>255.46330261231</ele>
        <time>2010-05-08T21:52:15Z</time>
      </trkpt>
      <trkpt lat="45.19026" lon="4.76586">
        <ele>254.57769775391</ele>
        <time>2010-05-08T21:52:21Z</time>
      </trkpt>
      <trkpt lat="45.1898" lon="4.76656">
        <ele>245.4485168457</ele>
        <time>2010-05-08T21:52:48Z</time>
      </trkpt>
      <trkpt lat="45.18977" lon="4.76693">
        <ele>245.21907043457</ele>
        <time>2010-05-08T21:52:58Z</time>
      </trkpt>
      <trkpt lat="45.18981" lon="4.7671">
        <ele>244.48056030273</ele>
        <time>2010-05-08T21:53:03Z</time>
      </trkpt>
      <trkpt lat="45.18992" lon="4.76723">
        <ele>242.27760314941</ele>
        <time>2010-05-08T21:53:09Z</time>
      </trkpt>
      <trkpt lat="45.19048" lon="4.76741">
        <ele>239.33277893066</ele>
        <time>2010-05-08T21:53:32Z</time>
      </trkpt>
      <trkpt lat="45.19096" lon="4.76745">
        <ele>238.65090942383</ele>
        <time>2010-05-08T21:53:51Z</time>
      </trkpt>
      <trkpt lat="45.19128" lon="4.76738">
        <ele>241.44816589356</ele>
        <time>2010-05-08T21:54:04Z</time>
      </trkpt>
      <trkpt lat="45.19159" lon="4.7674">
        <ele>241.44792175293</ele>
        <time>2010-05-08T21:54:16Z</time>
      </trkpt>
      <trkpt lat="45.19184" lon="4.76748">
        <ele>242.52233886719</ele>
        <time>2010-05-08T21:54:27Z</time>
      </trkpt>
      <trkpt lat="45.19213" lon="4.7677">
        <ele>244.63972473144</ele>
        <time>2010-05-08T21:54:40Z</time>
      </trkpt>
      <trkpt lat="45.19225" lon="4.76801">
        <ele>241.77066040039</ele>
        <time>2010-05-08T21:54:50Z</time>
      </trkpt>
      <trkpt lat="45.19228" lon="4.7688">
        <ele>236.65640258789</ele>
        <time>2010-05-08T21:55:12Z</time>
      </trkpt>
      <trkpt lat="45.19225" lon="4.76907">
        <ele>236.10034179688</ele>
        <time>2010-05-08T21:55:20Z</time>
      </trkpt>
      <trkpt lat="45.19213" lon="4.76936">
        <ele>236.69792175293</ele>
        <time>2010-05-08T21:55:29Z</time>
      </trkpt>
      <trkpt lat="45.19172" lon="4.77002">
        <ele>233.88565063477</ele>
        <time>2010-05-08T21:55:54Z</time>
      </trkpt>
      <trkpt lat="45.19161" lon="4.77032">
        <ele>239.40174865723</ele>
        <time>2010-05-08T21:56:04Z</time>
      </trkpt>
      <trkpt lat="45.19148" lon="4.77044">
        <ele>241.82266235352</ele>
        <time>2010-05-08T21:56:10Z</time>
      </trkpt>
      <trkpt lat="45.19111" lon="4.77063">
        <ele>240.59819030762</ele>
        <time>2010-05-08T21:56:26Z</time>
      </trkpt>
      <trkpt lat="45.19077" lon="4.77106">
        <ele>233.19648742676</ele>
        <time>2010-05-08T21:56:44Z</time>
      </trkpt>
      <trkpt lat="45.19049" lon="4.77126">
        <ele>240.79029846191</ele>
        <time>2010-05-08T21:56:56Z</time>
      </trkpt>
      <trkpt lat="45.19019" lon="4.77194">
        <ele>243.00604248047</ele>
        <time>2010-05-08T21:57:19Z</time>
      </trkpt>
      <trkpt lat="45.19018" lon="4.77221">
        <ele>241.939453125</ele>
        <time>2010-05-08T21:57:27Z</time>
      </trkpt>
      <trkpt lat="45.19028" lon="4.77257">
        <ele>238.29878234863</ele>
        <time>2010-05-08T21:57:38Z</time>
      </trkpt>
      <trkpt lat="45.19089" lon="4.77396">
        <ele>227.19206237793</ele>
        <time>2010-05-08T21:58:24Z</time>
      </trkpt>
      <trkpt lat="45.19092" lon="4.77438">
        <ele>228.10186767578</ele>
        <time>2010-05-08T21:58:36Z</time>
      </trkpt>
      <trkpt lat="45.19079" lon="4.77477">
        <ele>232.61531066894</ele>
        <time>2010-05-08T21:58:48Z</time>
      </trkpt>
      <trkpt lat="45.19084" lon="4.77517">
        <ele>231.80700683594</ele>
        <time>2010-05-08T21:58:59Z</time>
      </trkpt>
      <trkpt lat="45.19099" lon="4.7757">
        <ele>231.04762268066</ele>
        <time>2010-05-08T21:59:15Z</time>
      </trkpt>
      <trkpt lat="45.19168" lon="4.77695">
        <ele>211.47892761231</ele>
        <time>2010-05-08T22:00:00Z</time>
      </trkpt>
      <trkpt lat="45.19249" lon="4.7778">
        <ele>195.79136657715</ele>
        <time>2010-05-08T22:00:41Z</time>
      </trkpt>
      <trkpt lat="45.19265" lon="4.77816">
        <ele>200.3165435791</ele>
        <time>2010-05-08T22:00:53Z</time>
      </trkpt>
      <trkpt lat="45.19268" lon="4.77883">
        <ele>207.08653259277</ele>
        <time>2010-05-08T22:01:12Z</time>
      </trkpt>
      <trkpt lat="45.19262" lon="4.77994">
        <ele>214.67529296875</ele>
        <time>2010-05-08T22:01:43Z</time>
      </trkpt>
      <trkpt lat="45.19279" lon="4.78145">
        <ele>195.30474853516</ele>
        <time>2010-05-08T22:02:26Z</time>
      </trkpt>
      <trkpt lat="45.19273" lon="4.7819">
        <ele>189.1925201416</ele>
        <time>2010-05-08T22:02:39Z</time>
      </trkpt>
      <trkpt lat="45.19261" lon="4.78217">
        <ele>184.87733459473</ele>
        <time>2010-05-08T22:02:48Z</time>
      </trkpt>
      <trkpt lat="45.19237" lon="4.78244">
        <ele>184.71212768555</ele>
        <time>2010-05-08T22:03:00Z</time>
      </trkpt>
      <trkpt lat="45.1917" lon="4.78294">
        <ele>191.27725219727</ele>
        <time>2010-05-08T22:03:31Z</time>
      </trkpt>
      <trkpt lat="45.19101" lon="4.78389">
        <ele>188.71728515625</ele>
        <time>2010-05-08T22:04:09Z</time>
      </trkpt>
      <trkpt lat="45.19098" lon="4.78408">
        <ele>187.58944702148</ele>
        <time>2010-05-08T22:04:15Z</time>
      </trkpt>
      <trkpt lat="45.19119" lon="4.78511">
        <ele>179.79469299316</ele>
        <time>2010-05-08T22:04:45Z</time>
      </trkpt>
      <trkpt lat="45.19126" lon="4.78646">
        <ele>178.50090026856</ele>
        <time>2010-05-08T22:05:23Z</time>
      </trkpt>
      <trkpt lat="45.1913" lon="4.7867">
        <ele>177.0380859375</ele>
        <time>2010-05-08T22:05:30Z</time>
      </trkpt>
      <trkpt lat="45.1915" lon="4.7873">
        <ele>172.29884338379</ele>
        <time>2010-05-08T22:05:49Z</time>
      </trkpt>
      <trkpt lat="45.19199" lon="4.78802">
        <ele>164.81103515625</ele>
        <time>2010-05-08T22:06:17Z</time>
      </trkpt>
      <trkpt lat="45.19205" lon="4.78817">
        <ele>164.48161315918</ele>
        <time>2010-05-08T22:06:22Z</time>
      </trkpt>
      <trkpt lat="45.1921" lon="4.78863">
        <ele>165.13999938965</ele>
        <time>2010-05-08T22:06:35Z</time>
      </trkpt>
      <trkpt lat="45.19206" lon="4.78924">
        <ele>168.05696105957</ele>
        <time>2010-05-08T22:06:52Z</time>
      </trkpt>
      <trkpt lat="45.19182" lon="4.78986">
        <ele>172.69239807129</ele>
        <time>2010-05-08T22:07:12Z</time>
      </trkpt>
      <trkpt lat="45.19174" lon="4.79037">
        <ele>166.40086364746</ele>
        <time>2010-05-08T22:07:27Z</time>
      </trkpt>
      <trkpt lat="45.1913" lon="4.7913">
        <ele>163.27243041992</ele>
        <time>2010-05-08T22:07:59Z</time>
      </trkpt>
      <trkpt lat="45.19126" lon="4.79193">
        <ele>158.51513671875</ele>
        <time>2010-05-08T22:08:16Z</time>
      </trkpt>
      <trkpt lat="45.19119" lon="4.79259">
        <ele>155.95545959473</ele>
        <time>2010-05-08T22:08:35Z</time>
      </trkpt>
      <trkpt lat="45.19103" lon="4.79297">
        <ele>157.58750915527</ele>
        <time>2010-05-08T22:08:48Z</time>
      </trkpt>
      <trkpt lat="45.1909" lon="4.79383">
        <ele>148.17176818848</ele>
        <time>2010-05-08T22:09:12Z</time>
      </trkpt>
      <trkpt lat="45.19076" lon="4.79438">
        <ele>142.98432922363</ele>
        <time>2010-05-08T22:09:29Z</time>
      </trkpt>
      <trkpt lat="45.19067" lon="4.79524">
        <ele>138.24694824219</ele>
        <time>2010-05-08T22:09:54Z</time>
      </trkpt>
      <trkpt lat="45.1906" lon="4.79547">
        <ele>137.49865722656</ele>
        <time>2010-05-08T22:10:01Z</time>
      </trkpt>
      <trkpt lat="45.19045" lon="4.79573">
        <ele>136.97436523438</ele>
        <time>2010-05-08T22:10:10Z</time>
      </trkpt>
      <trkpt lat="45.19021" lon="4.79602">
        <ele>136.85334777832</ele>
        <time>2010-05-08T22:10:23Z</time>
      </trkpt>
      <trkpt lat="45.19009" lon="4.79612">
        <ele>136.88691711426</ele>
        <time>2010-05-08T22:10:28Z</time>
      </trkpt>
      <trkpt lat="45.18999" lon="4.79614">
        <ele>137.18328857422</ele>
        <time>2010-05-08T22:10:32Z</time>
      </trkpt>
      <trkpt lat="45.18706" lon="4.79623">
        <ele>141.34469604492</ele>
        <time>2010-05-08T22:12:30Z</time>
      </trkpt>
      <trkpt lat="45.1867" lon="4.79624">
        <ele>141.49517822266</ele>
        <time>2010-05-08T22:12:44Z</time>
      </trkpt>
      <trkpt lat="45.18657" lon="4.79818">
        <ele>138.26988220215</ele>
        <time>2010-05-08T22:13:39Z</time>
      </trkpt>
      <trkpt lat="45.18656" lon="4.79915">
        <ele>136.04002380371</ele>
        <time>2010-05-08T22:14:06Z</time>
      </trkpt>
      <trkpt lat="45.1866" lon="4.79994">
        <ele>134.21829223633</ele>
        <time>2010-05-08T22:14:29Z</time>
      </trkpt>
      <trkpt lat="45.18659" lon="4.80093">
        <ele>133.7897644043</ele>
        <time>2010-05-08T22:14:57Z</time>
      </trkpt>
      <trkpt lat="45.18657" lon="4.80119">
        <ele>133.24432373047</ele>
        <time>2010-05-08T22:15:04Z</time>
      </trkpt>
      <trkpt lat="45.18649" lon="4.80149">
        <ele>132.76013183594</ele>
        <time>2010-05-08T22:15:13Z</time>
      </trkpt>
      <trkpt lat="45.18532" lon="4.80431">
        <ele>129.42527770996</ele>
        <time>2010-05-08T22:16:45Z</time>
      </trkpt>
      <trkpt lat="45.1841" lon="4.80741">
        <ele>129.02961730957</ele>
        <time>2010-05-08T22:18:26Z</time>
      </trkpt>
      <trkpt lat="45.18397" lon="4.8074">
        <ele>128.88542175293</ele>
        <time>2010-05-08T22:18:31Z</time>
      </trkpt>
      <trkpt lat="45.18386" lon="4.80755">
        <ele>128.65493774414</ele>
        <time>2010-05-08T22:18:37Z</time>
      </trkpt>
      <trkpt lat="45.18386" lon="4.80766">
        <ele>128.70346069336</ele>
        <time>2010-05-08T22:18:40Z</time>
      </trkpt>
      <trkpt lat="45.18394" lon="4.8078">
        <ele>128.82653808594</ele>
        <time>2010-05-08T22:18:45Z</time>
      </trkpt>
      <trkpt lat="45.18379" lon="4.80825">
        <ele>128.95457458496</ele>
        <time>2010-05-08T22:18:59Z</time>
      </trkpt>
      <trkpt lat="45.18372" lon="4.80887">
        <ele>129.69071960449</ele>
        <time>2010-05-08T22:19:17Z</time>
      </trkpt>
      <trkpt lat="45.1837" lon="4.8095">
        <ele>130.91917419434</ele>
        <time>2010-05-08T22:19:35Z</time>
      </trkpt>
      <trkpt lat="45.18375" lon="4.81008">
        <ele>131.85548400879</ele>
        <time>2010-05-08T22:19:51Z</time>
      </trkpt>
      <trkpt lat="45.18425" lon="4.81345">
        <ele>129.53605651856</ele>
        <time>2010-05-08T22:21:28Z</time>
      </trkpt>
      <trkpt lat="45.18426" lon="4.81383">
        <ele>132.64961242676</ele>
        <time>2010-05-08T22:21:39Z</time>
      </trkpt>
      <trkpt lat="45.18418" lon="4.81386">
        <ele>132.49513244629</ele>
        <time>2010-05-08T22:21:42Z</time>
      </trkpt>
      <trkpt lat="45.18416" lon="4.81393">
        <ele>133.00512695312</ele>
        <time>2010-05-08T22:21:44Z</time>
      </trkpt>
      <trkpt lat="45.18378" lon="4.81388">
        <ele>132.28788757324</ele>
        <time>2010-05-08T22:22:00Z</time>
      </trkpt>
      <trkpt lat="45.18184" lon="4.81414">
        <ele>133.98146057129</ele>
        <time>2010-05-08T22:23:18Z</time>
      </trkpt>
      <trkpt lat="45.18145" lon="4.81415">
        <ele>134.62344360352</ele>
        <time>2010-05-08T22:23:33Z</time>
      </trkpt>
      <trkpt lat="45.18022" lon="4.814">
        <ele>135.29498291016</ele>
        <time>2010-05-08T22:24:23Z</time>
      </trkpt>
      <trkpt lat="45.17866" lon="4.81346">
        <ele>130.12054443359</ele>
        <time>2010-05-08T22:25:27Z</time>
      </trkpt>
      <trkpt lat="45.17829" lon="4.81338">
        <ele>129.22006225586</ele>
        <time>2010-05-08T22:25:42Z</time>
      </trkpt>
      <trkpt lat="45.17753" lon="4.81337">
        <ele>129.13432312012</ele>
        <time>2010-05-08T22:26:12Z</time>
      </trkpt>
      <trkpt lat="45.17687" lon="4.81352">
        <ele>129.33239746094</ele>
        <time>2010-05-08T22:26:39Z</time>
      </trkpt>
      <trkpt lat="45.17724" lon="4.81419">
        <ele>131.37068176269</ele>
        <time>2010-05-08T22:27:03Z</time>
      </trkpt>
      <trkpt lat="45.17732" lon="4.81447">
        <ele>131.43840026856</ele>
        <time>2010-05-08T22:27:12Z</time>
      </trkpt>
      <trkpt lat="45.17728" lon="4.81458">
        <ele>131.36911010742</ele>
        <time>2010-05-08T22:27:15Z</time>
      </trkpt>
      <trkpt lat="45.1764" lon="4.8155">
        <ele>130.62995910644</ele>
        <time>2010-05-08T22:27:59Z</time>
      </trkpt>
      <trkpt lat="45.17647" lon="4.81577">
        <ele>130.59019470215</ele>
        <time>2010-05-08T22:28:07Z</time>
      </trkpt>
      <trkpt lat="45.17621" lon="4.81586">
        <ele>129.94960021973</ele>
        <time>2010-05-08T22:28:18Z</time>
      </trkpt>
      <trkpt lat="45.17605" lon="4.81601">
        <ele>129.88517761231</ele>
        <time>2010-05-08T22:28:26Z</time>
      </trkpt>
      <trkpt lat="45.17483" lon="4.81792">
        <ele>129.90647888184</ele>
        <time>2010-05-08T22:29:38Z</time>
      </trkpt>
      <trkpt lat="45.17459" lon="4.81809">
        <ele>130.0684967041</ele>
        <time>2010-05-08T22:29:49Z</time>
      </trkpt>
      <trkpt lat="45.17092" lon="4.82002">
        <ele>128.46827697754</ele>
        <time>2010-05-08T22:32:26Z</time>
      </trkpt>
      <trkpt lat="45.17047" lon="4.82057">
        <ele>128.63616943359</ele>
        <time>2010-05-08T22:32:49Z</time>
      </trkpt>
      <trkpt lat="45.17036" lon="4.82045">
        <ele>128.20602416992</ele>
        <time>2010-05-08T22:32:55Z</time>
      </trkpt>
      <trkpt lat="45.1702" lon="4.82046">
        <ele>127.92489624023</ele>
        <time>2010-05-08T22:33:01Z</time>
      </trkpt>
      <trkpt lat="45.1701" lon="4.82064">
        <ele>127.98274993897</ele>
        <time>2010-05-08T22:33:08Z</time>
      </trkpt>
      <trkpt lat="45.1701" lon="4.82074">
        <ele>128.11750793457</ele>
        <time>2010-05-08T22:33:11Z</time>
      </trkpt>
      <trkpt lat="45.17018" lon="4.82085">
        <ele>128.54133605957</ele>
        <time>2010-05-08T22:33:15Z</time>
      </trkpt>
      <trkpt lat="45.1704" lon="4.82087">
        <ele>129.15733337402</ele>
        <time>2010-05-08T22:33:24Z</time>
      </trkpt>
      <trkpt lat="45.17079" lon="4.8213">
        <ele>131.66409301758</ele>
        <time>2010-05-08T22:33:44Z</time>
      </trkpt>
      <trkpt lat="45.17161" lon="4.822">
        <ele>143.27351379394</ele>
        <time>2010-05-08T22:34:22Z</time>
      </trkpt>
      <trkpt lat="45.17245" lon="4.82324">
        <ele>160.46626281738</ele>
        <time>2010-05-08T22:35:11Z</time>
      </trkpt>
      <trkpt lat="45.17282" lon="4.82352">
        <ele>149.72077941894</ele>
        <time>2010-05-08T22:35:27Z</time>
      </trkpt>
      <trkpt lat="45.17278" lon="4.82371">
        <ele>148.30465698242</ele>
        <time>2010-05-08T22:35:33Z</time>
      </trkpt>
      <trkpt lat="45.1728" lon="4.82378">
        <ele>147.09124755859</ele>
        <time>2010-05-08T22:35:35Z</time>
      </trkpt>
      <trkpt lat="45.17316" lon="4.82415">
        <ele>138.1784362793</ele>
        <time>2010-05-08T22:35:53Z</time>
      </trkpt>
      <trkpt lat="45.17339" lon="4.82472">
        <ele>137.96903991699</ele>
        <time>2010-05-08T22:36:11Z</time>
      </trkpt>
      <trkpt lat="45.17395" lon="4.82555">
        <ele>144.87252807617</ele>
        <time>2010-05-08T22:36:44Z</time>
      </trkpt>
      <trkpt lat="45.17414" lon="4.82591">
        <ele>144.60942077637</ele>
        <time>2010-05-08T22:36:57Z</time>
      </trkpt>
      <trkpt lat="45.17422" lon="4.82632">
        <ele>146.22636413574</ele>
        <time>2010-05-08T22:37:09Z</time>
      </trkpt>
      <trkpt lat="45.17418" lon="4.82688">
        <ele>145.39102172852</ele>
        <time>2010-05-08T22:37:24Z</time>
      </trkpt>
      <trkpt lat="45.17385" lon="4.82799">
        <ele>160.85568237305</ele>
        <time>2010-05-08T22:37:58Z</time>
      </trkpt>
      <trkpt lat="45.17365" lon="4.82883">
        <ele>170.20533752441</ele>
        <time>2010-05-08T22:38:23Z</time>
      </trkpt>
      <trkpt lat="45.17368" lon="4.82906">
        <ele>168.48759460449</ele>
        <time>2010-05-08T22:38:30Z</time>
      </trkpt>
      <trkpt lat="45.17379" lon="4.82929">
        <ele>165.08474731445</ele>
        <time>2010-05-08T22:38:38Z</time>
      </trkpt>
      <trkpt lat="45.17415" lon="4.82985">
        <ele>157.33462524414</ele>
        <time>2010-05-08T22:38:59Z</time>
      </trkpt>
      <trkpt lat="45.17463" lon="4.83014">
        <ele>160.79913330078</ele>
        <time>2010-05-08T22:39:20Z</time>
      </trkpt>
      <trkpt lat="45.17482" lon="4.83014">
        <ele>159.04504394531</ele>
        <time>2010-05-08T22:39:28Z</time>
      </trkpt>
      <trkpt lat="45.17563" lon="4.82996">
        <ele>154.15692138672</ele>
        <time>2010-05-08T22:40:01Z</time>
      </trkpt>
      <trkpt lat="45.17649" lon="4.82961">
        <ele>149.0262298584</ele>
        <time>2010-05-08T22:40:36Z</time>
      </trkpt>
      <trkpt lat="45.17668" lon="4.82963">
        <ele>149.15501403809</ele>
        <time>2010-05-08T22:40:44Z</time>
      </trkpt>
      <trkpt lat="45.17683" lon="4.82971">
        <ele>149.34980773926</ele>
        <time>2010-05-08T22:40:50Z</time>
      </trkpt>
      <trkpt lat="45.1769" lon="4.82981">
        <ele>149.83638000488</ele>
        <time>2010-05-08T22:40:54Z</time>
      </trkpt>
      <trkpt lat="45.177" lon="4.83018">
        <ele>153.04708862305</ele>
        <time>2010-05-08T22:41:06Z</time>
      </trkpt>
      <trkpt lat="45.17713" lon="4.8314">
        <ele>166.49531555176</ele>
        <time>2010-05-08T22:41:40Z</time>
      </trkpt>
      <trkpt lat="45.17779" lon="4.83321">
        <ele>164.56350708008</ele>
        <time>2010-05-08T22:42:38Z</time>
      </trkpt>
      <trkpt lat="45.17799" lon="4.83345">
        <ele>162.68675231934</ele>
        <time>2010-05-08T22:42:48Z</time>
      </trkpt>
      <trkpt lat="45.17833" lon="4.83349">
        <ele>153.30836486816</ele>
        <time>2010-05-08T22:43:02Z</time>
      </trkpt>
      <trkpt lat="45.17867" lon="4.83345">
        <ele>152.32043457031</ele>
        <time>2010-05-08T22:43:16Z</time>
      </trkpt>
      <trkpt lat="45.17956" lon="4.833">
        <ele>151.81292724609</ele>
        <time>2010-05-08T22:43:54Z</time>
      </trkpt>
      <trkpt lat="45.17983" lon="4.83301">
        <ele>154.13926696777</ele>
        <time>2010-05-08T22:44:04Z</time>
      </trkpt>
      <trkpt lat="45.18004" lon="4.83319">
        <ele>156.37818908691</ele>
        <time>2010-05-08T22:44:14Z</time>
      </trkpt>
      <trkpt lat="45.18041" lon="4.83364">
        <ele>163.27734375</ele>
        <time>2010-05-08T22:44:34Z</time>
      </trkpt>
      <trkpt lat="45.18102" lon="4.83458">
        <ele>165.10537719727</ele>
        <time>2010-05-08T22:45:10Z</time>
      </trkpt>
      <trkpt lat="45.18104" lon="4.83473">
        <ele>166.11047363281</ele>
        <time>2010-05-08T22:45:14Z</time>
      </trkpt>
      <trkpt lat="45.18096" lon="4.83496">
        <ele>165.6551361084</ele>
        <time>2010-05-08T22:45:21Z</time>
      </trkpt>
      <trkpt lat="45.18021" lon="4.83573">
        <ele>175.98083496094</ele>
        <time>2010-05-08T22:45:58Z</time>
      </trkpt>
      <trkpt lat="45.1797" lon="4.83665">
        <ele>173.16047668457</ele>
        <time>2010-05-08T22:46:31Z</time>
      </trkpt>
      <trkpt lat="45.17929" lon="4.83799">
        <ele>172.86903381348</ele>
        <time>2010-05-08T22:47:13Z</time>
      </trkpt>
      <trkpt lat="45.179" lon="4.83933">
        <ele>178.57270812988</ele>
        <time>2010-05-08T22:47:52Z</time>
      </trkpt>
      <trkpt lat="45.17894" lon="4.8421">
        <ele>177.20353698731</ele>
        <time>2010-05-08T22:49:10Z</time>
      </trkpt>
      <trkpt lat="45.17867" lon="4.84284">
        <ele>182.9580078125</ele>
        <time>2010-05-08T22:49:34Z</time>
      </trkpt>
      <trkpt lat="45.17863" lon="4.84311">
        <ele>183.11433410644</ele>
        <time>2010-05-08T22:49:42Z</time>
      </trkpt>
      <trkpt lat="45.17862" lon="4.84398">
        <ele>182.388671875</ele>
        <time>2010-05-08T22:50:06Z</time>
      </trkpt>
      <trkpt lat="45.17871" lon="4.84467">
        <ele>180.24647521973</ele>
        <time>2010-05-08T22:50:26Z</time>
      </trkpt>
      <trkpt lat="45.17912" lon="4.84584">
        <ele>172.59309387207</ele>
        <time>2010-05-08T22:51:03Z</time>
      </trkpt>
      <trkpt lat="45.17967" lon="4.84719">
        <ele>185.14263916016</ele>
        <time>2010-05-08T22:51:47Z</time>
      </trkpt>
      <trkpt lat="45.17975" lon="4.84751">
        <ele>184.91215515137</ele>
        <time>2010-05-08T22:51:56Z</time>
      </trkpt>
      <trkpt lat="45.17979" lon="4.84822">
        <ele>185.87864685059</ele>
        <time>2010-05-08T22:52:17Z</time>
      </trkpt>
      <trkpt lat="45.17973" lon="4.84936">
        <ele>189.59501647949</ele>
        <time>2010-05-08T22:52:49Z</time>
      </trkpt>
      <trkpt lat="45.17965" lon="4.85083">
        <ele>180.24546813965</ele>
        <time>2010-05-08T22:53:30Z</time>
      </trkpt>
      <trkpt lat="45.17961" lon="4.85098">
        <ele>179.87818908691</ele>
        <time>2010-05-08T22:53:35Z</time>
      </trkpt>
      <trkpt lat="45.17918" lon="4.85164">
        <ele>178.41572570801</ele>
        <time>2010-05-08T22:54:00Z</time>
      </trkpt>
      <trkpt lat="45.17876" lon="4.85207">
        <ele>185.76664733887</ele>
        <time>2010-05-08T22:54:21Z</time>
      </trkpt>
      <trkpt lat="45.17869" lon="4.85229">
        <ele>186.64167785644</ele>
        <time>2010-05-08T22:54:28Z</time>
      </trkpt>
      <trkpt lat="45.1786" lon="4.8528">
        <ele>190.67977905273</ele>
        <time>2010-05-08T22:54:43Z</time>
      </trkpt>
      <trkpt lat="45.1786" lon="4.85327">
        <ele>193.76924133301</ele>
        <time>2010-05-08T22:54:56Z</time>
      </trkpt>
      <trkpt lat="45.17864" lon="4.85365">
        <ele>193.35516357422</ele>
        <time>2010-05-08T22:55:07Z</time>
      </trkpt>
      <trkpt lat="45.17881" lon="4.8545">
        <ele>185.28709411621</ele>
        <time>2010-05-08T22:55:32Z</time>
      </trkpt>
      <trkpt lat="45.17878" lon="4.85482">
        <ele>185.4397277832</ele>
        <time>2010-05-08T22:55:41Z</time>
      </trkpt>
      <trkpt lat="45.17871" lon="4.85508">
        <ele>186.48709106445</ele>
        <time>2010-05-08T22:55:49Z</time>
      </trkpt>
      <trkpt lat="45.17854" lon="4.85546">
        <ele>185.82064819336</ele>
        <time>2010-05-08T22:56:01Z</time>
      </trkpt>
      <trkpt lat="45.17795" lon="4.85625">
        <ele>179.99858093262</ele>
        <time>2010-05-08T22:56:34Z</time>
      </trkpt>
      <trkpt lat="45.17759" lon="4.85662">
        <ele>173.80119323731</ele>
        <time>2010-05-08T22:56:52Z</time>
      </trkpt>
      <trkpt lat="45.17642" lon="4.85743">
        <ele>177.76878356934</ele>
        <time>2010-05-08T22:57:44Z</time>
      </trkpt>
      <trkpt lat="45.17625" lon="4.85762">
        <ele>177.69540405273</ele>
        <time>2010-05-08T22:57:52Z</time>
      </trkpt>
      <trkpt lat="45.17585" lon="4.85871">
        <ele>165.71931457519</ele>
        <time>2010-05-08T22:58:27Z</time>
      </trkpt>
      <trkpt lat="45.17547" lon="4.85957">
        <ele>166.36512756348</ele>
        <time>2010-05-08T22:58:56Z</time>
      </trkpt>
      <trkpt lat="45.17523" lon="4.8601">
        <ele>166.73109436035</ele>
        <time>2010-05-08T22:59:14Z</time>
      </trkpt>
      <trkpt lat="45.17505" lon="4.86027">
        <ele>167.1555480957</ele>
        <time>2010-05-08T22:59:22Z</time>
      </trkpt>
      <trkpt lat="45.17346" lon="4.86386">
        <ele>168.82403564453</ele>
        <time>2010-05-08T23:01:22Z</time>
      </trkpt>
      <trkpt lat="45.17313" lon="4.86451">
        <ele>170.18684387207</ele>
        <time>2010-05-08T23:01:44Z</time>
      </trkpt>
      <trkpt lat="45.17309" lon="4.86472">
        <ele>170.43809509277</ele>
        <time>2010-05-08T23:01:51Z</time>
      </trkpt>
      <trkpt lat="45.17203" lon="4.86723">
        <ele>173.54510498047</ele>
        <time>2010-05-08T23:03:13Z</time>
      </trkpt>
      <trkpt lat="45.17053" lon="4.8707">
        <ele>172.14717102051</ele>
        <time>2010-05-08T23:05:08Z</time>
      </trkpt>
      <trkpt lat="45.17003" lon="4.87176">
        <ele>173.80683898926</ele>
        <time>2010-05-08T23:05:44Z</time>
      </trkpt>
      <trkpt lat="45.17022" lon="4.87446">
        <ele>171.47718811035</ele>
        <time>2010-05-08T23:07:01Z</time>
      </trkpt>
      <trkpt lat="45.17028" lon="4.87597">
        <ele>171.77217102051</ele>
        <time>2010-05-08T23:07:43Z</time>
      </trkpt>
      <trkpt lat="45.17026" lon="4.8763">
        <ele>172.07057189941</ele>
        <time>2010-05-08T23:07:53Z</time>
      </trkpt>
      <trkpt lat="45.17004" lon="4.87739">
        <ele>172.11938476562</ele>
        <time>2010-05-08T23:08:25Z</time>
      </trkpt>
      <trkpt lat="45.16994" lon="4.87744">
        <ele>172.00627136231</ele>
        <time>2010-05-08T23:08:29Z</time>
      </trkpt>
      <trkpt lat="45.16993" lon="4.87752">
        <ele>171.93951416016</ele>
        <time>2010-05-08T23:08:31Z</time>
      </trkpt>
      <trkpt lat="45.17" lon="4.87758">
        <ele>172.09400939941</ele>
        <time>2010-05-08T23:08:34Z</time>
      </trkpt>
      <trkpt lat="45.16969" lon="4.87944">
        <ele>175.31829833984</ele>
        <time>2010-05-08T23:09:28Z</time>
      </trkpt>
      <trkpt lat="45.16972" lon="4.88036">
        <ele>176.33760070801</ele>
        <time>2010-05-08T23:09:54Z</time>
      </trkpt>
      <trkpt lat="45.16987" lon="4.8822">
        <ele>176.68432617188</ele>
        <time>2010-05-08T23:10:47Z</time>
      </trkpt>
      <trkpt lat="45.16985" lon="4.88295">
        <ele>177.17834472656</ele>
        <time>2010-05-08T23:11:08Z</time>
      </trkpt>
      <trkpt lat="45.16873" lon="4.8894">
        <ele>190.07559204102</ele>
        <time>2010-05-08T23:14:15Z</time>
      </trkpt>
      <trkpt lat="45.16848" lon="4.89073">
        <ele>190.80226135254</ele>
        <time>2010-05-08T23:14:54Z</time>
      </trkpt>
      <trkpt lat="45.1684" lon="4.89096">
        <ele>190.75581359863</ele>
        <time>2010-05-08T23:15:01Z</time>
      </trkpt>
      <trkpt lat="45.168" lon="4.89134">
        <ele>191.50852966309</ele>
        <time>2010-05-08T23:15:21Z</time>
      </trkpt>
      <trkpt lat="45.16632" lon="4.89207">
        <ele>193.86251831055</ele>
        <time>2010-05-08T23:16:31Z</time>
      </trkpt>
      <trkpt lat="45.1659" lon="4.8925">
        <ele>193.83734130859</ele>
        <time>2010-05-08T23:16:52Z</time>
      </trkpt>
      <trkpt lat="45.16526" lon="4.89471">
        <ele>200.00337219238</ele>
        <time>2010-05-08T23:17:59Z</time>
      </trkpt>
      <trkpt lat="45.16435" lon="4.89839">
        <ele>210.17109680176</ele>
        <time>2010-05-08T23:19:49Z</time>
      </trkpt>
      <trkpt lat="45.16408" lon="4.89912">
        <ele>211.21569824219</ele>
        <time>2010-05-08T23:20:12Z</time>
      </trkpt>
      <trkpt lat="45.16349" lon="4.90048">
        <ele>211</ele>
        <time>2010-05-08T23:20:58Z</time>
      </trkpt>
      <trkpt lat="45.16284" lon="4.90149">
        <ele>213.61456298828</ele>
        <time>2010-05-08T23:21:36Z</time>
      </trkpt>
      <trkpt lat="45.16234" lon="4.90236">
        <ele>214.95277404785</ele>
        <time>2010-05-08T23:22:08Z</time>
      </trkpt>
      <trkpt lat="45.16135" lon="4.9045">
        <ele>219.84815979004</ele>
        <time>2010-05-08T23:23:20Z</time>
      </trkpt>
      <trkpt lat="45.16104" lon="4.90508">
        <ele>222.58494567871</ele>
        <time>2010-05-08T23:23:41Z</time>
      </trkpt>
      <trkpt lat="45.16085" lon="4.90553">
        <ele>224.53826904297</ele>
        <time>2010-05-08T23:23:55Z</time>
      </trkpt>
      <trkpt lat="45.15993" lon="4.90846">
        <ele>232.83299255371</ele>
        <time>2010-05-08T23:25:26Z</time>
      </trkpt>
      <trkpt lat="45.15965" lon="4.90922">
        <ele>233.9510345459</ele>
        <time>2010-05-08T23:25:50Z</time>
      </trkpt>
      <trkpt lat="45.15947" lon="4.90959">
        <ele>233.84378051758</ele>
        <time>2010-05-08T23:26:03Z</time>
      </trkpt>
      <trkpt lat="45.15915" lon="4.90993">
        <ele>234.32295227051</ele>
        <time>2010-05-08T23:26:19Z</time>
      </trkpt>
      <trkpt lat="45.15766" lon="4.91069">
        <ele>241.10119628906</ele>
        <time>2010-05-08T23:27:22Z</time>
      </trkpt>
      <trkpt lat="45.15652" lon="4.9115">
        <ele>244.76495361328</ele>
        <time>2010-05-08T23:28:13Z</time>
      </trkpt>
      <trkpt lat="45.15554" lon="4.91241">
        <ele>251.21650695801</ele>
        <time>2010-05-08T23:29:00Z</time>
      </trkpt>
      <trkpt lat="45.15445" lon="4.91387">
        <ele>241.19062805176</ele>
        <time>2010-05-08T23:30:00Z</time>
      </trkpt>
      <trkpt lat="45.15435" lon="4.91387">
        <ele>240.67216491699</ele>
        <time>2010-05-08T23:30:04Z</time>
      </trkpt>
      <trkpt lat="45.15434" lon="4.91395">
        <ele>240.40022277832</ele>
        <time>2010-05-08T23:30:06Z</time>
      </trkpt>
      <trkpt lat="45.15437" lon="4.91398">
        <ele>240.47535705566</ele>
        <time>2010-05-08T23:30:08Z</time>
      </trkpt>
      <trkpt lat="45.15199" lon="4.91737">
        <ele>232.9395904541</ele>
        <time>2010-05-08T23:32:23Z</time>
      </trkpt>
      <trkpt lat="45.15097" lon="4.91909">
        <ele>232.63737487793</ele>
        <time>2010-05-08T23:33:26Z</time>
      </trkpt>
      <trkpt lat="45.14839" lon="4.92459">
        <ele>244.19314575195</ele>
        <time>2010-05-08T23:36:33Z</time>
      </trkpt>
      <trkpt lat="45.14678" lon="4.92923">
        <ele>242.74328613281</ele>
        <time>2010-05-08T23:38:59Z</time>
      </trkpt>
      <trkpt lat="45.14661" lon="4.92955">
        <ele>243.31292724609</ele>
        <time>2010-05-08T23:39:10Z</time>
      </trkpt>
      <trkpt lat="45.14512" lon="4.93171">
        <ele>247.34399414062</ele>
        <time>2010-05-08T23:40:35Z</time>
      </trkpt>
      <trkpt lat="45.14396" lon="4.93356">
        <ele>252.58876037598</ele>
        <time>2010-05-08T23:41:45Z</time>
      </trkpt>
      <trkpt lat="45.14211" lon="4.93673">
        <ele>263.51940917969</ele>
        <time>2010-05-08T23:43:42Z</time>
      </trkpt>
      <trkpt lat="45.14158" lon="4.93777">
        <ele>269.55264282227</ele>
        <time>2010-05-08T23:44:18Z</time>
      </trkpt>
      <trkpt lat="45.13979" lon="4.94188">
        <ele>286.83850097656</ele>
        <time>2010-05-08T23:46:34Z</time>
      </trkpt>
      <trkpt lat="45.13945" lon="4.94238">
        <ele>288.12127685547</ele>
        <time>2010-05-08T23:46:54Z</time>
      </trkpt>
      <trkpt lat="45.13868" lon="4.94328">
        <ele>286.21734619141</ele>
        <time>2010-05-08T23:47:34Z</time>
      </trkpt>
      <trkpt lat="45.13851" lon="4.94355">
        <ele>285.06518554688</ele>
        <time>2010-05-08T23:47:44Z</time>
      </trkpt>
      <trkpt lat="45.13742" lon="4.94635">
        <ele>286.1494140625</ele>
        <time>2010-05-08T23:49:14Z</time>
      </trkpt>
      <trkpt lat="45.13726" lon="4.94659">
        <ele>286.72277832031</ele>
        <time>2010-05-08T23:49:24Z</time>
      </trkpt>
      <trkpt lat="45.13631" lon="4.94769">
        <ele>291.45510864258</ele>
        <time>2010-05-08T23:50:13Z</time>
      </trkpt>
      <trkpt lat="45.13589" lon="4.94798">
        <ele>292.09439086914</ele>
        <time>2010-05-08T23:50:31Z</time>
      </trkpt>
      <trkpt lat="45.13531" lon="4.94815">
        <ele>289.20193481445</ele>
        <time>2010-05-08T23:50:55Z</time>
      </trkpt>
      <trkpt lat="45.13422" lon="4.94822">
        <ele>282.62191772461</ele>
        <time>2010-05-08T23:51:39Z</time>
      </trkpt>
      <trkpt lat="45.13351" lon="4.94854">
        <ele>281.28277587891</ele>
        <time>2010-05-08T23:52:09Z</time>
      </trkpt>
      <trkpt lat="45.13321" lon="4.9488">
        <ele>279.92761230469</ele>
        <time>2010-05-08T23:52:23Z</time>
      </trkpt>
      <trkpt lat="45.13312" lon="4.94899">
        <ele>279.39559936523</ele>
        <time>2010-05-08T23:52:29Z</time>
      </trkpt>
      <trkpt lat="45.13308" lon="4.94921">
        <ele>278.98190307617</ele>
        <time>2010-05-08T23:52:36Z</time>
      </trkpt>
      <trkpt lat="45.13307" lon="4.94986">
        <ele>277.39459228516</ele>
        <time>2010-05-08T23:52:54Z</time>
      </trkpt>
      <trkpt lat="45.13286" lon="4.95036">
        <ele>273.63858032227</ele>
        <time>2010-05-08T23:53:10Z</time>
      </trkpt>
      <trkpt lat="45.13267" lon="4.95058">
        <ele>271.03015136719</ele>
        <time>2010-05-08T23:53:20Z</time>
      </trkpt>
      <trkpt lat="45.13209" lon="4.95094">
        <ele>268.1735534668</ele>
        <time>2010-05-08T23:53:46Z</time>
      </trkpt>
      <trkpt lat="45.13184" lon="4.95124">
        <ele>267.14413452148</ele>
        <time>2010-05-08T23:53:59Z</time>
      </trkpt>
      <trkpt lat="45.13168" lon="4.95174">
        <ele>264.85540771484</ele>
        <time>2010-05-08T23:54:14Z</time>
      </trkpt>
      <trkpt lat="45.13142" lon="4.95328">
        <ele>261.95764160156</ele>
        <time>2010-05-08T23:54:59Z</time>
      </trkpt>
      <trkpt lat="45.13137" lon="4.95347">
        <ele>262.76205444336</ele>
        <time>2010-05-08T23:55:05Z</time>
      </trkpt>
      <trkpt lat="45.13124" lon="4.95369">
        <ele>263.80102539062</ele>
        <time>2010-05-08T23:55:13Z</time>
      </trkpt>
      <trkpt lat="45.13096" lon="4.95398">
        <ele>262.97564697266</ele>
        <time>2010-05-08T23:55:27Z</time>
      </trkpt>
      <trkpt lat="45.13063" lon="4.9542">
        <ele>261.279296875</ele>
        <time>2010-05-08T23:55:41Z</time>
      </trkpt>
      <trkpt lat="45.12837" lon="4.95536">
        <ele>268.64175415039</ele>
        <time>2010-05-08T23:57:17Z</time>
      </trkpt>
      <trkpt lat="45.12706" lon="4.95674">
        <ele>269.86315917969</ele>
        <time>2010-05-08T23:58:23Z</time>
      </trkpt>
      <trkpt lat="45.1269" lon="4.95687">
        <ele>268.53109741211</ele>
        <time>2010-05-08T23:58:30Z</time>
      </trkpt>
      <trkpt lat="45.12635" lon="4.95716">
        <ele>264.24331665039</ele>
        <time>2010-05-08T23:58:54Z</time>
      </trkpt>
      <trkpt lat="45.12614" lon="4.95734">
        <ele>261.81527709961</ele>
        <time>2010-05-08T23:59:03Z</time>
      </trkpt>
      <trkpt lat="45.12562" lon="4.95827">
        <ele>255.1364440918</ele>
        <time>2010-05-08T23:59:37Z</time>
      </trkpt>
      <trkpt lat="45.12423" lon="4.96147">
        <ele>245.71446228027</ele>
        <time>2010-05-09T00:01:23Z</time>
      </trkpt>
      <trkpt lat="45.12375" lon="4.9624">
        <ele>242.97392272949</ele>
        <time>2010-05-09T00:01:56Z</time>
      </trkpt>
      <trkpt lat="45.12355" lon="4.96265">
        <ele>241.63032531738</ele>
        <time>2010-05-09T00:02:06Z</time>
      </trkpt>
      <trkpt lat="45.1232" lon="4.96296">
        <ele>239.39619445801</ele>
        <time>2010-05-09T00:02:23Z</time>
      </trkpt>
      <trkpt lat="45.12254" lon="4.96339">
        <ele>234.14884948731</ele>
        <time>2010-05-09T00:02:52Z</time>
      </trkpt>
      <trkpt lat="45.12071" lon="4.96418">
        <ele>218.39105224609</ele>
        <time>2010-05-09T00:04:08Z</time>
      </trkpt>
      <trkpt lat="45.12019" lon="4.96476">
        <ele>213.71124267578</ele>
        <time>2010-05-09T00:04:35Z</time>
      </trkpt>
      <trkpt lat="45.11981" lon="4.9649">
        <ele>210.55926513672</ele>
        <time>2010-05-09T00:04:51Z</time>
      </trkpt>
      <trkpt lat="45.11946" lon="4.9651">
        <ele>208.01861572266</ele>
        <time>2010-05-09T00:05:06Z</time>
      </trkpt>
      <trkpt lat="45.11917" lon="4.96549">
        <ele>204.67645263672</ele>
        <time>2010-05-09T00:05:22Z</time>
      </trkpt>
      <trkpt lat="45.11826" lon="4.96741">
        <ele>197.20629882812</ele>
        <time>2010-05-09T00:06:27Z</time>
      </trkpt>
      <trkpt lat="45.11751" lon="4.96826">
        <ele>195.12803649902</ele>
        <time>2010-05-09T00:07:06Z</time>
      </trkpt>
      <trkpt lat="45.11742" lon="4.96817">
        <ele>195.27281188965</ele>
        <time>2010-05-09T00:07:10Z</time>
      </trkpt>
      <trkpt lat="45.11728" lon="4.96823">
        <ele>195.35646057129</ele>
        <time>2010-05-09T00:07:16Z</time>
      </trkpt>
      <trkpt lat="45.11655" lon="4.9669">
        <ele>194.48162841797</ele>
        <time>2010-05-09T00:08:03Z</time>
      </trkpt>
      <trkpt lat="45.11583" lon="4.96501">
        <ele>194.98155212402</ele>
        <time>2010-05-09T00:09:04Z</time>
      </trkpt>
      <trkpt lat="45.11589" lon="4.96458">
        <ele>196.85534667969</ele>
        <time>2010-05-09T00:09:16Z</time>
      </trkpt>
    </trkseg>
  </trk>
</gpx>